GFSSGP_700_rhum_000.txt.gz
RH
29 16 15 36 38 45 44 44 48 49 46 36 35 34 35 31 28 25 26 27 26 19 13 10 8 6 2 3 2 2 2 2 2 2 3 4 6 6 6 6 6 6 7 7 7 7 7 8 8
31 19 17 32 40 44 39 49 51 42 46 42 36 35 36 32 31 30 30 28 29 26 16 10 8 5 2 3 3 3 2 2 3 3 4 6 7 7 7 7 7 8 8 7 7 7 7 8 8
35 22 18 30 42 39 39 46 51 46 44 41 40 36 36 34 34 32 30 28 27 28 26 13 6 5 3 3 3 3 3 4 4 4 5 6 6 6 6 7 8 7 7 6 7 7 8 8 8
40 26 17 32 40 39 35 41 42 46 43 42 42 37 37 35 37 36 33 31 29 28 28 23 10 4 3 3 4 4 4 4 4 5 6 7 6 6 7 7 7 7 7 8 8 8 8 8 8
48 31 15 26 35 38 42 39 44 48 41 39 36 39 38 38 37 35 33 32 31 31 29 31 17 6 3 2 3 4 5 5 5 5 5 6 6 6 6 7 8 8 8 8 8 8 8 9 9
54 41 19 19 27 36 36 29 37 46 42 39 37 37 38 40 38 36 35 34 33 32 31 31 33 15 6 3 2 3 4 5 5 4 5 5 5 6 7 8 9 9 9 8 8 9 10 10 10
56 49 39 20 23 30 38 40 39 33 43 41 39 39 38 39 39 37 39 38 37 33 31 31 32 35 14 6 3 3 3 3 4 4 5 5 5 6 7 8 9 10 9 8 9 10 10 12 12
60 56 45 25 18 27 43 44 45 45 45 40 40 39 37 38 38 39 40 39 40 36 32 32 31 37 38 18 8 4 3 4 3 4 4 4 5 6 7 8 10 9 8 9 10 11 12 13 13
65 62 47 36 16 22 33 43 47 44 42 42 41 39 36 36 37 39 40 41 42 40 36 33 32 32 34 37 29 16 8 5 6 6 6 6 6 7 9 10 10 10 10 10 11 11 13 14 14
72 65 50 42 22 30 30 35 44 43 42 41 40 40 38 37 38 38 39 41 42 42 41 38 36 36 35 32 31 30 25 15 8 7 10 11 11 12 12 12 11 11 10 11 12 12 13 14 14
69 64 59 38 33 27 30 32 42 46 42 42 40 38 39 39 40 39 39 41 41 42 41 41 40 39 39 38 36 31 28 25 19 12 8 11 15 16 16 15 14 12 10 10 11 12 13 14 14
68 65 63 43 32 28 35 32 33 41 42 41 41 40 40 41 41 40 40 41 41 42 41 41 41 40 40 41 39 35 31 28 26 25 19 14 11 14 18 20 20 17 13 11 12 14 14 13 14
78 67 64 52 31 26 36 27 25 29 37 37 40 39 40 42 42 42 42 42 41 42 41 40 40 39 39 39 38 34 29 28 28 30 31 29 27 22 16 14 15 18 17 13 12 14 16 15 14
75 71 68 58 39 26 29 19 14 11 22 29 32 39 40 40 41 41 41 42 42 41 40 39 38 38 36 33 36 36 33 36 37 36 39 37 39 39 40 38 26 19 20 17 14 12 12 11 12
77 75 68 58 42 33 39 18 12 11 20 25 38 36 35 31 34 38 38 37 36 36 37 36 31 18 9 12 22 32 36 39 44 46 46 46 48 48 45 46 53 55 47 28 36 38 28 24 20
80 68 63 40 18 18 40 18 21 27 33 25 27 32 31 28 28 25 29 32 33 33 29 18 12 13 13 14 19 25 30 43 48 48 49 50 50 53 54 54 54 53 53 54 39 48 47 39 33
64 63 50 29 28 35 41 25 32 36 38 39 36 35 33 30 30 32 32 33 32 23 13 17 20 18 16 15 14 15 22 28 38 49 52 51 49 50 50 50 48 48 48 49 54 47 46 45 42
71 61 44 39 36 37 40 32 32 31 36 34 33 32 30 28 26 28 29 25 17 18 21 24 23 22 21 18 12 12 19 29 35 45 53 52 49 48 46 47 51 51 52 54 52 50 48 42 41
71 49 42 36 33 33 36 40 35 28 30 32 32 30 25 26 27 22 20 19 22 25 26 26 25 25 25 23 16 18 19 21 28 38 42 45 47 47 49 52 51 46 48 51 46 44 42 39 37
77 52 42 38 40 41 40 35 31 28 32 34 35 30 29 29 24 23 22 24 26 27 27 26 26 25 24 23 20 19 22 26 28 31 36 45 46 44 44 46 44 44 46 47 42 42 41 41 39
70 45 48 46 45 42 39 35 35 34 35 36 28 26 26 23 22 24 26 29 29 28 27 26 25 25 26 26 24 24 26 28 33 35 36 41 44 44 43 43 41 38 39 44 44 44 42 40 35
52 51 48 44 46 42 42 42 35 34 35 30 26 24 23 23 26 30 30 28 28 27 27 28 32 35 33 30 33 36 36 30 26 26 30 34 37 35 33 31 30 29 30 31 33 32 31 30 31
50 52 48 42 44 43 39 43 36 36 34 32 30 27 24 26 30 28 28 29 30 30 30 33 36 32 29 25 23 23 27 33 37 33 28 27 26 27 26 26 25 26 26 27 27 29 33 36 38
53 47 48 48 47 52 36 39 34 30 22 30 31 30 26 29 30 30 32 32 33 33 34 36 35 33 32 29 24 25 33 40 40 38 36 35 36 36 37 37 37 37 37 36 34 34 34 46 77
48 55 52 55 58 60 38 40 28 29 26 28 29 30 29 29 30 32 33 35 35 35 36 35 33 29 29 29 28 31 32 32 34 38 42 45 46 47 48 50 52 53 52 51 48 46 46 45 54
47 52 49 64 70 54 37 36 31 28 29 30 34 36 34 34 32 34 37 37 38 37 33 32 40 40 38 37 38 39 40 41 42 42 43 43 43 43 44 44 44 45 46 48 51 57 62 62 60
46 47 47 50 52 51 41 38 35 33 28 32 32 33 36 38 35 38 38 37 36 34 39 43 44 43 42 43 45 44 45 47 48 48 48 47 46 44 42 40 39 39 38 37 40 46 49 49 49
46 44 48 50 54 53 43 38 36 32 32 32 32 34 36 34 36 41 44 42 39 42 45 48 46 49 50 49 51 51 53 56 58 59 58 55 52 50 49 48 46 45 43 40 37 34 34 39 40
50 48 46 44 42 55 54 39 34 32 33 33 35 36 37 38 44 46 44 42 44 53 54 51 51 54 54 56 57 59 61 62 63 62 59 57 57 56 53 50 47 45 43 40 37 37 38 38 34
52 48 46 39 43 43 42 36 34 33 35 37 37 43 43 48 49 45 42 49 58 56 53 54 54 57 61 63 64 62 64 65 66 66 63 60 58 56 52 47 44 41 39 36 33 32 33 36 35

GFSSGP_700_rhum_003.txt.gz
RH
38 19 12 29 32 42 46 47 49 47 46 35 34 34 34 35 31 28 30 27 27 27 24 15 8 7 4 2 3 2 3 2 2 2 3 4 5 5 5 6 6 6 6 8 7 7 7 8 8
41 22 15 28 34 44 41 48 48 45 43 46 39 38 36 35 33 33 33 29 26 26 26 24 12 6 4 3 3 3 3 3 3 3 4 5 6 5 6 7 7 7 8 7 7 7 8 8 8
43 30 17 26 37 39 37 47 48 44 44 41 41 41 37 36 35 36 34 31 29 28 27 28 18 7 3 3 3 4 4 4 4 4 4 6 6 6 6 6 7 7 7 7 8 8 8 8 8
42 41 18 24 38 40 35 36 40 46 45 43 44 42 39 37 36 37 34 32 31 30 30 30 31 15 5 3 3 4 5 5 5 5 4 6 6 7 7 6 7 8 9 8 9 8 8 9 9
43 48 26 17 27 36 39 38 36 44 45 43 38 38 39 39 40 37 34 35 34 32 32 31 34 31 12 4 3 3 5 5 5 5 5 5 6 6 6 6 8 9 9 9 9 8 9 10 10
48 54 45 21 19 31 34 36 29 40 47 46 40 37 38 40 40 39 37 38 39 37 33 32 32 40 29 12 4 3 3 4 5 5 5 5 6 6 6 7 8 8 9 10 8 8 10 10 11
52 57 57 42 18 22 35 42 35 37 42 42 41 36 39 38 38 38 38 40 38 40 38 34 34 35 41 34 15 6 4 3 3 3 4 4 5 6 6 7 8 8 10 9 9 10 11 11 12
56 61 59 52 26 20 34 46 40 39 38 44 43 40 39 38 37 36 38 39 40 41 41 39 36 34 35 36 36 27 14 7 5 5 5 5 5 6 7 7 9 10 10 10 10 11 12 12 13
61 67 59 55 32 18 28 43 45 41 44 43 42 37 36 37 36 36 36 38 39 40 41 42 42 41 40 39 36 34 31 24 13 8 8 9 9 9 10 11 12 12 11 11 11 12 12 13 14
69 62 59 58 44 25 23 33 43 44 44 42 42 41 41 40 39 38 39 39 40 40 40 42 43 42 41 41 42 38 34 30 27 21 12 11 14 15 15 15 15 14 14 12 12 13 13 14 14
71 58 57 62 54 42 19 30 33 42 44 44 42 42 39 38 39 38 40 41 42 41 41 42 42 42 41 40 42 42 38 34 30 28 26 21 15 15 18 20 22 22 21 18 15 16 17 17 16
78 61 57 60 63 46 21 24 29 35 38 42 40 40 40 38 39 39 42 42 43 42 42 42 42 40 39 39 39 40 40 38 35 33 32 32 30 29 26 20 17 17 20 22 19 15 16 18 19
83 65 58 67 64 50 30 18 26 26 32 37 40 39 38 37 39 41 43 43 43 42 42 41 40 39 39 36 35 40 44 45 45 42 41 42 41 41 42 44 46 44 30 23 22 20 19 18 17
77 71 69 67 63 57 39 21 22 13 16 16 30 37 35 39 40 41 40 42 42 41 40 39 38 34 16 11 16 38 45 49 48 47 47 48 49 51 51 48 48 54 54 54 51 43 42 45 41
81 85 78 60 58 61 52 28 12 16 17 14 21 29 29 32 34 34 33 39 39 38 36 34 28 16 16 17 17 20 41 52 51 48 47 48 50 50 52 52 52 52 52 50 48 48 52 44 47
91 91 81 53 54 33 24 15 22 30 27 24 20 21 26 32 30 31 32 34 36 35 34 30 21 20 24 21 20 20 23 27 33 48 50 45 44 45 48 50 51 50 48 47 46 47 48 52 48
91 78 70 61 36 31 22 13 27 36 38 36 27 25 31 33 33 30 29 31 31 28 19 19 22 25 23 21 20 17 20 26 34 39 43 53 56 50 47 46 47 48 49 50 49 50 53 52 48
90 76 69 62 36 40 40 32 32 34 36 39 38 37 34 32 30 30 28 26 20 19 24 28 28 26 24 23 22 20 21 24 27 32 40 45 50 52 49 46 44 44 48 49 44 44 48 49 42
86 72 67 46 40 39 33 35 35 34 32 30 36 33 32 32 30 30 28 22 22 25 27 27 27 26 25 24 23 22 23 25 30 32 30 30 35 41 45 45 43 43 43 43 41 40 46 46 42
92 78 68 45 44 43 36 38 37 35 30 29 32 30 33 30 31 30 24 24 26 28 28 28 27 26 26 28 30 30 31 31 30 29 29 30 31 35 38 40 39 39 40 41 42 40 38 41 44
93 86 76 57 46 47 44 40 34 34 30 32 33 35 31 31 30 24 26 29 30 30 28 27 27 28 30 28 24 25 24 22 23 25 28 30 29 29 34 37 36 34 34 32 31 31 32 34 35
92 74 76 51 55 49 45 49 39 29 32 34 34 27 27 28 26 27 31 31 30 30 30 30 31 32 30 28 27 22 22 22 23 27 32 34 33 32 31 30 31 32 32 32 32 32 32 31 30
83 74 54 54 53 47 45 44 39 34 34 31 32 30 28 26 27 31 30 31 34 34 34 33 34 34 33 31 29 29 28 28 30 35 40 41 42 42 42 43 44 45 46 47 47 46 45 44 43
72 61 55 52 49 57 43 42 34 33 23 31 32 32 31 27 29 31 32 34 34 34 34 36 35 32 36 39 38 36 35 35 36 38 39 41 41 42 44 45 47 48 48 47 47 47 49 53 57
61 60 57 61 63 66 38 46 28 28 28 28 29 30 31 28 32 33 34 34 36 36 36 36 39 42 43 42 43 41 41 42 43 44 45 46 47 48 48 48 47 46 44 42 41 40 41 42 44
58 57 53 66 73 58 46 42 30 31 29 30 31 35 35 33 35 35 37 38 37 37 39 43 48 50 48 48 49 50 51 52 52 54 56 58 58 57 56 54 52 50 49 48 48 47 45 43 40
58 52 52 52 57 60 44 38 34 34 30 27 31 33 36 39 40 36 38 40 40 41 49 56 56 51 50 52 56 58 59 60 61 62 62 61 60 59 58 56 53 51 51 51 49 48 46 46 44
51 48 51 52 63 60 47 41 36 34 34 31 31 33 39 40 36 39 41 42 43 51 58 56 54 54 55 58 60 63 65 65 64 66 66 65 62 61 57 53 50 49 49 49 47 45 44 43 42
51 49 49 49 52 58 59 39 36 33 33 33 34 39 41 37 39 42 44 44 51 60 57 54 52 55 60 66 70 71 69 69 69 68 66 64 64 61 56 53 52 49 45 41 37 34 30 29 28
53 50 49 45 46 44 44 38 35 33 34 37 44 39 42 43 45 46 45 51 61 61 59 58 58 60 65 67 65 66 70 76 78 75 67 64 63 60 55 49 41 30 18 11 7 7 5 4 3

GFSSGP_700_rhum_006.txt.gz
RH
41 40 14 20 29 31 43 46 43 49 47 40 35 34 35 36 34 33 34 31 28 27 27 27 16 7 4 3 3 3 3 3 2 3 3 3 4 5 5 6 6 6 7 7 7 7 7 8 8
38 45 16 22 33 44 40 44 48 46 46 44 44 40 38 36 35 36 37 32 30 30 29 30 26 12 4 3 3 3 3 3 3 3 4 4 5 6 6 7 7 7 8 7 7 8 8 9 8
39 46 21 22 32 38 38 48 49 46 44 44 44 43 41 37 37 37 36 33 32 31 31 32 35 23 8 3 3 4 5 5 5 4 4 5 5 6 6 7 7 7 8 9 8 9 9 8 8
42 44 35 18 35 40 35 46 48 45 46 44 44 42 40 39 38 38 36 36 36 34 32 32 36 36 16 5 3 4 5 5 5 5 5 5 5 7 7 6 7 9 9 9 9 9 8 8 10
45 45 46 25 18 33 41 39 36 42 46 44 42 39 39 40 40 41 38 37 36 38 36 33 34 40 35 15 5 3 3 4 5 5 5 5 5 6 6 6 7 8 9 9 10 9 8 10 11
49 48 50 51 28 19 32 38 38 37 45 47 45 39 38 39 39 40 39 39 38 40 40 36 35 35 39 38 21 8 4 3 3 3 4 5 5 6 6 6 7 8 8 10 10 8 9 10 11
51 52 52 53 44 18 26 44 41 35 40 44 44 40 39 39 39 38 38 38 39 41 41 42 40 38 37 36 37 32 20 9 6 5 4 4 4 5 5 6 8 8 10 10 10 9 10 11 12
58 57 55 54 50 23 22 38 46 40 39 41 42 42 41 39 38 38 36 36 39 41 42 42 43 42 41 41 39 35 32 28 20 10 7 8 8 8 8 9 10 11 12 12 11 12 12 12 12
63 64 57 55 53 41 25 30 44 45 41 40 44 43 41 37 36 37 37 38 40 42 42 43 43 43 42 41 42 42 38 32 28 25 17 10 10 12 13 14 14 15 14 14 12 13 14 14 14
66 63 55 53 58 56 36 26 37 44 43 43 44 43 40 41 40 40 39 39 41 41 42 42 42 42 41 40 40 42 42 39 32 29 28 22 15 14 16 18 19 20 21 20 19 17 15 16 16
69 67 53 52 61 64 40 21 26 41 44 44 44 43 42 41 40 40 41 41 42 42 43 42 42 40 39 39 40 40 41 43 39 36 34 33 30 25 21 18 17 16 16 18 20 19 16 16 17
72 66 56 53 60 65 51 37 20 28 38 44 44 43 42 39 41 42 43 43 43 43 43 42 42 41 39 40 40 40 42 45 46 44 41 42 40 39 39 40 42 39 32 26 24 24 22 19 17
77 67 59 59 61 62 64 46 33 18 27 35 38 39 40 38 40 42 43 43 43 42 42 42 40 40 38 30 22 30 42 47 49 47 46 48 49 49 49 48 48 51 53 54 54 53 50 44 42
78 68 62 66 58 64 63 52 62 16 15 23 26 26 27 36 37 41 42 41 40 40 39 38 37 34 26 16 18 18 29 46 50 50 47 46 48 50 52 53 54 54 55 54 53 52 50 49 50
87 81 78 62 55 56 61 52 26 20 16 14 17 15 14 27 34 38 38 34 37 40 39 38 36 31 23 23 25 22 20 26 38 50 51 46 44 45 47 50 52 54 54 53 51 50 50 49 49
92 91 88 53 58 59 56 34 16 26 14 21 30 21 21 28 33 35 30 31 34 37 36 35 32 22 23 27 27 28 23 23 27 31 40 51 53 48 45 45 46 46 46 46 47 49 51 50 48
87 85 82 68 61 49 38 24 26 22 27 36 38 34 27 30 33 29 31 29 28 27 26 20 19 23 26 25 24 24 24 28 32 35 38 43 42 41 44 45 45 44 44 43 42 42 48 45 42
77 80 77 72 63 45 39 31 27 36 38 38 37 38 37 32 32 31 30 27 26 21 22 27 29 29 27 26 24 23 24 27 30 30 29 28 29 30 30 34 39 43 44 43 44 44 46 44 42
83 83 76 67 58 47 39 36 28 32 36 32 32 34 37 33 31 30 28 29 24 24 27 28 28 27 26 26 28 30 31 32 31 31 31 32 34 36 38 38 40 45 46 46 46 45 44 43 44
86 93 86 68 65 50 44 38 31 31 30 27 29 31 32 33 31 31 32 26 28 28 30 29 28 28 31 30 28 27 25 24 24 24 26 28 31 33 33 32 33 33 33 31 31 31 31 31 32
97 97 83 75 68 63 45 37 29 30 30 31 30 33 35 35 32 32 28 28 30 31 30 30 30 31 32 30 29 28 26 25 24 24 26 30 32 35 37 37 38 38 39 40 40 42 43 43 44
96 77 80 80 84 56 50 54 40 25 31 30 34 35 34 33 33 28 28 31 32 34 32 32 32 33 31 28 25 28 34 33 32 31 32 33 34 34 35 36 38 38 39 40 40 40 41 41 41
80 67 86 88 67 55 52 50 38 28 25 30 29 35 32 32 32 31 32 33 36 34 35 36 34 32 30 31 36 39 40 40 38 38 39 40 42 43 44 46 48 50 51 51 50 49 47 46 44
82 96 86 70 55 61 48 48 35 26 33 32 32 35 35 35 32 35 35 35 34 37 37 36 36 36 37 41 43 44 45 46 47 47 48 49 51 54 57 58 58 57 56 54 53 52 52 52 52
99 96 83 64 67 71 43 46 34 22 32 31 33 35 36 37 34 36 35 34 38 37 40 41 42 47 49 47 48 50 52 53 54 56 57 58 59 59 58 58 56 55 55 54 52 50 50 51 53
99 96 58 71 75 62 49 46 26 27 27 29 29 36 38 39 35 36 34 38 39 42 44 48 53 53 52 51 51 52 54 57 59 62 63 64 64 63 61 59 57 56 54 51 48 47 47 49 50
98 92 57 57 64 67 52 41 33 30 33 30 31 32 37 40 39 38 37 39 44 45 50 58 56 54 51 50 52 54 57 64 69 70 71 70 66 61 56 55 55 54 53 51 48 46 44 41 38
80 64 60 57 65 68 56 44 40 36 36 33 29 32 38 41 42 38 39 43 44 48 61 62 58 57 56 56 57 58 59 62 66 66 65 62 53 48 51 52 52 52 52 48 40 30 22 16 13
70 60 56 53 54 62 63 39 36 35 35 33 33 38 42 46 40 40 43 45 48 57 66 63 62 62 62 63 63 65 67 67 60 58 55 45 43 46 47 50 54 54 51 40 26 17 15 15 15
55 55 53 50 54 52 49 46 38 34 34 35 39 45 47 42 44 45 44 44 54 64 70 66 65 65 65 64 68 66 60 63 67 58 50 42 50 52 55 57 57 52 41 27 18 17 17 16 15

GFSSGP_700_rhum_009.txt.gz
RH
39 43 37 15 25 26 26 30 40 48 49 41 39 37 36 36 35 35 37 34 31 30 30 30 30 14 4 3 3 3 3 3 3 3 3 3 4 5 6 6 6 7 8 8 8 8 8 8 9
42 39 42 17 29 36 31 34 52 47 48 45 41 41 40 38 37 38 37 34 33 31 31 32 33 24 7 3 4 4 4 4 4 4 4 4 6 6 6 7 7 8 8 8 8 8 9 9 8
46 41 43 18 30 33 35 44 51 47 46 44 44 43 42 38 38 38 36 37 37 35 32 32 34 36 17 4 3 4 5 5 5 5 5 5 6 6 6 7 7 7 8 9 10 9 9 8 8
47 45 45 19 27 41 35 47 53 48 45 44 44 44 40 40 39 40 39 38 37 39 37 34 33 37 35 14 4 3 4 5 5 5 5 5 5 6 6 6 6 8 9 10 10 10 9 8 9
48 48 47 42 22 21 42 39 44 47 45 46 44 41 38 40 39 40 40 39 39 40 40 38 35 34 37 36 20 7 4 3 4 5 5 5 5 6 6 6 6 7 8 9 9 10 9 8 10
50 50 49 50 43 19 30 38 39 35 39 43 45 41 38 38 39 39 40 39 38 40 41 42 42 39 38 36 36 31 19 9 5 4 4 4 4 5 6 6 7 8 8 9 10 10 9 9 10
52 52 50 51 50 31 21 36 44 39 35 40 46 41 40 39 39 39 39 38 37 40 42 42 43 43 42 42 40 35 32 28 20 10 7 7 6 6 6 6 7 8 9 10 11 10 10 10 11
55 55 53 51 52 43 26 27 36 44 41 41 44 43 42 41 40 39 38 38 39 40 42 42 43 43 43 42 42 43 41 34 28 25 18 10 9 10 10 10 10 11 12 12 12 11 11 11 12
62 63 56 52 53 54 43 26 30 45 40 42 40 43 42 41 38 37 37 40 41 41 43 43 42 43 42 42 41 41 42 42 36 30 26 21 15 13 13 14 15 15 16 16 16 15 14 13 13
69 63 56 49 53 59 56 32 30 40 43 45 43 42 42 42 40 40 40 42 41 42 43 43 43 42 41 40 40 40 41 42 42 36 31 29 25 20 18 18 19 20 20 21 22 22 20 18 18
70 64 56 46 55 59 63 47 28 35 41 45 45 43 43 43 42 41 42 42 41 42 43 44 43 42 42 40 40 40 40 42 45 43 39 38 36 33 30 29 28 26 23 22 21 22 24 23 20
70 72 58 47 55 62 62 57 29 23 34 41 46 45 44 44 43 42 43 43 44 44 44 43 42 42 42 41 39 33 36 42 46 47 46 45 47 45 43 43 44 48 51 52 50 48 46 43 40
77 76 62 55 57 60 60 57 57 25 25 29 37 44 44 43 42 39 41 42 44 43 42 41 41 40 37 32 23 15 17 36 45 49 46 45 48 50 51 52 52 53 53 52 51 52 52 52 51
70 78 66 62 61 62 60 55 62 23 22 22 23 30 33 38 35 35 38 42 43 41 40 39 39 38 37 33 21 23 21 22 41 49 50 47 45 46 49 51 52 54 54 54 52 50 48 45 47
86 85 74 64 58 59 58 53 50 46 35 21 17 17 21 26 25 19 34 39 40 37 39 40 40 38 36 31 26 28 29 26 31 43 50 52 48 44 44 43 46 48 47 46 44 42 41 41 45
91 95 90 61 65 55 62 49 45 28 15 18 18 26 21 15 14 23 33 36 33 33 34 36 36 35 31 26 26 29 28 28 27 28 30 30 32 32 31 33 39 46 48 52 52 48 46 43 42
91 87 90 71 60 61 63 46 38 30 33 32 41 38 29 24 25 37 36 33 32 28 25 24 22 22 25 27 26 25 25 26 25 26 26 28 31 33 35 39 43 44 46 49 49 50 49 47 45
90 82 83 71 68 65 55 44 35 32 37 40 40 39 38 34 34 35 34 32 28 25 22 24 28 28 27 26 25 25 26 28 30 31 33 37 41 43 44 44 44 43 42 42 42 40 38 35 32
74 68 72 70 70 73 53 46 36 28 32 35 37 35 37 39 37 35 32 27 28 24 26 28 29 28 28 29 30 29 27 26 27 28 31 33 35 37 38 37 36 36 36 37 38 38 38 39 40
87 84 77 72 77 76 69 48 37 31 25 32 35 32 30 32 35 35 31 32 27 29 30 30 29 30 31 31 28 27 27 26 26 26 27 30 32 33 35 36 37 37 38 38 38 38 38 38 40
88 77 74 87 79 75 74 53 37 30 26 24 27 33 29 32 35 35 32 30 31 32 32 32 31 32 32 31 28 24 26 30 33 33 32 33 34 36 37 40 42 43 45 46 47 48 49 48 48
87 83 78 85 91 87 74 58 45 36 27 24 30 37 30 35 36 34 32 32 34 37 34 33 33 32 30 25 26 32 36 39 40 40 40 41 42 44 47 49 52 54 56 57 57 57 57 56 55
97 84 86 90 94 91 70 56 47 38 30 31 34 37 35 34 32 34 34 36 38 36 37 36 34 29 26 30 38 41 42 44 46 47 48 50 52 54 56 59 60 60 58 56 55 54 53 52 52
94 76 86 96 94 62 60 55 46 22 33 31 35 34 35 32 34 34 37 39 38 38 38 38 35 34 36 42 47 47 47 47 48 52 54 56 59 60 60 59 56 50 45 42 42 46 48 48 47
99 88 96 96 80 67 50 52 39 30 29 32 34 33 35 36 33 36 38 40 40 41 43 41 39 42 47 50 48 46 44 43 44 46 50 56 57 53 46 42 36 32 34 39 43 44 46 47 46
98 92 84 76 71 60 55 52 29 32 30 34 33 36 36 38 36 36 39 41 41 44 44 42 48 51 52 53 53 53 52 52 51 50 52 51 45 38 26 25 32 38 39 40 42 43 43 44 44
100 98 82 61 66 65 53 46 38 36 34 35 35 34 37 39 38 39 41 41 43 45 43 47 55 57 58 59 59 58 55 53 55 52 50 47 48 56 34 35 40 41 41 42 44 45 45 42 34
88 83 98 68 67 70 60 51 44 39 38 37 33 32 36 40 41 42 43 43 45 46 47 54 63 62 63 63 61 56 50 49 55 58 62 65 68 64 39 44 45 44 46 47 46 44 39 33 28
96 98 96 68 58 62 58 40 38 38 35 35 33 35 37 41 45 46 43 45 46 46 52 63 67 67 67 64 62 53 45 59 60 51 48 49 38 40 42 44 47 52 54 52 48 42 39 37 32
76 83 90 57 60 56 53 46 39 33 35 34 33 37 42 48 51 45 48 49 44 49 63 67 71 73 69 66 59 55 67 74 76 69 73 45 40 42 46 50 52 54 51 46 38 27 14 11 12

GFSSGP_700_rhum_012.txt.gz
RH
41 39 43 15 38 35 32 38 41 50 49 43 40 37 37 36 36 36 38 34 33 32 30 30 32 28 10 3 4 4 3 3 3 3 3 3 4 5 6 6 6 7 7 8 8 8 8 8 9
43 44 42 21 32 31 25 38 41 44 48 46 41 38 40 37 37 38 36 36 37 35 32 31 31 34 18 4 4 5 5 4 4 4 4 4 6 6 6 7 7 8 8 8 8 8 9 9 9
45 46 45 27 24 31 34 40 52 48 44 46 44 42 41 38 38 40 38 37 36 38 37 34 32 33 34 12 3 4 5 6 5 5 5 5 6 6 6 6 7 7 8 9 10 10 10 10 8
46 47 47 37 25 39 36 47 45 48 45 44 44 43 42 39 39 40 40 40 38 38 39 39 36 34 33 34 15 4 4 5 5 5 5 5 6 6 6 7 7 7 8 9 10 10 10 10 8
48 48 50 46 43 18 38 38 45 51 46 43 43 44 41 39 40 40 40 42 39 40 41 41 42 40 36 35 35 26 10 4 4 4 5 5 5 6 6 6 6 6 7 8 9 9 10 10 9
52 49 49 48 50 41 20 39 38 45 45 41 45 43 41 38 38 39 40 42 38 40 42 42 43 43 42 40 38 34 31 24 12 6 5 4 4 6 6 6 7 7 8 8 8 9 10 10 9
50 62 53 54 50 51 30 28 40 39 37 36 44 44 42 40 38 38 39 41 38 39 42 42 42 42 43 42 42 42 40 32 28 22 14 8 7 7 6 6 7 7 8 8 9 10 11 11 11
53 55 61 56 47 54 48 24 36 42 42 38 41 44 46 42 40 39 38 41 40 40 42 43 42 42 42 41 41 41 42 42 38 30 25 19 14 11 10 11 11 12 12 13 13 13 13 13 12
57 67 58 57 54 52 55 42 26 39 42 41 42 43 43 42 40 38 38 38 41 41 42 43 43 42 41 41 40 40 41 41 41 38 31 27 21 17 15 15 16 17 18 19 19 20 20 19 18
66 71 61 64 57 47 53 57 38 33 40 42 43 42 42 42 41 40 37 38 41 41 41 43 43 43 41 40 39 39 40 41 42 42 39 34 30 26 23 21 20 21 21 22 21 20 20 21 21
76 74 68 55 51 52 50 56 54 35 35 39 44 44 43 41 40 40 42 41 42 41 41 42 43 43 42 41 40 41 41 40 42 44 44 42 40 38 35 34 34 35 36 37 36 34 33 29 27
80 64 74 56 54 57 54 52 54 43 33 37 38 44 45 45 44 43 43 42 43 43 43 43 43 43 42 42 41 36 20 20 37 44 46 46 44 44 44 44 43 44 43 42 38 38 39 40 42
78 80 72 57 56 58 57 51 55 47 27 28 30 38 44 44 44 44 43 40 41 42 42 43 42 41 39 38 36 30 22 20 26 39 44 46 46 44 45 46 45 47 47 46 47 46 46 46 49
89 82 76 65 60 64 58 49 60 44 47 31 28 27 38 42 44 43 41 37 39 40 42 41 39 38 40 39 39 31 27 26 24 25 30 38 43 42 43 43 44 46 46 46 46 47 47 46 45
99 98 91 67 62 68 58 48 50 48 52 45 37 22 24 26 33 34 32 26 28 39 39 38 37 37 40 39 39 31 30 31 29 25 25 26 29 30 30 37 42 43 44 46 47 49 51 50 49
100 100 86 74 84 68 63 61 56 52 32 21 18 20 20 19 20 20 16 17 32 37 35 33 33 35 36 35 33 30 32 31 28 27 27 27 28 30 32 34 37 43 47 49 49 49 46 47 49
99 86 86 74 83 75 75 60 53 34 32 34 35 30 30 24 18 18 27 37 36 33 32 28 25 23 23 25 26 28 30 27 27 28 31 33 35 37 40 42 42 43 44 42 39 37 37 36 36
84 83 72 76 71 61 68 55 53 45 34 37 39 38 38 32 27 28 35 36 34 31 28 25 26 28 28 27 26 25 26 29 31 32 33 36 40 42 40 39 38 37 37 38 39 39 40 40 38
66 68 73 70 69 72 70 66 60 42 37 33 36 37 36 36 38 37 36 34 30 29 26 28 28 28 28 28 29 30 30 27 25 25 27 31 34 35 36 37 38 38 37 38 39 41 42 44 46
81 78 75 65 70 76 70 70 64 44 36 29 33 35 35 33 34 37 35 32 32 29 30 30 30 30 32 32 31 30 29 27 28 30 32 33 34 35 36 37 39 41 44 46 47 48 47 46 45
85 79 66 66 80 83 77 58 52 42 36 31 28 33 34 32 31 35 36 33 31 32 32 32 32 33 33 32 29 27 27 32 36 38 38 39 40 41 42 44 45 47 49 50 49 48 47 44 42
95 86 83 83 90 70 76 52 52 44 33 33 29 27 28 32 32 36 35 33 33 35 36 34 34 34 32 26 23 26 34 39 40 43 44 45 44 44 45 48 52 52 52 48 44 39 33 29 29
82 83 87 93 94 84 72 62 45 39 37 33 29 28 35 34 36 37 35 34 36 38 36 36 35 31 27 27 31 40 44 44 42 39 38 40 44 51 55 55 49 37 24 20 20 22 24 25 27
96 92 92 91 89 68 58 56 41 39 33 31 34 35 38 36 36 36 35 36 40 38 38 36 34 28 25 30 39 47 47 46 46 47 47 47 47 45 42 36 30 27 19 22 24 26 27 30 35
98 98 99 95 93 60 55 56 40 38 32 33 35 32 35 36 34 36 36 38 39 39 39 37 32 30 35 43 50 54 55 54 50 42 39 42 41 38 37 40 36 23 22 24 27 29 32 34 36
98 83 60 62 58 48 57 49 39 34 32 27 32 36 34 36 38 35 38 40 40 40 41 38 35 35 42 52 57 58 57 53 44 32 34 35 35 36 27 23 22 24 25 28 29 31 32 36 39
100 98 74 58 59 49 45 48 38 38 38 33 38 31 36 37 39 36 39 40 41 42 43 40 42 44 53 59 62 62 58 53 40 36 42 49 52 46 26 26 28 28 28 29 31 31 31 27 19
98 92 88 71 59 54 42 46 37 40 36 37 36 37 37 38 40 38 41 43 43 43 45 44 47 51 62 66 67 64 62 52 43 50 58 56 52 37 29 30 30 29 30 30 24 14 9 7 6
100 99 95 71 60 43 39 36 40 35 29 34 36 35 36 38 42 42 46 46 44 46 48 46 52 62 67 70 73 67 61 54 62 73 72 68 58 35 32 32 32 31 24 13 9 7 5 4 4
85 88 89 73 62 56 48 37 38 37 31 31 34 35 37 41 45 48 51 48 49 50 47 50 61 67 70 74 74 71 66 65 82 80 69 64 38 37 37 34 30 19 10 9 6 4 4 4 5

GFSSGP_700_rhum_015.txt.gz
RH
41 41 41 32 43 33 29 26 44 46 48 44 43 37 37 36 34 37 36 34 35 35 33 31 31 31 25 7 4 4 3 3 3 3 3 3 3 4 5 6 6 6 6 7 8 10 9 8 8
44 43 45 41 30 28 21 27 37 44 46 46 41 38 38 36 36 37 37 37 36 36 36 34 32 32 33 14 3 5 5 5 4 4 4 4 4 6 6 6 7 8 8 8 9 9 9 9 9
46 45 47 46 33 27 30 36 40 44 43 47 44 42 37 38 37 39 39 39 38 37 37 37 36 33 35 29 8 3 5 6 6 5 5 5 5 6 6 7 7 7 8 8 8 9 10 10 10
47 52 49 46 35 27 35 46 42 44 45 44 45 42 41 42 38 39 40 42 41 39 38 39 40 39 36 35 33 16 4 4 5 6 6 5 5 6 7 7 7 8 8 7 9 10 10 10 10
48 54 50 45 41 34 24 32 38 44 48 42 44 43 43 39 38 39 40 43 41 39 40 40 40 41 41 40 36 34 29 15 6 4 4 5 5 5 6 6 7 7 7 7 8 9 9 9 9
54 61 49 41 40 44 36 32 37 41 46 45 41 44 45 43 38 38 39 41 42 39 40 42 41 41 42 42 42 41 37 32 27 17 8 5 4 4 5 6 6 7 7 8 8 8 9 9 10
55 62 54 42 40 46 46 32 37 41 44 44 42 43 44 42 39 38 38 39 42 39 40 42 42 42 42 42 42 41 42 41 39 31 25 18 10 7 6 6 6 6 7 8 9 10 11 12 12
76 67 62 51 46 43 49 41 34 38 41 46 41 42 46 45 39 37 38 38 41 40 40 41 42 42 42 41 41 40 40 41 40 40 36 29 23 17 13 11 11 11 12 13 14 14 14 15 14
60 69 57 51 49 46 49 51 46 39 36 38 38 42 46 44 42 41 39 39 39 39 41 41 42 43 42 42 41 40 39 40 40 40 40 37 32 26 22 18 16 16 18 19 19 19 19 18 18
78 68 58 51 49 50 50 56 60 37 47 49 47 43 44 43 41 39 38 38 36 38 41 41 41 42 43 43 41 41 40 40 39 39 39 39 38 34 30 29 27 25 25 24 25 27 28 30 31
88 72 61 57 55 60 59 60 60 58 28 45 49 47 50 46 42 41 40 40 42 41 41 41 41 43 44 44 42 42 39 32 20 34 39 40 40 39 36 35 33 33 32 34 34 36 37 38 41
87 77 71 62 63 69 66 61 63 66 48 57 56 47 47 44 44 42 41 42 43 42 42 43 44 44 44 43 41 38 34 25 20 21 34 42 44 43 42 40 38 38 36 38 41 45 46 48 49
96 78 72 72 70 71 67 54 47 48 64 36 36 41 37 41 44 44 43 44 43 40 41 43 43 43 42 39 39 38 38 27 25 23 24 32 40 41 44 43 42 43 42 44 45 45 44 45 45
92 85 80 72 74 73 72 59 65 52 47 53 58 56 33 33 40 44 44 44 43 39 37 41 43 41 39 39 41 41 40 32 28 28 27 27 32 38 42 47 48 47 47 48 49 50 50 49 49
94 85 84 77 74 74 72 73 57 54 49 60 50 43 32 29 31 36 40 40 38 34 26 38 41 39 37 39 41 41 40 34 29 30 29 29 30 33 36 42 47 47 45 48 48 49 46 44 43
90 94 93 82 73 71 78 65 55 53 55 48 42 27 30 24 23 25 28 27 26 18 25 37 36 33 33 35 37 37 36 34 32 31 30 30 33 36 39 43 45 47 48 45 43 38 35 35 36
98 88 91 88 67 65 73 64 53 52 53 46 41 41 28 27 24 21 18 16 18 30 37 34 32 28 24 25 28 28 31 34 33 28 30 34 36 40 45 46 46 44 42 39 37 37 37 38 37
90 94 72 78 62 72 68 65 59 57 51 48 42 39 36 35 31 24 23 31 37 36 34 31 29 25 28 29 28 29 29 28 29 32 35 38 40 45 43 41 41 39 37 37 37 38 39 41 42
77 75 68 61 58 61 65 62 56 51 52 51 47 42 37 38 35 33 31 35 35 33 29 27 26 28 28 28 27 28 30 30 29 27 28 33 34 34 33 34 35 36 37 39 42 42 40 33 31
92 81 59 55 60 66 60 58 54 53 56 55 47 45 37 36 36 38 38 36 34 31 29 28 29 30 30 30 30 30 30 30 28 28 32 34 35 36 37 39 41 43 43 40 34 30 25 21 18
98 82 54 58 66 67 64 64 63 60 58 52 38 45 38 38 36 33 36 36 34 31 30 31 32 32 32 33 32 30 26 26 31 37 40 41 42 43 43 41 36 33 30 30 28 17 13 11 12
100 77 62 64 72 62 68 45 39 42 48 41 38 35 32 38 37 34 36 36 34 32 33 34 34 34 34 32 27 25 28 34 40 42 43 41 38 35 34 32 32 32 31 23 21 17 14 14 14
96 85 70 80 75 88 77 64 44 43 42 40 34 35 33 31 35 35 37 35 33 34 36 36 34 34 31 26 22 23 29 40 44 45 44 40 33 27 32 31 25 19 19 18 14 14 16 17 17
98 80 85 86 77 69 59 55 38 40 40 39 35 35 33 34 38 38 37 35 34 36 38 36 35 33 28 27 27 32 42 49 51 47 43 36 24 20 20 21 21 17 14 15 16 17 18 18 18
100 94 95 87 93 51 47 48 40 36 30 31 30 36 36 41 40 38 37 35 36 39 38 37 36 33 31 31 32 43 54 57 54 49 44 28 22 24 24 23 19 16 16 17 18 19 20 19 17
100 94 57 58 55 43 52 47 39 42 42 41 34 38 40 40 39 38 37 36 38 40 38 39 38 36 37 37 43 53 58 60 57 55 44 28 28 29 29 28 20 19 20 20 22 21 17 14 10
100 87 64 54 46 38 47 45 42 31 33 36 30 32 34 37 37 37 36 37 40 40 40 41 41 41 42 44 54 60 63 64 63 59 46 32 33 30 26 22 21 22 23 22 19 15 12 9 7
98 86 72 57 51 46 37 36 36 41 38 37 38 37 34 36 37 37 36 38 41 42 42 43 46 44 46 52 60 64 68 69 66 63 46 36 34 28 23 22 23 24 23 20 14 13 9 7 5
100 99 81 56 49 40 36 34 39 38 31 32 37 38 38 36 38 39 36 39 43 44 44 46 49 47 51 57 63 68 72 72 70 66 48 42 30 21 22 25 27 25 20 14 14 10 6 5 6
85 94 75 58 54 48 43 37 40 35 29 30 35 35 38 37 38 41 38 41 46 48 48 51 49 50 53 60 67 70 74 74 68 52 46 38 24 24 27 28 26 19 15 16 13 8 5 5 6

GFSSGP_700_rhum_018.txt.gz
RH
45 42 42 40 33 28 36 27 27 42 45 47 45 41 36 37 37 39 38 35 36 34 32 31 31 30 30 22 5 4 5 4 3 3 2 3 3 3 4 6 6 7 7 7 8 8 9 9 9
45 45 44 46 27 33 29 25 35 38 47 42 45 41 38 37 36 37 37 37 36 35 34 33 33 33 32 31 14 3 5 6 5 4 4 4 4 4 6 6 7 8 8 8 9 9 9 9 10
45 46 45 51 45 27 28 39 38 40 44 44 46 42 37 38 37 37 38 40 39 39 36 35 35 37 36 33 32 16 4 5 6 6 6 5 5 6 7 7 8 8 8 8 9 9 9 10 11
45 47 48 46 45 39 27 34 44 40 39 45 45 42 41 40 39 38 40 42 42 40 39 37 38 38 40 39 36 34 27 11 4 4 5 6 6 6 7 7 7 7 8 8 8 8 9 10 10
48 47 53 51 46 42 29 25 32 29 34 42 44 45 46 43 39 38 39 40 43 40 39 40 40 39 39 41 40 40 38 33 28 18 8 4 5 6 6 6 6 7 7 7 7 7 8 8 9
53 54 60 52 43 40 42 30 29 33 37 44 44 42 45 44 42 38 39 39 42 42 38 40 40 40 40 40 41 42 41 41 40 35 29 22 12 6 4 4 5 6 6 6 7 7 8 8 9
59 58 65 55 46 40 44 43 37 34 38 42 45 43 51 47 44 40 38 38 39 42 39 39 40 41 41 41 41 41 41 40 41 41 40 37 29 23 16 11 8 8 8 8 8 9 11 12 13
67 74 66 62 57 48 44 45 46 33 36 44 45 43 55 53 45 40 37 38 38 40 40 38 40 41 42 42 42 42 41 40 40 40 40 39 38 34 28 23 19 16 15 14 15 16 17 17 17
87 83 74 64 59 51 45 46 47 44 30 37 40 43 46 46 46 45 40 39 39 39 39 38 41 41 41 42 43 42 41 41 40 35 26 29 31 33 34 30 28 26 26 26 26 27 28 29 30
86 86 64 59 54 49 48 49 50 57 49 32 50 46 44 42 44 44 40 38 38 37 37 41 41 41 42 43 44 43 42 40 33 18 16 18 28 28 28 32 31 32 32 32 33 34 33 33 35
82 77 66 62 55 50 51 51 53 58 60 32 48 52 48 50 43 44 41 41 40 41 42 42 42 43 44 44 44 41 37 36 34 18 20 20 25 29 34 37 38 38 38 38 40 42 41 41 39
98 90 81 60 60 57 57 55 53 57 58 56 55 58 52 51 42 44 43 42 42 43 43 41 43 44 44 44 43 39 38 38 37 23 25 25 26 30 36 42 41 41 39 41 40 42 40 40 40
94 97 83 77 66 63 66 65 57 56 44 44 38 33 41 40 40 40 43 43 44 44 43 41 40 42 43 43 40 39 40 41 39 27 29 29 29 32 35 40 43 46 44 44 43 43 44 41 39
91 92 77 83 72 70 68 69 70 48 54 35 44 49 60 60 56 37 39 43 44 44 44 43 35 36 42 41 39 41 43 42 40 30 31 31 30 30 33 37 40 37 38 42 42 43 43 42 40
91 97 87 76 80 72 72 70 70 46 54 32 42 60 49 45 36 35 33 36 42 43 43 35 28 31 40 38 38 40 41 41 38 33 32 30 30 32 34 37 39 42 43 42 39 36 34 31 32
92 92 97 74 82 75 76 73 53 60 55 44 54 48 43 43 35 27 28 30 32 31 30 25 22 35 38 34 33 36 37 36 35 32 30 30 31 34 33 35 39 36 37 34 31 30 30 32 34
88 90 82 79 81 78 71 68 55 52 52 54 54 47 42 35 23 24 22 19 20 21 20 18 31 36 33 30 27 27 30 27 31 34 30 32 35 32 27 27 30 29 30 31 33 34 35 37 39
95 99 87 85 69 80 73 67 61 54 53 53 49 46 41 39 30 27 25 21 19 20 27 36 34 32 30 25 27 28 29 31 30 29 32 32 28 27 27 29 31 33 34 36 38 40 42 38 28
74 88 86 72 74 76 72 63 62 63 53 55 54 51 42 40 30 34 32 28 32 36 36 34 31 27 26 27 28 27 28 30 31 30 29 29 29 30 33 36 38 40 41 41 39 31 24 21 14
98 100 90 82 69 68 64 61 64 63 55 54 51 51 45 41 29 36 38 34 34 36 34 30 27 27 29 30 30 31 31 32 31 29 28 32 36 39 41 42 41 38 33 29 25 18 12 10 10
98 99 92 97 74 69 65 60 61 56 53 50 52 53 48 44 32 36 37 39 38 36 33 30 30 31 32 32 33 33 31 27 28 33 39 42 42 41 39 37 33 24 15 12 10 9 8 7 8
93 92 90 100 94 88 69 62 49 40 44 51 52 57 46 45 31 38 37 35 37 35 32 32 32 33 33 33 32 28 25 27 33 40 44 45 44 40 33 22 14 12 12 12 10 9 9 9 9
93 92 78 96 100 78 73 64 58 44 42 48 54 50 48 41 31 36 37 35 37 34 33 34 35 35 35 32 27 25 27 32 41 48 50 44 38 32 20 14 13 12 12 10 9 9 10 11 12
83 98 100 100 96 94 78 63 51 43 44 45 46 44 44 40 36 32 37 37 37 35 35 36 37 36 34 30 30 30 32 39 49 52 50 46 39 31 16 14 13 12 11 10 10 11 12 12 12
99 99 100 100 99 79 56 60 50 39 41 41 43 41 39 36 36 32 37 38 37 36 37 39 38 37 35 34 35 37 39 46 53 55 53 47 41 31 16 14 13 12 10 10 11 13 14 13 13
98 100 100 96 92 60 49 52 47 44 41 36 38 35 37 38 36 38 40 39 37 38 39 40 39 39 38 39 40 41 45 52 56 55 52 49 45 30 18 16 13 11 11 13 15 15 14 14 14
99 99 89 73 41 51 52 47 43 42 44 42 38 39 32 35 38 41 40 39 39 38 42 41 41 42 42 42 43 44 50 56 58 59 59 55 48 30 22 16 13 13 14 16 16 14 14 16 15
99 94 100 77 59 65 52 45 40 38 33 37 37 32 31 35 38 39 39 38 39 39 44 42 42 44 46 45 46 49 54 59 61 61 60 59 47 29 20 16 15 16 17 17 16 16 18 18 13
99 100 98 68 48 60 59 44 39 38 35 35 38 34 35 33 35 37 37 38 38 40 44 44 46 47 49 48 49 51 57 63 63 63 65 59 44 29 20 17 17 19 19 17 18 20 20 15 10
85 99 75 54 54 51 42 45 41 36 31 30 36 38 38 39 35 37 39 38 38 41 45 48 49 50 50 50 51 53 61 64 65 66 64 58 44 28 20 20 21 21 19 21 23 21 15 11 9

GFSSGP_700_rhum_021.txt.gz
RH
44 45 43 43 25 26 28 16 30 39 43 45 49 40 39 39 38 37 38 35 36 34 33 32 29 31 30 29 26 6 5 6 5 3 3 3 2 2 3 5 6 7 7 7 8 8 8 10 10
43 45 45 44 40 35 34 29 31 42 45 42 45 44 40 39 37 36 38 37 37 38 37 35 32 31 34 33 31 27 6 5 6 6 5 5 5 4 5 6 7 8 8 8 8 9 9 9 10
44 45 45 48 50 36 28 29 42 43 46 44 42 43 42 39 38 37 39 39 39 40 39 37 34 34 36 38 38 34 33 22 7 5 6 6 6 6 6 7 7 7 8 8 8 9 9 9 10
47 46 46 48 43 38 40 29 27 40 42 41 40 46 45 39 40 39 39 40 41 41 40 37 35 35 37 36 40 41 40 37 33 28 13 5 5 6 6 6 7 7 7 8 8 8 8 8 9
53 47 47 52 49 39 44 37 24 29 37 38 38 46 46 44 42 40 38 40 41 43 40 38 37 37 38 37 38 40 41 40 40 40 36 30 22 10 5 5 6 6 6 7 7 7 7 7 8
58 53 53 47 42 40 44 42 35 27 27 31 44 45 45 45 44 44 41 39 40 43 42 39 38 39 39 39 38 38 40 40 40 40 40 40 37 30 25 17 11 7 6 6 7 7 8 10 11
60 59 58 52 42 40 45 45 47 40 29 44 44 47 45 49 48 45 44 38 39 40 43 40 39 40 41 40 41 40 41 40 39 38 37 35 36 37 34 28 23 19 17 16 16 16 17 18 18
65 64 59 56 48 35 43 49 45 45 44 40 45 47 47 52 51 49 42 38 38 39 40 41 38 41 41 42 42 43 41 40 39 34 26 16 18 29 33 32 29 27 26 26 26 27 28 30 31
68 79 65 54 51 33 44 54 46 46 46 34 43 45 46 45 47 49 48 42 39 39 40 40 38 42 41 42 44 44 41 39 36 32 17 16 17 21 28 29 30 29 29 30 33 34 34 36 36
77 73 61 50 50 46 43 50 50 49 48 43 32 49 52 48 46 42 46 42 40 40 39 38 42 42 42 43 44 42 41 37 36 34 17 22 22 22 27 28 29 29 31 32 35 36 36 37 39
48 66 61 46 57 53 55 54 53 50 50 48 40 54 60 52 60 47 43 44 42 40 41 42 43 42 42 43 43 42 40 38 38 36 21 24 25 25 24 27 32 35 37 37 37 38 38 36 35
52 60 72 51 55 52 56 60 58 53 51 48 48 46 54 58 56 50 47 44 44 43 42 43 43 40 41 39 42 42 40 36 38 38 25 26 27 27 27 29 31 33 34 36 37 35 34 33 33
71 72 76 58 54 58 57 64 64 60 53 53 40 46 35 50 54 50 44 42 44 43 43 44 44 42 40 34 39 41 38 37 40 40 35 30 29 29 29 29 29 30 31 31 32 31 29 27 26
88 85 85 83 70 71 66 64 67 59 52 52 42 33 40 38 42 42 38 39 40 44 43 43 44 40 34 32 38 40 38 39 40 41 37 32 32 31 32 31 34 33 30 26 25 24 24 25 27
90 91 89 79 84 78 78 72 66 62 60 60 39 32 38 54 37 48 30 36 38 36 41 44 43 37 28 31 40 40 39 39 37 38 33 33 35 35 33 35 33 28 27 27 27 28 30 32 33
84 83 84 86 80 77 83 78 72 54 63 48 46 40 56 53 50 44 34 27 33 31 32 33 30 27 24 29 40 38 34 30 31 33 35 36 36 33 34 31 29 29 28 30 33 35 36 36 36
86 96 92 81 78 80 79 83 71 62 69 54 56 55 53 45 45 39 31 33 28 25 25 24 23 21 24 31 35 32 29 27 31 36 38 38 35 33 29 29 29 29 34 37 38 39 39 34 28
88 84 78 80 56 78 83 79 63 61 62 50 56 56 52 51 44 40 29 24 23 21 21 20 21 31 33 34 32 28 27 30 33 36 37 35 31 30 30 32 36 38 40 41 39 34 29 21 12
74 90 95 82 83 82 67 71 62 58 58 59 54 53 50 47 42 39 34 29 26 23 24 30 36 36 33 30 27 29 29 30 33 32 32 32 31 33 36 40 42 42 38 33 28 17 10 9 8
83 80 67 78 80 93 73 69 53 56 58 55 56 50 55 54 48 41 37 32 31 31 36 36 35 32 28 27 28 30 31 32 33 32 31 34 38 41 44 43 40 36 25 15 11 9 9 8 7
78 85 65 77 65 85 95 81 68 65 64 62 57 53 55 53 52 50 38 33 38 36 37 36 32 29 29 31 32 33 34 32 30 32 36 41 44 45 45 39 30 18 12 10 10 9 9 8 7
96 63 81 83 99 96 79 87 66 63 65 63 58 50 52 52 53 51 39 35 37 39 38 35 32 30 32 33 34 33 30 27 27 33 41 47 49 46 42 34 24 13 11 10 9 9 8 7 7
73 81 87 95 96 100 98 100 82 58 61 58 50 49 52 53 57 51 40 35 37 38 37 34 33 34 35 35 34 29 28 29 32 40 50 53 52 47 40 29 17 11 10 10 9 9 8 9 9
59 85 79 87 100 97 96 100 66 57 42 41 46 51 56 56 56 52 43 36 38 37 36 35 35 37 37 36 32 33 36 38 42 49 53 51 46 41 35 27 17 12 10 10 10 9 9 10 11
86 92 88 92 96 89 75 96 88 44 40 43 40 45 53 57 54 47 43 37 39 38 37 36 37 38 38 36 36 38 41 43 49 52 52 50 44 42 37 29 17 13 11 10 10 10 11 12 12
82 82 80 90 78 68 66 99 77 46 40 39 43 43 51 52 46 42 41 39 40 39 38 37 39 40 40 39 41 42 44 46 50 54 54 53 53 48 43 32 19 14 12 12 12 12 13 13 14
86 100 44 97 78 82 99 67 52 42 43 43 43 43 43 36 37 39 45 42 42 40 39 39 41 42 42 44 45 45 47 49 52 57 58 57 58 56 50 34 20 15 13 13 14 14 14 15 16
91 91 92 99 98 98 73 48 46 46 45 43 39 38 35 39 33 38 42 43 42 40 40 41 43 43 44 46 48 48 49 52 56 62 63 63 63 59 47 32 19 16 16 15 16 16 17 18 18
97 98 90 90 92 85 78 53 43 44 43 42 43 40 35 29 30 37 41 43 42 41 42 42 45 45 46 48 51 51 52 55 60 65 65 66 62 52 40 26 19 17 16 18 18 18 18 19 18
69 71 96 89 92 64 47 49 42 41 37 33 34 34 30 33 33 36 40 41 40 41 42 42 46 48 49 52 54 53 54 57 64 67 65 62 56 43 34 22 18 18 20 20 20 20 21 19 16

GFSSGP_700_rhum_024.txt.gz
RH
42 43 43 43 43 20 19 23 29 35 47 48 47 46 44 38 35 36 37 36 34 35 36 34 32 31 32 33 31 30 17 5 6 6 5 4 3 3 3 4 5 6 6 6 7 7 7 8 9
43 43 43 45 44 29 30 36 39 30 39 45 48 47 42 39 37 36 36 38 37 38 38 36 34 33 33 35 36 35 33 31 16 6 5 6 6 5 5 6 6 7 7 8 8 9 9 9 9
46 44 44 45 44 45 31 29 28 44 46 46 44 42 43 39 39 38 37 39 40 40 40 38 35 34 35 35 35 37 38 38 36 33 22 9 5 6 6 6 7 7 7 7 8 8 8 8 9
50 47 46 44 37 38 30 37 27 26 42 45 44 42 44 40 39 39 38 39 42 43 41 39 36 35 37 37 36 37 39 40 39 39 38 34 29 14 5 5 6 6 7 7 7 7 7 8 8
54 48 48 46 34 29 41 45 30 28 32 36 42 46 46 44 42 41 41 40 41 43 42 40 37 38 39 39 38 37 37 38 39 39 38 38 38 34 26 16 8 6 6 6 6 7 7 7 8
60 54 52 46 34 29 40 44 32 32 36 29 38 42 44 46 46 45 42 40 40 41 43 41 39 39 40 41 40 39 36 38 39 38 36 34 34 36 36 31 24 19 16 14 13 13 14 15 15
51 62 52 46 38 34 40 46 42 42 46 37 41 45 44 44 45 46 45 44 39 40 40 42 40 39 41 41 41 42 38 36 36 35 30 17 14 21 29 32 31 27 24 23 22 23 23 23 23
54 64 62 54 44 30 32 47 46 46 46 46 40 47 46 47 48 49 46 43 40 39 40 41 40 39 42 41 41 43 41 37 33 33 30 14 17 19 23 28 30 28 27 27 27 30 31 32 32
49 72 63 54 47 28 31 49 49 52 48 46 42 45 46 47 48 52 51 48 42 39 39 40 40 40 42 42 42 44 42 39 31 32 31 17 22 21 22 25 28 27 27 27 28 30 30 32 33
47 63 55 35 36 32 31 46 52 55 51 49 44 38 46 50 49 45 45 47 46 41 41 41 38 42 43 43 43 43 42 40 34 32 34 20 24 25 26 28 31 31 30 30 31 31 31 31 32
46 45 50 38 38 39 36 45 55 58 54 51 48 45 51 56 54 47 45 42 45 42 40 40 42 43 42 41 40 39 42 40 36 36 38 25 26 27 28 28 28 29 30 30 32 32 32 32 32
48 41 48 40 42 45 45 45 61 58 60 58 54 48 57 49 61 62 51 43 44 44 43 42 43 44 42 42 38 33 37 40 38 39 39 35 25 29 28 27 27 29 30 31 31 30 30 27 24
62 48 43 40 44 58 56 56 59 60 62 64 60 54 49 53 58 61 59 51 44 41 44 43 44 44 44 43 38 34 35 39 38 37 40 37 27 30 30 30 30 31 32 30 27 25 26 25 27
62 78 63 56 51 53 63 54 63 57 61 64 65 55 50 43 44 49 54 54 45 41 39 44 44 44 44 41 34 34 37 39 36 33 38 39 34 36 35 34 34 34 29 28 26 26 27 31 33
76 74 79 67 66 79 76 57 52 58 61 65 61 51 44 38 34 43 37 38 42 37 39 39 42 44 41 35 30 32 40 38 34 31 34 37 40 42 40 38 36 32 31 29 29 33 35 36 38
82 81 81 75 78 77 88 69 53 60 64 64 63 52 38 39 41 43 49 43 31 28 35 36 34 35 30 28 28 30 39 38 33 31 32 38 42 43 38 36 33 33 30 34 37 39 39 36 28
94 94 84 76 60 79 71 56 68 60 63 61 60 50 44 57 50 49 47 42 40 41 34 32 31 29 27 25 26 38 39 35 31 30 33 41 43 41 34 33 32 34 38 40 40 37 32 25 16
87 85 80 77 70 71 71 77 78 71 65 59 57 51 58 58 55 47 48 42 33 26 30 29 30 27 24 24 38 39 35 32 32 36 37 39 39 35 34 35 40 43 41 40 36 29 18 10 8
82 92 90 85 81 83 85 74 74 73 64 61 53 45 55 57 50 52 50 40 34 25 25 27 28 26 26 38 37 35 30 33 36 35 38 35 35 34 38 44 44 43 41 32 20 11 9 8 8
77 84 86 74 78 97 93 94 87 57 70 66 54 56 58 57 55 50 45 40 38 28 26 25 27 35 38 36 33 30 31 34 34 34 35 34 35 39 44 47 46 41 31 18 11 9 8 8 9
67 80 95 97 61 61 86 82 71 46 48 54 54 51 59 56 52 53 50 46 42 31 32 35 38 37 33 29 29 30 33 34 34 33 33 37 41 46 50 49 45 37 26 14 10 9 8 9 9
62 52 77 90 99 95 88 79 64 58 55 51 50 50 58 57 54 55 53 51 50 34 38 37 37 34 31 30 32 35 35 33 30 30 34 41 50 53 54 50 42 31 19 13 10 10 10 10 10
81 78 82 88 88 95 75 90 77 53 64 48 42 48 57 56 55 54 52 53 51 37 38 40 37 33 32 35 36 35 32 30 34 38 43 50 55 54 49 45 36 27 18 13 12 11 11 10 10
86 92 88 82 93 94 61 85 65 56 38 39 46 46 54 60 57 53 54 55 54 39 39 39 36 34 34 36 36 34 32 38 41 44 50 54 53 52 48 41 35 27 19 15 13 12 11 11 10
90 97 88 100 97 80 57 71 56 51 38 52 40 42 48 59 50 53 55 56 50 43 39 38 36 35 36 38 37 35 39 42 44 47 50 52 53 52 48 45 41 29 19 15 14 12 12 12 12
85 91 84 91 97 62 61 78 61 32 35 49 51 47 46 51 58 54 56 56 50 47 40 38 37 37 39 40 38 40 42 44 47 49 52 58 59 57 54 48 40 26 20 16 14 13 13 13 14
90 98 55 83 64 90 69 54 36 20 31 42 48 41 42 45 50 58 57 57 54 50 42 39 38 40 42 41 42 43 45 48 50 54 57 62 63 63 60 52 37 26 19 16 13 14 14 14 14
95 82 98 96 98 82 80 86 55 28 8 40 41 42 44 43 48 56 58 57 54 50 43 40 41 43 44 44 45 47 50 52 54 56 58 63 67 66 63 49 34 24 18 15 14 15 15 15 15
99 98 97 82 66 95 78 72 38 30 31 44 45 45 43 44 50 53 52 55 57 50 43 42 42 44 46 46 47 51 55 56 57 58 61 68 70 68 57 42 29 21 17 16 15 16 16 15 16
98 98 97 86 71 92 98 71 41 51 44 44 44 42 42 43 42 47 53 54 52 48 43 43 44 46 48 48 51 55 60 61 59 60 67 72 72 63 46 32 22 18 17 17 17 16 16 16 17

GFSSGP_700_rhum_027.txt.gz
RH
42 41 40 41 40 30 17 23 30 34 44 52 50 47 46 43 36 36 38 36 35 34 35 35 32 31 31 33 35 34 32 28 12 6 6 6 6 5 4 4 5 6 6 6 7 7 7 8 9
43 43 42 42 41 44 30 32 37 40 34 46 47 48 48 43 40 36 37 38 37 37 38 37 34 32 32 32 34 37 38 37 36 32 18 7 6 6 6 6 6 7 7 8 8 9 9 9 9
43 45 44 44 42 36 33 33 30 44 44 46 47 46 46 45 40 38 39 39 38 40 40 39 36 34 34 34 35 36 37 39 40 39 36 33 22 7 6 6 6 7 7 7 8 8 8 8 8
45 47 47 44 36 31 34 35 32 29 39 46 47 47 45 43 41 40 38 39 40 41 42 40 37 37 37 37 37 36 37 38 39 39 38 38 37 31 25 11 6 6 6 6 7 7 7 8 8
43 47 50 45 31 27 34 38 46 30 28 30 41 45 47 44 41 40 39 40 40 41 43 42 39 38 39 40 40 39 37 38 39 37 36 36 35 37 34 26 20 14 10 8 7 7 8 8 9
46 47 54 43 29 28 29 39 45 32 31 40 36 32 42 46 45 42 42 41 40 40 42 43 41 39 40 42 41 41 40 38 36 35 32 23 17 22 31 34 29 24 20 18 17 17 17 18 19
38 50 47 41 35 29 28 37 44 41 40 41 45 34 35 39 46 46 46 45 42 40 41 42 42 40 41 42 41 42 42 40 34 32 33 19 16 16 17 25 29 30 29 28 27 26 27 28 29
39 54 54 45 37 27 28 35 47 45 41 45 45 41 41 44 46 46 47 45 44 40 40 42 42 40 41 42 42 43 43 41 36 32 34 21 20 22 20 22 24 26 27 28 27 26 26 27 28
40 60 45 38 37 27 27 33 44 47 48 50 47 43 44 45 48 50 48 46 44 40 39 40 41 42 41 43 43 43 43 42 39 33 34 28 21 25 26 26 28 29 30 29 29 29 30 31 31
44 46 37 34 36 34 32 40 46 50 53 52 49 48 44 47 47 48 50 50 49 46 42 41 42 41 43 44 44 43 42 42 40 36 35 36 24 26 28 28 29 31 32 31 29 30 31 32 31
46 38 38 40 38 43 38 38 43 49 53 56 56 53 51 42 47 46 46 46 46 47 44 41 41 41 44 44 43 42 39 41 41 38 37 38 34 27 29 29 29 30 30 30 31 33 33 32 31
52 47 46 37 42 47 40 36 39 46 51 58 61 58 55 53 44 44 43 44 44 44 45 43 43 44 45 44 44 42 39 39 42 40 40 41 41 31 32 31 30 30 32 33 33 29 28 29 28
53 44 54 52 45 45 49 44 43 42 51 61 62 63 60 55 54 54 56 44 41 41 42 45 44 44 45 44 44 41 38 38 40 41 42 41 41 36 33 33 31 31 33 32 27 29 28 27 31
58 55 52 58 51 47 49 46 50 38 48 58 62 64 64 59 53 52 54 60 56 41 39 42 41 45 44 44 43 40 36 36 39 39 41 38 41 40 35 34 33 34 32 30 30 28 29 35 37
73 62 65 61 52 52 47 38 36 39 39 54 60 65 64 58 52 50 52 47 51 54 52 49 42 41 45 44 44 37 32 34 38 37 38 36 41 44 43 40 38 35 32 31 29 34 36 37 35
81 80 66 47 59 61 60 35 37 37 37 41 54 58 60 53 45 45 47 38 41 40 36 41 42 42 40 40 39 33 29 33 36 40 37 37 46 48 44 41 36 34 32 33 38 39 39 36 29
98 92 81 79 59 66 71 49 49 42 51 38 41 47 54 49 43 39 38 37 36 49 47 43 39 41 40 34 33 30 31 36 42 44 42 45 49 44 38 35 33 30 35 38 40 40 34 22 13
96 99 91 79 73 74 68 76 78 70 77 56 48 52 52 44 45 49 47 39 47 44 40 32 39 41 40 37 33 32 37 44 44 43 42 45 46 41 35 33 32 36 39 42 40 31 19 10 8
94 95 97 95 91 71 67 70 68 60 57 54 50 55 54 49 52 59 52 49 48 46 42 32 28 32 35 37 35 32 44 45 43 41 45 44 38 36 33 37 39 41 45 42 34 23 12 9 8
75 81 85 92 89 81 69 54 53 56 49 49 40 49 53 48 48 57 53 52 50 47 41 35 32 31 32 32 32 45 46 42 41 40 38 37 35 35 37 42 47 50 47 37 25 15 11 10 10
69 72 98 92 70 60 72 38 24 24 34 32 34 37 43 49 57 60 54 54 50 46 43 37 34 31 32 36 42 40 36 37 38 37 35 34 35 38 44 51 56 52 40 29 20 14 13 14 14
81 66 67 71 90 95 79 80 37 30 16 24 30 31 40 53 56 59 57 55 53 52 49 39 37 40 40 38 34 33 38 38 37 35 32 35 39 48 55 57 51 42 33 25 18 16 16 17 17
98 84 88 93 85 87 72 94 58 41 16 16 31 38 28 31 56 60 56 54 53 55 53 41 40 39 36 32 31 34 36 36 33 32 38 43 49 54 55 50 43 37 31 26 20 18 18 17 16
96 95 97 98 97 97 81 80 52 40 17 12 16 28 32 31 39 57 56 54 55 54 54 46 41 39 36 33 34 37 36 33 36 41 45 48 52 54 54 53 49 42 36 27 21 19 18 16 13
98 98 97 97 97 83 56 65 43 24 19 13 13 27 37 37 41 49 56 54 57 54 56 50 41 40 36 35 38 38 35 37 43 46 48 50 54 57 60 60 56 48 37 26 22 20 18 14 12
85 89 95 90 92 83 49 64 39 21 15 14 22 35 48 41 43 49 55 59 60 53 57 51 42 39 36 38 40 38 38 43 46 48 50 53 56 57 62 65 62 52 37 25 21 19 15 14 14
97 97 73 95 79 92 66 51 42 24 20 16 11 32 45 45 50 51 56 56 55 55 58 51 44 39 38 40 41 40 43 46 49 50 52 54 57 60 64 66 62 50 31 24 20 17 14 15 15
97 90 96 98 96 91 53 53 66 37 24 12 9 24 47 47 50 52 57 55 55 56 58 53 46 39 40 43 44 44 47 50 54 55 56 58 60 62 66 69 62 43 28 22 18 15 15 16 17
100 99 95 94 79 90 75 42 26 22 19 20 14 17 32 46 42 44 50 58 59 60 57 55 45 41 43 46 47 48 51 55 58 61 63 63 63 67 71 70 56 33 25 19 16 16 17 18 18
66 67 94 86 85 82 67 67 48 50 54 24 10 25 44 47 44 45 53 56 60 60 59 55 45 43 46 48 49 51 53 58 63 68 70 66 67 70 72 66 40 28 21 18 17 18 19 18 17

GFSSGP_700_rhum_030.txt.gz
RH
41 40 40 40 37 40 17 18 31 36 43 50 50 49 45 40 39 39 36 36 35 35 35 36 34 31 29 31 34 36 35 34 34 22 7 6 6 6 5 4 5 6 6 7 7 7 7 8 8
38 42 42 42 40 40 37 19 33 34 37 47 50 49 48 44 39 36 37 37 38 37 37 38 37 33 32 33 34 36 38 38 38 37 35 22 7 6 6 7 7 7 7 8 8 9 9 9 9
35 40 46 46 42 35 35 32 36 42 43 46 47 47 46 46 42 38 37 38 39 38 39 40 38 35 35 35 34 35 36 38 38 39 39 37 32 19 7 6 6 7 7 8 8 8 8 8 8
38 41 46 46 36 31 29 31 31 39 41 43 47 47 45 45 44 41 39 40 40 40 40 42 40 37 37 38 37 37 36 37 38 38 38 38 38 35 28 21 12 7 6 6 6 6 7 7 8
39 43 49 48 33 31 32 36 37 28 30 29 29 41 46 44 42 40 40 40 40 41 41 43 41 39 39 40 39 40 39 36 35 36 33 26 24 32 36 33 26 21 18 16 14 12 11 11 11
38 41 56 44 34 28 30 33 38 39 31 30 41 40 36 44 45 42 42 41 41 41 41 43 42 40 40 41 41 41 42 40 35 33 33 24 16 16 24 31 31 28 26 23 22 22 22 22 22
36 40 46 37 31 28 27 35 37 45 35 38 40 45 38 35 44 46 43 42 42 40 41 42 43 42 41 42 42 42 43 42 39 33 33 26 20 20 19 23 25 26 25 25 25 27 27 27 27
40 48 46 36 31 28 25 32 36 44 44 39 41 45 43 36 37 46 47 46 45 43 41 41 43 42 41 43 42 42 44 43 42 36 33 32 22 25 25 24 24 26 25 26 25 24 24 25 26
43 57 41 33 32 27 25 28 34 42 48 40 43 46 45 43 42 44 48 47 46 44 41 40 42 42 42 42 44 43 44 44 43 39 36 36 28 26 28 29 30 32 31 31 32 32 32 33 33
47 49 38 31 32 31 32 37 42 40 48 50 51 49 48 47 46 44 43 49 49 44 41 41 41 42 42 42 45 44 43 42 43 41 38 38 38 30 29 30 31 33 32 33 34 35 35 34 32
46 42 39 39 37 37 31 32 39 44 50 55 55 54 55 53 50 45 43 48 49 49 48 43 43 43 41 44 45 44 43 41 41 42 41 39 40 39 31 32 33 34 34 36 35 35 31 29 29
53 44 38 38 44 45 37 34 32 38 43 52 60 61 61 58 55 52 44 43 46 46 47 46 44 44 45 46 46 44 44 43 40 41 42 42 42 43 39 35 37 36 35 37 36 31 27 29 28
65 52 50 51 50 43 42 38 36 31 35 42 49 61 59 59 60 56 53 49 44 42 45 45 46 46 46 47 47 46 46 44 41 40 42 43 44 45 45 41 40 38 38 39 34 31 29 26 30
65 57 50 50 50 46 44 36 44 24 29 36 44 58 62 60 58 58 57 56 56 53 42 42 46 46 46 46 44 44 44 43 40 38 41 43 46 45 46 41 42 38 36 34 31 29 26 34 36
63 62 57 48 40 40 36 31 29 28 30 31 40 50 63 62 60 52 55 55 54 52 56 50 47 51 48 46 47 46 45 43 38 37 38 44 45 45 44 41 40 40 36 33 30 29 33 35 36
94 90 63 49 47 47 54 31 36 39 30 28 30 38 56 61 60 53 50 51 53 49 47 47 51 50 52 50 52 46 43 43 36 35 40 44 42 40 44 46 45 41 36 32 34 36 37 37 28
93 100 96 89 75 68 76 62 44 40 35 31 32 30 45 58 59 47 48 51 51 42 38 39 45 46 50 50 51 47 42 40 36 38 46 45 40 43 49 47 41 37 34 36 37 40 39 30 18
93 90 94 98 88 74 66 70 46 43 50 40 33 35 32 39 47 53 46 50 50 37 33 38 50 48 48 49 47 50 48 44 39 43 55 45 44 52 48 40 35 36 38 40 44 42 34 19 12
94 97 100 99 92 88 57 55 40 45 46 36 35 31 36 34 36 45 41 47 57 38 36 46 43 36 34 37 43 45 48 49 41 53 52 76 55 60 44 36 36 39 44 47 46 35 23 15 13
100 100 100 89 64 64 56 37 30 34 36 31 32 27 27 42 34 32 40 53 58 46 47 47 44 39 35 34 37 45 54 55 50 57 47 54 56 52 38 39 41 47 50 45 34 27 20 16 16
70 68 63 56 47 49 60 31 24 18 18 23 25 25 26 29 39 38 51 56 57 53 51 48 43 41 36 33 38 47 50 49 50 48 49 50 50 38 39 43 50 51 43 36 29 24 19 18 19
71 66 63 67 83 98 68 81 42 31 25 18 15 18 22 24 30 36 50 57 58 52 52 48 45 42 38 34 34 40 52 58 49 50 43 38 37 40 45 50 50 46 42 38 32 24 20 20 20
90 80 82 90 87 94 96 97 62 43 26 19 16 13 15 22 24 34 49 61 59 57 52 54 51 43 40 42 43 44 45 46 43 42 38 36 42 46 50 52 52 53 52 46 36 27 22 21 21
92 98 96 95 98 96 83 88 55 43 29 20 16 14 12 16 21 31 52 64 62 58 53 55 55 45 41 40 37 36 40 45 42 38 38 45 48 51 53 55 55 57 58 54 42 30 23 21 20
98 98 97 98 97 86 60 78 55 40 34 22 19 13 11 13 28 26 48 60 61 58 54 54 55 50 42 39 35 37 42 45 41 41 46 50 52 54 55 56 55 56 61 61 48 29 22 21 18
87 91 95 92 86 84 59 71 49 35 32 26 24 19 17 34 23 30 29 42 57 60 54 54 56 55 43 39 36 38 40 39 39 46 50 52 55 56 58 58 57 60 64 63 46 25 22 19 16
99 99 72 97 97 97 69 49 41 36 29 26 22 22 17 17 57 47 34 44 47 60 57 57 56 57 45 40 38 40 41 40 45 49 52 54 57 59 60 60 61 64 66 64 36 24 20 16 16
98 97 98 98 96 93 70 60 49 38 39 41 34 27 19 24 39 44 44 47 50 60 62 58 57 57 46 40 41 43 43 43 48 52 55 58 60 62 64 64 65 68 70 54 27 22 17 16 17
99 100 97 96 97 92 72 44 34 32 54 56 28 20 23 18 21 55 52 52 51 62 59 57 59 57 48 43 44 46 45 47 52 56 59 61 66 70 71 67 69 74 68 34 23 19 17 17 18
91 78 94 89 88 85 71 58 36 32 37 53 58 41 13 19 17 24 48 51 53 60 57 61 61 56 49 45 48 50 49 51 54 58 60 66 72 76 73 71 76 74 43 25 20 18 18 19 19

GFSSGP_700_rhum_033.txt.gz
RH
38 38 40 39 36 37 33 14 31 38 39 45 47 49 42 40 39 40 38 35 34 34 35 36 35 32 30 30 32 34 36 36 34 31 14 6 6 6 5 4 5 6 7 7 7 7 8 8 8
33 38 41 43 40 38 33 23 28 37 41 50 51 50 47 43 39 38 37 36 36 37 38 38 37 34 32 32 33 34 36 38 38 37 35 29 11 6 6 7 7 7 7 8 8 9 9 9 10
30 35 44 48 42 34 31 29 27 38 41 47 49 50 47 46 43 38 38 37 38 39 38 39 39 36 35 35 35 34 34 37 38 38 38 38 34 25 9 6 6 7 7 8 8 8 8 9 9
30 36 44 46 34 33 33 34 34 40 44 46 48 48 47 45 43 39 39 41 41 40 40 40 40 38 38 38 38 37 35 35 36 36 34 33 35 36 28 20 14 8 6 6 6 7 7 7 8
31 34 42 45 31 29 32 34 35 34 35 34 43 45 48 46 44 42 40 40 41 42 42 41 42 40 39 39 40 39 39 37 33 33 32 24 18 23 33 32 26 22 18 17 15 15 14 14 15
33 33 49 36 31 26 28 31 38 35 35 31 31 39 36 44 46 43 42 40 42 42 42 42 42 41 40 40 41 41 41 41 38 32 32 27 18 17 18 24 30 29 27 26 25 24 24 25 25
37 33 42 34 29 28 24 32 33 35 40 36 34 41 43 36 40 47 43 42 41 42 44 43 43 42 41 41 42 42 43 43 41 36 33 31 22 22 21 20 23 24 25 27 26 26 26 26 25
41 39 47 34 33 30 26 29 33 37 43 43 37 42 43 41 36 41 48 46 44 42 41 44 43 43 42 42 43 43 44 44 43 41 36 34 29 23 25 26 27 28 28 28 30 31 30 31 31
37 48 40 33 34 31 30 30 31 36 41 46 40 43 45 45 41 42 45 48 48 46 43 43 44 44 43 42 43 44 44 45 44 43 40 37 36 30 27 29 30 31 32 33 34 34 33 33 32
46 48 31 25 29 35 38 39 40 38 36 47 42 44 47 46 46 43 45 50 51 45 44 42 43 44 43 43 43 45 44 45 42 42 42 40 39 39 34 30 32 33 34 34 35 36 34 33 29
49 38 32 31 32 33 31 32 34 35 40 41 49 48 49 48 48 45 44 43 51 51 45 44 43 42 42 43 42 45 44 44 44 42 42 42 42 41 42 37 34 36 35 36 35 36 34 29 28
49 36 36 33 40 50 38 31 28 29 28 42 55 55 52 51 52 48 45 46 46 47 49 48 44 45 45 46 45 47 45 46 46 44 42 42 43 44 45 44 39 38 39 36 35 35 31 30 28
53 45 45 42 39 37 37 29 30 25 24 33 50 58 58 60 53 50 46 45 45 42 45 47 47 47 47 48 49 49 47 47 48 46 43 42 44 45 48 46 43 40 41 37 37 34 32 28 30
64 51 44 44 40 42 40 31 38 22 23 27 33 47 54 60 59 54 46 40 45 47 45 46 48 49 49 47 48 47 47 48 47 46 44 42 44 47 49 47 46 42 40 38 35 33 28 30 34
72 66 58 44 40 45 42 36 30 28 29 25 25 32 41 50 60 58 55 48 44 49 55 52 45 46 51 51 50 46 46 46 46 46 44 42 44 50 45 42 44 42 39 36 33 30 32 34 38
77 86 64 50 43 39 45 39 28 25 27 24 25 26 30 39 50 58 57 55 51 50 53 53 50 46 52 56 56 53 51 47 46 46 47 40 46 49 41 44 47 44 39 36 32 35 37 41 38
77 84 86 67 67 66 61 62 43 33 28 30 26 24 24 30 41 53 59 58 56 56 55 52 46 44 41 50 59 57 52 49 49 49 46 41 54 52 40 45 47 42 37 36 36 42 44 41 28
65 83 83 83 78 72 62 55 41 41 40 34 35 27 26 25 30 40 60 61 57 60 56 47 43 40 39 50 55 56 53 50 55 55 52 48 61 72 40 52 47 39 38 38 44 46 38 27 20
78 87 91 87 96 74 51 41 39 35 35 28 27 27 28 26 28 31 40 58 56 55 54 48 44 36 40 51 54 52 49 50 61 61 61 54 98 66 61 50 43 39 41 46 47 38 30 22 18
98 96 96 97 77 69 52 31 31 26 25 25 24 24 25 25 28 29 29 41 46 49 52 44 45 47 48 42 38 38 44 52 64 76 62 62 90 100 64 56 42 43 49 46 40 36 31 26 20
76 88 88 77 61 52 56 38 29 26 24 21 20 19 20 20 23 28 30 31 33 42 46 50 51 49 46 43 37 36 42 63 71 76 69 95 86 66 68 44 46 51 48 46 50 49 42 31 22
77 71 70 70 84 97 73 68 48 37 32 28 22 18 15 16 19 22 25 35 36 35 48 53 53 52 46 44 36 33 42 56 68 85 91 86 61 48 45 46 52 51 53 56 56 56 51 36 24
95 90 84 85 92 98 100 98 53 51 40 31 25 21 18 15 14 17 21 27 38 49 54 57 53 50 47 43 39 37 42 60 77 80 77 99 46 43 46 52 54 54 55 55 56 57 55 43 25
92 98 97 92 96 96 80 96 60 56 41 31 29 26 22 19 14 14 22 28 35 55 55 55 54 55 52 42 41 44 52 56 83 94 76 74 43 46 51 54 55 56 57 56 56 57 57 48 26
99 98 96 96 97 83 60 86 58 44 38 34 26 24 27 24 15 15 22 31 36 52 57 57 55 58 56 44 42 41 44 48 95 99 53 42 46 50 54 55 58 58 60 58 58 59 60 46 24
96 96 85 92 82 70 65 82 53 38 38 28 26 26 25 26 25 23 24 33 43 51 62 60 56 58 57 49 43 39 38 96 95 55 46 44 51 53 56 58 61 63 62 61 61 63 59 34 22
99 99 92 97 92 97 73 58 50 38 39 34 35 40 33 24 25 28 24 38 40 63 63 62 56 56 59 56 45 39 46 95 86 52 45 50 52 54 59 63 66 68 66 65 66 66 46 25 20
99 98 97 98 96 86 72 77 56 31 36 28 36 32 43 32 24 21 49 47 40 54 56 61 60 58 62 58 47 41 55 73 47 46 49 52 54 59 65 70 72 74 70 69 69 57 31 21 18
89 100 98 92 89 81 66 50 42 36 32 37 55 48 46 43 26 30 49 51 47 37 42 55 63 62 61 59 49 44 44 47 48 48 53 55 59 65 70 73 77 78 73 72 66 40 24 18 18
78 75 91 97 82 96 92 68 46 43 39 30 31 31 26 60 22 21 32 57 46 42 51 61 66 66 63 59 52 48 48 49 51 53 56 60 64 68 71 76 81 78 76 72 49 26 20 18 19

GFSSGP_700_rhum_036.txt.gz
RH
37 39 41 40 46 41 35 26 24 40 38 28 27 37 46 43 50 40 39 36 33 34 35 36 34 32 30 29 28 30 32 34 34 33 21 7 6 6 5 4 5 6 7 7 7 7 7 8 8
32 36 41 43 42 36 28 33 21 43 36 37 30 44 46 46 40 39 38 37 34 36 37 37 36 34 33 32 31 31 32 34 36 37 35 31 14 6 6 7 7 7 7 8 8 9 9 9 10
30 34 44 51 42 35 32 31 34 32 37 47 48 49 48 44 41 39 38 36 36 38 39 38 37 36 35 35 35 34 32 32 36 36 37 37 34 24 8 6 7 7 8 8 8 8 8 9 9
31 34 38 46 38 40 39 31 24 32 41 44 49 49 49 46 45 41 38 38 38 41 41 39 39 38 37 37 38 38 36 32 29 33 32 29 32 35 28 19 10 7 6 6 6 7 7 7 7
31 32 50 48 40 41 31 34 36 36 39 42 47 48 47 46 44 40 39 39 42 42 42 42 41 40 39 38 38 40 40 38 34 28 29 28 19 18 30 32 26 21 18 16 15 15 14 15 15
32 42 49 41 38 45 27 31 34 34 37 33 42 45 45 47 46 43 41 41 41 42 43 43 42 41 40 39 40 40 41 41 39 34 30 29 21 18 16 20 27 29 27 25 25 25 25 26 26
39 48 42 41 38 44 34 29 31 37 37 41 31 40 44 38 46 46 44 42 41 43 44 43 43 42 41 40 41 42 42 43 42 40 35 31 28 22 22 20 19 21 22 23 23 23 23 23 24
40 62 48 56 38 43 44 26 29 34 42 36 39 37 47 41 37 39 47 45 42 41 43 44 44 43 42 41 42 43 43 44 44 43 40 36 34 28 25 26 27 26 27 28 29 30 30 30 30
34 63 52 50 49 48 32 26 30 30 34 36 43 38 38 41 42 38 40 47 48 45 42 42 45 44 43 43 42 43 44 44 44 43 43 40 38 36 32 27 29 31 32 32 31 32 32 33 33
39 69 56 57 54 39 40 28 31 29 30 36 42 42 40 41 42 40 40 47 49 48 47 45 44 45 44 44 43 43 45 45 44 43 43 42 41 40 39 37 31 32 33 32 32 32 33 35 32
63 70 65 40 28 27 32 25 32 29 33 30 48 47 42 45 46 45 41 44 52 53 50 44 44 45 45 45 44 43 44 46 45 45 44 44 43 43 43 43 40 34 34 34 33 34 36 35 33
39 32 39 39 38 32 30 35 26 27 24 54 38 46 44 46 46 46 44 44 47 49 50 49 46 46 45 44 44 44 44 46 46 47 46 45 45 46 46 47 44 42 38 37 36 37 36 34 32
58 44 39 36 32 30 32 25 26 30 23 26 36 46 49 48 48 48 46 44 43 46 48 48 48 47 46 48 48 48 49 49 48 48 48 48 46 47 48 50 48 44 42 41 39 38 35 33 29
70 49 44 39 34 36 33 26 42 22 17 21 25 36 52 53 51 52 50 46 43 44 44 47 48 49 49 48 48 48 48 48 48 51 48 47 48 47 50 50 48 46 47 46 41 37 34 30 30
69 56 52 40 35 43 36 32 27 21 23 23 21 22 30 55 57 56 55 50 44 43 46 45 47 50 50 51 50 49 47 46 46 46 47 48 48 43 47 49 46 49 49 45 40 35 31 30 33
57 63 72 50 36 39 41 46 51 30 24 22 24 27 24 26 51 56 58 57 51 47 45 50 50 49 46 50 52 58 56 53 50 47 47 47 47 41 43 48 45 49 50 45 37 32 32 36 41
94 75 84 81 51 55 54 70 62 35 32 29 28 27 27 25 25 41 51 58 57 54 50 49 54 53 51 51 51 52 56 56 54 51 48 50 47 44 40 47 48 57 49 39 35 34 39 43 32
64 80 78 77 80 58 61 76 53 41 41 37 34 29 25 25 23 25 36 46 56 58 55 51 53 53 54 49 47 49 51 55 56 54 49 57 53 48 48 58 46 55 44 37 36 43 42 31 26
69 87 85 84 87 75 56 62 55 38 36 33 29 28 28 26 22 24 26 33 43 55 57 55 50 51 51 47 43 47 55 55 55 54 55 63 56 58 100 84 76 53 40 39 46 41 35 36 36
97 95 87 85 85 80 76 31 41 28 20 23 26 27 25 24 25 26 26 27 32 38 51 54 50 51 51 46 42 48 59 62 63 58 62 68 77 80 99 93 69 47 41 47 45 43 49 49 47
96 96 87 86 86 84 76 45 36 41 30 24 23 23 23 22 22 22 24 23 26 32 39 49 52 51 48 45 46 51 45 44 48 52 68 72 83 72 99 94 59 43 47 51 49 50 50 47 50
88 89 76 88 91 74 93 55 49 48 46 43 30 27 26 22 18 18 19 23 24 26 31 42 49 46 42 48 51 46 45 43 48 57 72 90 98 92 100 64 63 47 52 52 51 50 49 51 52
94 92 98 99 94 92 83 98 49 48 53 50 34 31 31 25 21 18 15 20 23 28 29 32 37 41 42 54 49 47 45 39 44 66 88 89 100 90 72 65 47 52 54 54 54 54 54 55 56
91 98 100 100 100 93 68 82 48 37 41 44 33 31 29 28 27 21 16 16 20 27 31 38 42 44 52 53 51 46 42 42 46 75 89 99 99 96 71 49 52 55 57 58 58 58 58 58 59
100 96 77 86 94 67 51 53 53 30 34 30 31 28 26 26 29 27 17 14 19 25 29 47 56 53 57 53 50 47 42 50 68 78 84 100 82 98 59 51 55 58 60 62 63 64 63 62 61
98 97 70 68 44 40 62 57 42 42 51 43 31 32 31 30 23 25 23 16 19 26 32 48 59 59 55 54 54 46 43 47 56 90 93 100 70 54 50 54 58 61 64 67 70 70 68 65 63
98 99 80 91 85 80 57 45 44 44 47 47 35 44 38 49 34 24 28 22 20 30 34 50 59 61 56 57 57 48 43 43 91 63 100 91 89 56 55 60 63 66 69 73 76 73 71 69 60
96 96 96 98 78 61 40 41 41 41 45 40 37 39 46 43 46 30 25 28 24 36 41 58 64 65 58 57 59 54 45 46 66 99 100 97 64 56 60 63 67 72 76 77 79 75 75 69 47
98 99 96 84 79 70 52 36 36 40 41 42 39 39 45 37 31 40 33 31 28 40 43 57 67 64 62 60 61 58 48 44 100 98 100 59 55 59 62 67 73 76 77 79 80 77 77 54 30
84 89 96 96 73 92 81 67 52 50 47 46 52 40 31 31 33 51 33 35 48 45 48 64 63 62 66 63 63 60 49 53 90 99 59 54 58 62 66 73 76 77 79 81 80 81 63 36 20

GFSSGP_700_rhum_039.txt.gz
RH
34 37 40 40 48 42 32 28 24 33 31 33 41 41 41 42 43 42 45 40 33 32 33 34 33 32 30 30 29 28 29 32 33 33 31 22 7 6 6 4 4 5 6 7 7 7 7 8 8
29 33 38 54 45 34 29 27 26 28 37 42 37 31 42 42 45 44 40 39 34 33 35 36 34 32 31 32 31 30 29 30 33 35 35 34 30 10 6 7 7 7 7 8 8 8 8 9 9
28 31 53 52 43 33 27 30 27 36 40 37 37 29 48 50 44 42 38 38 36 35 37 37 36 35 34 34 34 34 33 30 28 32 34 35 36 32 22 8 7 7 8 8 8 8 9 9 9
30 33 50 52 38 32 29 32 30 37 37 37 44 43 48 49 42 40 38 38 35 37 39 39 38 38 37 36 35 35 37 36 31 26 29 30 26 29 33 26 16 8 6 6 7 7 8 8 8
31 53 53 42 35 31 33 35 37 37 38 40 44 38 49 49 45 43 42 38 37 40 42 41 40 39 38 38 38 38 39 39 37 32 28 27 24 18 20 29 28 21 17 14 13 13 13 15 16
63 56 47 38 34 32 31 38 40 39 37 38 40 43 47 49 46 43 40 39 41 42 42 42 42 40 39 39 38 40 41 41 41 39 34 30 27 21 19 19 23 28 27 25 25 26 26 26 25
71 60 43 37 31 29 31 40 40 39 36 36 38 41 44 49 46 45 42 41 41 42 42 42 42 42 41 40 39 40 41 42 43 42 39 35 32 26 23 22 20 20 20 21 21 21 22 23 25
70 64 50 40 31 30 31 38 43 40 39 39 41 38 40 57 44 46 44 43 42 42 43 44 43 43 42 42 41 41 42 42 43 43 42 39 36 33 30 25 26 27 27 27 28 27 28 28 29
31 71 52 44 34 36 36 43 46 45 39 45 43 41 46 46 41 40 44 46 45 42 42 44 45 44 44 42 42 42 42 43 44 43 39 42 40 38 35 34 29 28 29 29 29 29 29 31 32
40 66 48 37 36 39 43 50 46 47 33 39 50 41 37 40 39 40 37 39 46 47 46 44 42 43 45 44 43 42 41 43 44 43 41 40 41 41 40 39 38 34 30 31 31 31 32 33 32
80 73 52 48 56 56 61 54 53 58 52 41 42 48 46 41 39 40 40 38 39 44 47 48 47 45 44 45 44 44 43 42 45 44 44 44 43 43 42 42 42 40 37 33 34 34 34 35 34
83 80 71 65 79 58 36 59 67 61 51 50 53 51 60 44 44 44 43 42 52 42 48 51 49 45 45 46 46 45 44 43 43 47 46 46 46 46 45 44 44 44 42 39 37 37 36 37 34
89 64 74 80 87 60 42 36 48 74 64 35 54 59 52 45 42 47 46 45 44 42 43 48 50 49 46 47 46 46 45 44 45 48 48 49 49 48 47 46 45 45 45 44 41 40 38 37 34
90 88 83 87 48 47 41 24 54 40 16 22 26 33 33 38 44 47 48 46 49 43 42 46 48 48 48 48 48 48 50 49 49 49 51 51 50 47 48 47 44 46 46 46 45 43 39 35 32
73 58 67 64 38 62 47 34 27 17 18 19 17 18 20 27 42 46 55 53 47 46 46 48 46 46 47 48 49 49 48 47 47 48 48 48 48 48 50 48 45 46 45 45 47 44 37 33 30
67 85 78 62 64 72 66 60 49 55 39 44 27 23 19 17 24 45 48 51 49 49 54 50 46 46 47 49 52 53 52 52 52 54 52 50 50 50 47 45 42 44 41 42 45 40 35 32 35
83 68 62 57 70 76 73 69 56 61 41 54 57 43 48 38 25 24 49 56 59 53 50 47 45 48 49 51 50 52 54 54 54 57 57 55 54 51 47 45 44 45 40 43 43 37 33 36 40
59 61 62 58 60 73 71 68 64 63 65 61 50 50 42 44 25 24 22 50 60 72 58 52 48 47 50 53 55 54 54 52 54 53 53 60 57 56 53 52 45 45 45 48 40 36 39 41 33
65 71 62 58 65 71 66 62 58 55 44 30 35 28 29 28 28 23 22 23 41 48 52 55 53 49 49 50 52 53 54 48 49 51 56 62 63 62 62 62 65 85 62 47 38 38 44 39 45
86 79 70 66 66 68 64 33 44 23 14 16 16 17 18 22 25 25 25 21 23 25 41 52 55 54 50 49 52 55 50 44 45 52 63 66 74 70 70 80 97 97 82 48 38 46 43 46 42
87 80 71 69 70 68 62 40 24 34 28 21 17 16 17 18 19 22 26 24 22 24 25 36 54 58 55 51 53 56 49 43 41 51 64 64 69 79 74 99 87 95 97 45 46 48 48 43 47
80 74 76 76 79 63 74 54 44 29 36 39 41 27 23 24 25 23 24 24 23 24 25 25 38 53 54 55 51 51 48 46 46 51 53 60 66 71 76 88 90 100 72 46 50 51 50 50 51
83 95 89 87 84 86 73 72 46 35 37 41 43 42 40 42 36 31 25 20 21 26 28 27 31 36 47 51 49 50 48 49 48 46 47 56 70 81 83 90 100 75 59 50 53 54 53 56 58
97 96 95 96 98 90 60 56 40 31 25 27 33 40 40 42 44 41 28 23 19 19 25 31 31 35 36 44 48 49 50 50 47 46 46 52 73 93 90 94 88 61 51 54 56 57 58 62 65
98 94 74 86 90 65 39 41 41 27 35 35 33 38 41 35 35 37 33 28 22 17 19 24 27 37 34 39 47 44 57 52 49 46 45 62 82 90 81 88 91 67 54 58 59 61 63 68 70
100 97 68 61 37 35 42 45 38 35 36 40 37 42 41 42 25 17 28 27 24 19 17 22 26 38 40 42 45 56 58 52 49 47 50 72 95 86 99 93 95 56 57 61 61 64 69 72 72
99 98 76 85 71 66 46 37 38 38 38 37 38 40 46 46 52 34 25 25 31 22 18 17 27 36 52 55 59 62 54 53 50 54 60 79 81 99 100 70 60 56 59 62 65 70 72 73 72
99 88 92 96 82 59 34 33 32 34 34 36 39 40 45 58 61 49 40 38 30 39 25 21 30 40 60 67 65 57 58 55 51 48 61 93 87 99 88 99 59 59 62 66 70 72 73 73 75
93 100 97 81 80 62 52 37 38 41 53 50 42 38 45 61 60 41 35 39 35 33 35 32 36 45 69 69 62 60 60 57 48 53 94 67 100 99 100 69 63 63 66 70 72 72 74 76 78
83 94 96 96 63 78 87 69 54 52 59 61 66 61 58 64 67 39 29 41 42 43 42 48 44 51 71 69 62 63 62 58 50 57 69 100 79 100 81 67 65 67 70 73 74 74 76 81 81

GFSSGP_700_rhum_042.txt.gz
RH
34 34 38 38 39 48 41 36 26 28 30 29 32 32 37 40 44 45 48 44 39 34 31 33 33 32 29 28 28 29 28 28 30 33 34 32 25 8 6 5 4 4 6 7 7 7 8 8 8
31 33 37 39 58 46 39 31 28 25 30 34 32 35 38 44 44 47 43 43 40 34 32 34 34 31 29 29 29 29 30 30 28 29 33 34 34 31 15 7 7 6 7 7 8 8 8 8 9
30 33 40 64 47 49 35 28 28 25 32 31 36 30 40 48 53 42 43 38 38 35 34 36 34 32 32 31 31 31 32 32 30 25 27 31 30 32 33 25 8 7 8 8 8 8 9 9 9
31 34 37 53 48 40 32 31 32 29 31 37 38 40 38 53 53 40 41 38 38 36 35 37 36 37 40 35 34 33 33 35 35 31 26 24 26 23 21 30 28 20 11 7 7 7 7 7 8
31 39 58 47 35 40 35 30 33 33 34 38 36 39 47 45 48 44 41 38 38 37 37 40 42 41 39 37 36 34 33 34 37 36 33 30 26 24 19 17 22 29 26 22 19 18 17 17 18
32 32 56 55 44 38 32 30 33 37 36 36 37 32 53 49 49 46 43 40 38 38 40 42 42 42 40 39 36 34 36 36 38 39 37 35 31 26 22 20 18 18 22 26 27 27 26 25 23
32 38 48 50 42 34 31 30 36 37 38 36 36 37 43 47 42 47 44 42 40 40 43 43 43 42 41 40 40 38 38 39 41 42 41 39 36 32 28 23 23 22 22 21 21 22 23 24 25
34 58 68 54 43 37 31 28 32 36 38 36 36 36 50 62 44 46 46 43 42 41 41 41 42 43 43 42 42 41 40 41 42 43 42 37 39 37 33 31 27 25 26 27 27 27 27 28 29
43 80 73 60 50 42 32 30 36 38 38 38 39 37 42 52 49 45 46 45 44 43 42 40 42 44 44 44 43 42 42 42 42 43 43 37 37 36 37 36 35 32 28 28 29 29 29 29 30
62 60 56 46 47 42 36 34 39 42 39 37 45 43 40 45 48 44 40 44 46 45 44 42 41 42 43 44 44 44 43 42 42 42 44 41 41 40 40 39 38 38 36 33 30 31 31 30 31
42 52 43 30 42 41 43 44 48 46 46 44 38 47 47 36 41 44 41 40 38 44 47 46 45 44 44 43 44 45 44 44 42 42 45 44 44 44 43 41 40 40 40 38 35 32 33 33 32
75 80 58 46 53 58 50 46 54 55 46 47 47 42 47 52 43 38 38 38 40 38 38 42 47 48 48 47 46 44 44 44 44 44 45 46 45 46 46 45 43 41 40 39 38 35 34 34 35
86 74 78 64 63 74 75 59 48 49 63 34 44 46 52 60 54 45 45 44 44 68 38 37 46 49 51 49 46 45 45 45 45 44 44 47 48 48 48 46 46 43 39 40 40 37 36 37 35
84 82 83 71 60 58 65 43 43 38 26 26 25 48 45 51 57 50 50 49 46 60 55 39 42 43 49 50 50 48 46 45 48 46 49 50 52 51 49 47 48 48 41 40 38 38 37 39 36
88 88 76 67 38 42 45 38 34 25 22 21 20 18 26 29 36 41 45 48 49 51 81 46 41 43 44 49 49 50 49 48 50 48 48 48 48 48 49 48 48 49 42 39 39 37 39 40 35
78 84 73 44 45 40 65 53 40 56 45 30 20 18 15 15 16 18 25 38 54 52 64 72 47 44 46 46 48 48 49 50 50 50 49 53 53 54 52 50 50 48 43 41 41 39 41 38 34
92 81 66 64 61 60 65 62 51 63 53 53 52 42 25 16 15 14 15 24 41 54 49 57 68 51 44 46 46 47 50 52 49 50 51 52 54 55 56 53 52 50 45 43 42 42 41 36 32
75 75 69 62 63 64 61 63 54 49 59 54 55 41 38 28 21 16 15 16 24 43 52 53 66 59 48 49 49 48 51 53 49 50 51 49 48 54 59 58 56 52 51 46 44 45 40 35 36
79 67 62 56 56 61 64 63 59 36 40 23 23 29 21 19 21 24 22 20 20 32 58 64 58 55 51 53 51 48 46 55 56 53 52 48 48 59 64 62 59 57 57 67 67 48 39 39 41
78 77 71 66 58 63 58 38 26 17 13 15 13 12 12 13 16 19 22 23 23 20 31 64 74 72 52 50 53 55 55 54 55 53 50 43 54 63 68 72 72 69 68 70 89 55 40 45 44
80 84 79 71 67 62 54 36 22 32 27 18 16 16 16 15 16 16 16 20 25 24 24 39 60 70 67 54 52 56 56 55 52 49 50 46 49 63 72 75 81 78 88 85 97 80 45 47 45
88 78 76 75 76 70 69 74 24 17 18 21 19 17 16 20 21 22 22 20 23 30 28 25 44 58 68 67 60 55 56 52 52 53 54 50 53 65 72 70 76 85 84 80 95 59 45 49 48
81 84 76 81 86 89 63 73 26 24 22 20 26 29 30 27 30 28 30 29 31 34 43 37 31 47 57 72 63 56 59 59 56 57 54 50 58 64 67 76 83 87 89 97 72 62 50 52 52
88 87 82 84 91 95 59 52 26 22 30 26 32 36 34 39 37 41 42 40 35 28 36 35 38 41 68 77 70 54 58 62 60 56 51 54 54 56 62 74 88 94 94 98 71 52 54 55 56
95 94 89 96 94 90 38 60 35 26 24 24 34 34 32 38 38 36 31 34 28 25 25 26 39 48 55 73 63 37 53 63 64 54 53 54 50 52 60 81 93 96 88 89 74 53 56 58 60
93 91 82 86 77 69 53 47 41 32 34 33 35 34 36 39 41 42 38 33 28 27 30 24 38 52 59 61 47 45 39 48 57 53 57 52 50 55 77 93 99 95 87 85 72 57 60 62 65
97 97 78 86 65 76 50 31 31 30 33 34 37 37 38 38 32 44 47 47 42 30 31 28 24 42 43 40 47 56 57 47 48 52 59 52 53 65 89 98 100 96 96 92 60 60 63 65 67
93 86 89 88 96 85 46 39 36 36 36 37 38 39 39 40 42 47 47 45 49 40 42 30 32 25 31 30 55 61 59 51 51 63 55 54 61 73 98 88 99 100 82 65 60 63 66 68 69
92 99 92 90 89 91 80 47 38 39 42 42 43 48 53 46 53 54 53 38 40 34 43 39 42 41 42 30 56 65 59 59 68 60 56 58 74 94 88 93 94 97 98 68 62 66 68 72 72
92 89 85 85 71 75 74 73 53 58 54 63 67 60 56 61 58 63 64 44 43 33 53 45 39 58 50 39 53 72 75 74 64 61 64 65 92 93 83 99 90 95 95 72 66 68 72 74 76

GFSSGP_700_rhum_045.txt.gz
RH
36 37 40 38 36 37 34 20 32 34 25 28 29 30 34 38 38 42 46 46 41 37 32 32 34 33 30 32 35 34 31 27 27 26 29 32 32 28 9 7 5 5 6 7 7 7 8 8 8
34 37 41 40 42 46 30 21 31 30 27 24 29 30 36 38 41 45 47 46 42 38 33 33 35 33 30 35 34 31 31 30 30 25 25 29 32 33 31 16 7 7 7 8 8 8 9 9 9
32 37 40 41 42 40 24 31 35 28 26 25 27 25 32 40 42 45 44 42 42 38 33 34 35 32 34 38 34 31 32 32 33 32 26 23 25 27 27 31 26 11 7 8 8 9 9 9 9
31 38 39 50 41 24 20 27 37 27 26 26 26 39 35 46 51 45 43 42 39 37 35 35 36 34 40 40 34 34 32 31 32 34 33 30 25 24 21 17 26 29 24 16 9 6 7 7 7
30 35 40 40 28 23 29 33 39 33 30 32 29 44 48 36 43 49 41 40 39 38 36 37 38 42 42 41 36 35 35 33 33 35 36 34 32 26 22 18 15 17 26 28 25 23 22 21 21
31 34 50 36 25 25 24 37 33 35 33 35 36 36 39 52 51 47 48 44 40 38 37 39 42 43 42 41 39 37 37 35 35 38 39 38 36 32 26 22 20 18 16 17 20 22 22 21 20
30 33 35 36 34 35 24 29 33 33 34 32 37 35 38 43 47 46 49 46 41 40 38 41 44 44 43 42 40 40 39 38 38 40 39 40 37 36 32 29 25 23 23 23 22 22 22 22 23
28 45 38 32 30 31 30 36 34 33 32 30 36 37 39 50 49 46 43 47 44 42 40 42 44 43 43 43 42 42 42 41 41 41 42 41 34 35 34 32 31 29 26 25 27 26 25 26 26
30 70 56 29 27 24 22 37 37 37 36 35 33 40 38 41 54 51 45 46 47 43 41 42 42 42 43 44 44 44 43 43 42 42 42 42 39 39 37 35 33 32 32 30 27 27 27 28 28
38 56 50 30 25 28 37 34 40 39 38 37 37 39 40 39 47 55 46 46 47 47 44 42 42 41 42 44 45 45 45 44 43 42 42 43 43 42 42 40 38 36 33 32 33 30 28 28 30
39 42 28 27 29 57 54 45 43 44 42 40 36 40 42 44 40 44 50 44 42 42 46 45 44 42 42 42 43 43 44 45 44 44 43 43 45 45 45 45 44 42 38 35 34 35 32 30 31
38 47 45 37 30 58 55 45 42 45 43 44 39 38 46 48 43 39 44 46 42 41 40 42 45 45 43 44 46 45 45 46 46 45 45 44 45 46 46 47 47 46 44 39 35 37 35 34 32
67 51 68 57 44 61 57 53 43 45 48 42 40 39 46 53 48 43 44 41 40 36 34 38 39 39 38 39 43 45 48 47 46 46 46 45 45 47 48 48 48 48 47 45 39 36 37 35 35
77 81 74 75 57 59 60 60 54 36 47 45 37 42 46 60 60 63 47 41 45 52 40 35 36 38 38 38 39 44 47 47 46 45 46 46 47 49 51 49 48 48 48 48 43 37 36 38 36
85 84 68 57 47 43 49 53 51 27 24 29 39 29 41 52 54 55 57 43 42 48 61 43 37 41 42 41 40 40 47 48 49 48 50 50 48 48 48 48 48 48 47 46 43 39 38 37 38
81 84 79 38 44 39 43 40 25 26 27 25 18 18 19 33 47 44 43 48 44 40 56 54 46 42 42 43 44 44 47 48 48 50 53 53 49 50 51 51 51 50 49 48 46 42 40 39 40
81 79 66 61 55 62 59 51 39 40 38 39 34 29 21 15 18 28 28 26 38 45 42 66 66 54 43 46 47 46 49 50 46 47 48 52 51 52 52 52 51 51 51 50 49 46 43 41 42
85 79 75 72 65 66 65 65 57 52 54 36 32 30 28 26 15 12 13 14 14 19 39 46 75 80 59 52 49 52 54 53 52 47 46 46 46 48 46 50 54 57 53 53 52 50 46 47 43
77 84 83 66 66 71 66 64 64 38 37 39 27 27 22 19 17 20 22 19 15 16 29 65 68 74 71 59 56 48 49 52 49 48 50 45 48 52 48 53 53 60 66 62 59 60 74 55 43
87 88 81 64 60 64 58 50 44 30 16 15 10 11 11 12 14 19 23 27 28 26 26 35 74 78 80 78 66 62 56 58 58 58 58 51 47 55 50 56 62 67 71 75 71 70 82 75 44
83 79 73 73 52 47 48 28 15 15 13 17 15 13 14 14 14 14 13 15 24 29 35 41 48 70 79 80 79 78 69 65 65 64 61 53 49 57 62 59 65 72 71 81 80 91 88 98 61
82 77 76 78 69 63 62 80 16 19 17 18 15 15 13 13 14 15 17 18 18 20 32 39 49 62 68 83 87 84 77 66 58 58 56 56 61 62 67 62 65 74 71 85 89 84 85 93 55
86 82 78 75 72 78 54 66 25 23 18 16 23 21 22 21 17 15 15 20 25 23 22 24 32 50 65 66 79 85 82 75 67 66 66 64 62 60 65 64 67 79 79 84 94 94 97 78 69
86 84 76 73 83 94 40 54 34 21 23 20 20 28 25 23 27 22 19 18 24 30 32 31 36 34 48 64 66 74 83 76 71 67 70 66 64 60 63 63 63 74 78 86 96 98 99 82 57
89 81 90 88 94 92 57 72 40 26 22 25 25 23 26 28 30 36 44 41 37 44 42 37 41 45 41 43 54 66 77 74 76 72 72 73 72 68 62 61 57 70 81 94 97 98 93 81 57
90 82 81 93 92 82 56 70 34 20 24 33 34 36 36 36 37 39 40 36 34 37 30 25 25 32 43 44 41 62 81 78 90 72 76 75 73 70 63 56 59 70 88 100 100 95 95 96 61
92 95 92 91 75 85 48 29 19 28 34 34 36 37 38 39 37 39 38 34 32 32 31 32 23 24 31 42 46 48 63 68 74 64 69 77 74 70 63 55 58 80 99 99 100 98 100 82 64
86 78 93 91 94 94 67 51 36 36 37 37 37 38 39 41 47 51 51 40 37 35 36 36 38 25 31 34 48 50 63 71 64 62 65 74 68 63 62 55 60 96 99 100 100 100 90 71 65
96 94 88 84 91 96 96 59 41 40 43 45 46 51 56 62 69 64 55 52 48 46 43 34 37 33 36 34 51 55 61 63 59 71 80 75 69 67 58 64 86 95 100 98 99 100 94 71 68
80 78 91 84 66 79 80 71 56 47 55 55 67 81 75 74 72 64 60 57 56 50 44 35 33 40 36 46 40 49 51 51 60 78 80 74 72 62 58 94 99 100 99 100 99 100 99 73 74

GFSSGP_700_rhum_048.txt.gz
RH
41 44 42 41 38 33 26 18 18 33 32 27 31 31 30 34 36 37 44 44 39 35 32 32 33 33 31 35 36 34 30 29 27 26 24 28 31 31 25 8 7 6 6 7 7 7 8 8 8
41 44 42 42 39 37 22 17 29 34 30 29 27 29 34 34 36 40 46 46 41 36 33 32 34 33 31 36 37 33 30 31 31 30 25 23 26 29 30 28 12 7 8 8 8 9 9 9 9
38 41 43 45 41 30 20 22 34 33 29 28 27 26 29 33 33 40 44 45 45 38 34 33 35 34 33 40 38 33 32 31 30 32 32 28 23 24 24 27 29 23 11 7 8 8 9 9 10
33 40 44 48 33 22 18 27 38 37 30 26 26 26 25 25 34 38 42 44 41 39 35 34 36 34 38 41 38 34 35 34 33 32 33 33 30 24 22 18 18 28 28 23 14 9 7 6 6
30 35 42 42 30 20 19 20 37 36 34 29 30 31 40 34 40 41 42 41 42 39 36 36 37 37 42 42 39 36 39 37 35 35 37 37 34 31 24 20 17 15 20 27 27 25 23 22 22
31 36 39 38 25 22 21 32 41 37 38 34 33 32 47 44 47 46 41 40 44 40 36 36 38 42 44 42 41 39 38 38 38 38 39 40 38 35 30 26 22 21 19 16 17 20 21 22 20
32 33 34 28 25 25 18 26 37 37 35 35 33 31 35 38 47 52 46 42 48 41 38 38 40 44 44 43 42 41 41 40 40 40 41 40 37 36 34 31 28 26 24 24 24 23 23 23 23
34 37 34 29 26 20 19 27 43 38 34 35 34 33 28 32 40 44 46 42 48 44 42 40 41 44 44 44 43 43 42 43 42 41 42 42 39 37 34 32 32 31 30 28 26 25 25 25 25
35 46 37 26 25 15 19 37 41 38 38 36 34 32 29 33 40 53 47 40 38 48 44 40 41 43 44 44 44 44 44 44 44 43 42 42 42 41 40 38 36 33 31 30 31 29 27 27 27
35 41 29 22 22 24 19 26 34 37 40 38 36 34 33 31 38 38 46 49 43 41 47 44 43 43 44 43 44 44 45 45 45 45 44 43 44 43 43 44 43 42 38 34 33 32 30 29 28
38 33 22 16 19 23 24 32 36 43 38 40 38 37 36 39 38 42 46 48 46 44 47 48 47 45 44 43 44 45 46 45 46 46 45 45 44 45 45 45 46 46 45 42 38 35 34 32 31
41 37 24 18 20 30 36 36 40 52 46 39 40 38 43 46 40 36 40 41 46 44 39 42 46 48 47 45 44 44 44 45 45 46 46 46 45 45 46 47 47 48 48 47 44 40 37 34 33
46 50 36 26 28 31 52 60 40 44 50 46 40 39 38 40 42 42 38 46 42 45 45 40 41 41 43 46 47 47 48 48 48 48 47 47 46 46 45 47 49 48 49 49 48 44 40 37 35
53 38 42 40 31 30 37 44 48 33 44 51 48 43 40 38 37 43 42 34 40 40 40 41 36 32 33 38 38 38 46 49 48 47 48 48 47 46 47 48 50 49 48 48 48 46 43 39 38
64 81 76 48 35 39 36 25 34 37 33 42 49 49 46 41 43 43 42 38 36 39 45 41 34 33 29 30 34 37 41 42 42 49 50 49 50 50 48 48 48 48 49 49 48 47 45 42 40
91 84 82 52 37 41 43 30 24 23 26 28 29 42 44 42 44 51 46 41 39 48 51 52 52 48 44 34 37 40 45 42 43 51 52 52 52 53 50 50 52 52 51 49 47 45 46 45 43
90 90 82 55 51 45 50 45 22 29 29 29 22 18 17 17 28 32 51 50 53 51 53 53 55 72 68 50 48 44 48 46 46 49 50 49 48 52 53 54 52 51 51 49 49 49 51 51 48
79 77 70 74 55 69 68 67 48 47 44 36 33 26 22 18 13 14 26 46 42 54 62 65 61 59 55 63 62 52 53 56 50 48 51 48 45 48 54 50 48 50 54 55 60 61 59 59 57
92 87 82 68 76 68 68 76 42 28 44 40 34 26 23 21 20 22 17 18 30 38 47 58 66 68 62 59 68 64 58 58 57 52 49 49 46 50 54 54 52 53 59 64 69 74 70 69 78
89 89 76 75 76 76 64 55 44 33 32 26 20 20 19 21 16 17 22 25 22 20 20 20 28 68 74 67 59 78 76 59 59 62 61 56 51 54 60 58 55 55 63 72 74 81 81 80 87
87 89 86 81 69 66 63 56 39 21 14 14 13 13 14 13 12 12 14 19 23 25 28 30 25 38 77 78 77 71 78 80 65 61 64 62 54 59 67 66 61 59 63 72 81 79 83 91 88
85 85 82 77 67 61 46 60 16 15 14 14 16 14 15 17 15 14 15 15 15 17 25 28 31 32 56 75 77 77 81 76 76 72 69 68 61 62 68 73 67 67 62 70 84 81 86 92 92
86 80 74 73 76 74 50 61 21 16 14 16 14 15 15 12 15 16 14 13 13 19 22 24 36 40 50 49 62 67 76 83 91 88 83 70 67 67 72 75 70 67 65 67 80 79 86 99 97
88 81 77 75 73 84 52 60 29 21 21 22 24 20 22 24 23 22 23 22 21 22 22 28 28 30 52 60 58 63 66 77 90 92 89 78 69 71 74 77 72 66 68 69 76 84 87 99 94
90 84 84 89 94 83 63 77 26 24 24 28 31 31 28 31 33 32 31 33 34 34 34 37 31 34 35 44 58 61 65 71 79 89 91 89 82 73 74 79 77 74 70 71 70 82 88 99 91
89 79 70 79 96 86 62 65 31 24 15 21 30 35 34 34 35 37 37 38 41 42 41 39 33 30 31 36 33 41 56 60 63 74 79 89 89 78 70 80 81 78 69 70 68 82 92 92 100
88 94 82 89 90 92 55 36 24 22 34 36 36 37 37 38 38 38 39 40 40 40 41 38 33 27 26 24 24 32 38 43 51 60 72 82 84 72 72 81 79 78 72 70 69 92 84 98 98
81 79 87 87 82 88 64 57 26 33 40 40 42 44 46 45 43 42 43 50 54 50 52 52 45 38 36 32 20 19 32 41 46 57 82 79 74 76 73 82 80 78 78 70 78 99 94 96 100
90 91 84 79 78 93 95 50 42 44 41 39 42 50 54 59 64 58 61 64 67 68 58 52 50 48 38 28 23 24 28 38 55 57 65 67 76 72 69 80 87 85 72 96 95 94 88 100 100
91 84 82 72 68 92 92 65 48 44 51 58 79 85 85 75 74 74 66 77 76 71 62 56 57 52 41 29 30 28 28 40 64 70 72 68 67 75 86 87 85 82 92 97 99 87 100 100 99

GFSSGP_700_rhum_051.txt.gz
RH
43 41 41 40 38 37 31 20 24 33 30 30 31 32 32 30 36 41 42 42 40 36 32 32 33 34 32 35 36 35 30 29 30 28 25 25 28 30 29 21 8 7 6 7 8 8 8 8 7
45 42 42 42 40 40 27 19 17 31 32 29 30 29 29 30 30 42 45 44 38 33 33 32 34 33 33 37 38 37 34 31 30 30 30 26 23 26 28 29 25 10 8 8 8 9 9 9 9
50 45 44 48 44 33 25 19 22 34 33 30 33 30 26 28 30 38 46 47 38 35 33 33 34 34 32 40 38 35 38 37 32 32 31 32 29 23 23 23 28 27 19 8 8 9 9 10 10
48 51 48 48 32 23 21 31 34 35 34 34 35 31 27 26 26 30 37 45 44 40 35 34 35 35 35 42 39 35 39 39 35 34 34 35 33 29 23 20 17 21 28 25 20 14 9 7 7
42 48 50 44 29 21 21 23 33 38 35 32 32 28 32 30 25 30 32 42 43 42 36 34 36 36 38 43 41 37 38 39 39 37 38 38 38 34 28 22 19 16 16 20 26 26 25 25 25
30 42 50 44 26 22 21 21 22 36 37 37 37 33 34 32 32 40 38 39 42 42 38 36 37 38 42 44 42 40 39 40 40 40 40 40 37 36 33 29 25 22 21 20 18 17 17 17 17
30 31 40 32 27 24 21 22 29 39 37 37 40 36 34 40 38 41 42 38 38 46 41 37 38 39 43 44 43 42 42 42 42 41 42 42 39 36 33 31 29 28 26 24 24 24 24 23 23
36 35 35 32 28 24 23 24 24 33 37 35 38 38 34 27 43 44 49 44 36 42 44 38 39 41 44 44 44 43 43 43 44 43 43 43 42 40 39 38 34 30 28 28 28 26 26 26 27
40 42 39 31 28 24 23 23 24 36 40 35 37 37 35 33 28 33 42 43 38 46 48 44 41 42 44 44 45 44 44 44 45 45 45 44 44 43 42 42 43 41 37 33 31 30 29 29 28
40 42 35 27 25 27 26 26 26 40 40 39 39 38 37 34 33 30 36 44 42 34 46 54 48 46 44 44 44 44 44 45 46 46 46 45 45 44 44 44 45 46 46 43 39 35 33 32 31
37 36 25 20 22 22 25 21 21 28 37 40 41 39 37 36 36 34 31 36 43 43 44 49 53 48 45 44 45 45 45 46 47 46 46 46 46 45 45 46 46 47 47 48 47 44 40 36 34
30 30 25 19 23 25 26 24 23 21 30 37 41 42 39 39 38 40 37 38 43 44 45 43 46 49 49 47 46 45 45 45 45 46 46 47 47 47 46 46 47 48 49 49 50 49 47 43 39
39 33 25 21 18 22 25 30 23 15 20 39 39 43 42 40 39 38 38 38 37 40 42 45 44 41 43 46 49 50 49 49 49 48 49 49 48 48 48 47 48 50 50 50 50 50 48 46 44
48 41 33 30 24 26 25 22 23 14 14 32 38 45 42 42 41 40 40 38 36 34 36 40 44 44 42 41 40 43 46 48 43 44 48 49 49 50 49 48 50 52 52 50 50 49 48 47 45
54 58 37 34 32 30 26 21 19 19 18 15 23 44 46 43 42 41 40 41 42 40 36 36 38 40 43 39 35 35 42 44 47 45 47 47 49 50 51 53 54 53 50 50 50 50 50 48 47
64 73 83 40 30 31 33 17 26 28 18 20 26 33 47 49 46 44 43 43 42 45 42 38 31 37 41 38 38 42 43 46 46 50 46 49 50 52 53 52 51 51 53 54 54 52 50 48 48
92 87 73 47 48 47 50 43 24 24 21 24 20 21 34 40 43 44 47 47 48 47 46 48 41 37 39 40 44 47 50 50 46 51 48 50 51 53 54 55 54 54 54 55 57 55 52 51 52
95 78 65 64 55 65 63 69 28 30 31 31 24 14 12 12 12 16 26 42 52 57 56 59 61 54 53 50 46 49 53 55 49 48 46 50 52 53 52 53 53 52 51 56 58 56 59 67 63
81 82 77 66 62 67 57 65 35 29 44 36 26 21 21 18 16 17 18 18 31 45 47 49 65 69 61 62 58 47 45 52 54 50 49 55 54 58 60 56 56 54 55 60 59 60 65 72 77
97 98 88 75 74 79 66 60 39 28 31 34 34 26 23 24 23 24 29 30 25 19 18 31 46 72 74 75 73 67 56 58 66 61 57 62 61 58 61 62 59 60 60 57 59 69 74 76 81
100 92 83 83 74 76 71 60 38 28 30 24 17 18 14 12 12 13 15 22 30 32 29 21 25 40 65 77 79 77 77 62 64 54 58 50 57 59 66 71 68 64 64 63 66 70 76 81 78
98 87 85 84 80 76 62 64 29 18 13 15 17 25 21 17 17 17 16 13 12 19 27 33 36 34 33 36 40 51 78 76 67 63 72 76 62 61 64 72 77 71 70 73 75 83 75 83 83
91 85 83 77 70 67 52 57 20 15 15 18 20 19 20 17 15 16 18 17 17 17 17 19 28 35 42 47 48 44 58 78 81 78 77 85 83 77 61 64 77 77 80 87 82 80 74 80 91
91 86 78 73 68 78 59 56 17 23 24 18 18 16 20 20 21 20 21 22 22 23 22 24 25 25 28 35 50 54 54 59 68 77 80 98 92 83 76 71 72 78 90 94 78 75 76 83 92
90 87 71 78 87 78 69 69 21 28 32 26 23 24 26 27 28 29 29 30 30 30 30 30 32 33 32 32 33 56 61 65 63 61 68 80 87 90 86 81 73 73 80 87 82 75 77 85 93
90 82 63 68 88 86 73 68 32 26 29 27 25 27 32 34 34 34 34 34 34 36 39 40 41 41 39 35 33 36 47 64 67 66 68 66 73 87 95 94 80 74 77 82 86 79 75 79 98
86 89 76 78 90 95 58 38 25 28 21 32 36 39 41 39 38 38 38 38 40 39 40 41 42 42 42 39 36 28 29 33 39 50 60 64 69 76 81 86 87 81 73 89 93 84 80 93 96
80 74 81 77 66 75 56 46 23 32 36 42 42 41 44 46 46 44 43 43 46 49 45 50 47 43 48 49 47 44 40 33 26 26 41 51 60 63 75 86 83 82 81 90 93 87 98 100 96
92 89 79 70 68 87 88 38 36 42 43 50 54 56 62 71 67 64 60 57 51 46 50 69 71 67 62 52 52 47 36 27 23 23 28 46 54 62 79 87 86 88 86 87 92 94 100 99 96
98 81 75 68 75 96 91 54 46 52 64 79 85 81 79 97 92 85 72 59 60 68 74 82 77 73 64 60 53 49 33 30 25 30 33 46 57 62 75 87 90 87 71 78 90 100 99 97 100

GFSSGP_700_rhum_054.txt.gz
RH
50 46 45 44 41 38 32 24 28 36 36 34 36 35 32 32 39 43 40 42 39 36 30 33 33 34 34 36 37 37 31 31 31 31 29 25 24 28 30 26 11 8 7 8 11 8 8 7 7
54 51 47 47 43 41 30 22 22 33 35 33 33 32 32 31 30 37 37 41 41 37 32 33 33 33 34 39 38 38 37 35 32 32 32 31 28 23 25 28 27 14 8 8 9 9 9 9 9
54 55 52 53 48 36 27 21 21 25 34 34 34 32 30 28 30 37 41 46 45 35 32 32 33 32 35 40 36 37 39 36 36 34 34 34 33 27 22 21 21 26 24 14 8 8 9 9 10
53 56 58 52 36 26 23 24 24 30 36 35 38 35 31 27 26 30 39 47 44 34 32 32 34 33 35 42 38 36 40 39 39 37 37 37 37 34 28 22 18 16 18 26 25 20 16 12 9
48 54 58 50 33 24 22 24 38 37 38 37 36 34 30 30 30 26 32 36 46 44 37 34 35 35 36 42 41 38 39 40 41 40 41 39 36 36 33 28 22 20 17 16 18 22 25 27 27
37 50 57 54 27 24 23 23 27 35 37 38 36 35 35 34 32 32 44 39 36 44 40 35 36 36 38 43 42 41 40 40 41 41 42 42 40 36 33 30 29 26 23 21 21 21 20 20 20
27 33 48 39 28 26 23 25 24 22 25 38 39 37 37 34 38 38 41 40 37 41 41 38 36 38 38 44 44 42 42 42 42 42 42 43 43 41 39 37 32 28 27 26 25 24 23 24 24
30 30 37 32 30 26 24 26 26 24 30 38 39 40 35 33 30 42 47 47 38 34 42 42 38 38 40 43 44 44 43 44 44 44 44 44 44 43 43 41 42 41 36 31 29 28 27 26 27
41 37 34 30 28 27 28 26 26 25 28 38 37 38 37 34 32 31 37 42 39 37 39 46 40 40 41 43 44 45 44 44 45 46 46 45 45 44 44 43 44 44 46 44 40 36 33 30 29
48 39 36 33 31 29 30 29 25 25 25 37 38 34 36 37 37 35 31 31 40 39 40 48 47 43 43 44 44 45 45 45 46 46 46 46 46 46 45 45 45 46 47 47 48 47 43 40 36
43 38 32 29 29 27 29 29 26 25 30 38 39 35 36 38 38 37 35 35 40 45 43 37 47 54 48 47 46 46 46 46 47 47 47 47 47 47 47 46 47 47 48 48 49 50 49 46 43
40 38 34 26 26 29 30 28 25 23 21 35 39 43 40 40 39 38 38 42 38 40 43 46 44 50 52 49 47 47 46 47 48 48 47 47 48 48 48 48 48 48 49 50 50 51 51 49 46
41 39 34 26 28 30 29 25 23 17 16 21 34 41 45 43 41 40 39 39 38 37 38 36 44 45 44 46 50 49 48 48 49 48 49 49 50 50 49 49 48 49 50 51 52 52 51 50 48
46 42 34 28 28 28 26 21 21 10 11 15 21 42 46 48 47 42 41 40 39 38 37 40 39 38 41 41 44 45 50 52 53 52 50 48 50 52 51 51 50 50 52 53 53 51 51 50 49
59 52 36 29 28 30 27 20 14 11 13 12 14 22 46 49 52 46 44 43 41 40 39 38 38 41 39 41 45 45 47 51 50 49 49 50 50 51 52 51 52 54 54 54 52 52 52 52 50
56 64 52 34 29 28 35 22 27 20 16 11 12 14 21 43 47 47 45 43 42 40 39 39 43 49 44 38 37 45 49 48 45 46 47 53 50 52 52 53 55 56 53 52 54 55 55 54 52
79 70 54 44 36 36 30 32 31 24 17 16 14 12 16 18 30 41 44 46 46 45 44 44 42 47 48 44 38 38 46 50 49 47 47 51 48 52 52 55 56 55 53 56 57 52 55 55 53
88 94 53 41 38 40 41 54 33 29 24 19 17 11 10 12 14 23 35 41 46 51 50 50 47 49 51 50 45 41 48 51 47 45 48 49 48 52 55 56 59 57 56 57 55 57 60 60 60
72 68 63 47 61 64 56 58 30 27 25 22 19 16 15 15 15 16 18 23 28 35 50 56 58 56 60 59 51 44 35 37 48 50 58 53 54 53 59 62 64 61 60 59 61 59 58 65 67
98 90 79 78 77 79 67 60 35 21 26 25 29 27 23 22 23 25 25 26 22 21 24 31 48 58 64 69 70 59 57 53 50 51 64 67 63 56 61 63 68 67 61 63 64 63 65 70 75
99 94 86 82 79 77 70 58 31 24 32 28 27 27 26 19 17 17 23 28 28 26 27 28 26 29 41 42 54 68 75 70 63 51 52 57 69 67 61 66 68 71 69 66 69 69 72 81 86
100 90 94 82 82 79 68 69 32 24 20 19 16 19 25 26 23 19 18 17 16 17 24 29 32 33 31 28 30 48 70 75 76 78 77 73 66 64 66 64 67 74 77 74 72 75 77 88 97
94 86 84 82 77 69 60 57 25 16 19 22 24 25 26 24 22 20 19 19 20 19 20 18 20 30 39 39 38 34 39 54 70 64 60 67 77 71 74 85 70 73 76 79 81 80 84 84 88
90 88 86 79 72 76 59 50 18 30 33 32 29 28 29 28 24 23 23 22 21 21 21 20 22 28 32 36 45 53 54 52 49 44 48 53 68 76 73 80 83 79 76 68 76 87 88 92 88
93 91 74 71 83 73 69 63 22 32 31 31 28 25 21 23 25 25 26 29 31 31 30 29 28 30 37 40 38 39 38 37 52 69 63 53 63 76 75 82 88 90 92 81 78 82 92 94 91
94 87 60 59 80 79 77 70 33 34 34 33 23 23 26 30 33 33 33 32 33 34 35 35 35 36 38 40 40 40 37 38 41 52 64 71 68 65 68 75 83 95 78 84 76 78 84 94 96
86 87 73 68 89 91 57 39 32 31 29 33 42 42 39 37 36 37 38 37 37 37 37 37 37 38 38 38 39 39 39 40 36 34 38 49 61 69 69 66 70 80 87 93 87 82 84 90 98
80 76 75 66 64 64 42 39 23 37 40 48 50 49 49 47 45 43 43 42 42 43 42 40 42 44 43 41 42 42 43 49 48 46 40 32 34 47 57 64 66 69 80 87 83 87 90 92 99
84 83 72 68 64 78 64 32 40 38 56 61 66 65 65 70 73 66 65 61 56 60 57 54 53 49 54 58 53 50 56 54 51 47 38 32 30 29 45 61 64 72 78 85 96 97 92 88 95
95 87 75 60 74 83 89 42 42 53 68 80 81 79 80 78 80 85 79 66 57 58 66 63 46 47 71 77 73 71 64 58 53 45 34 31 26 26 41 59 63 69 73 93 100 100 99 98 93

GFSSGP_700_rhum_057.txt.gz
RH
49 47 46 44 43 40 34 24 22 31 32 35 39 32 31 33 35 36 38 34 41 35 32 33 33 33 34 36 37 38 34 33 31 30 31 30 25 24 26 29 23 10 8 8 19 9 8 7 7
56 52 51 51 47 43 34 24 22 38 38 35 38 38 35 35 36 36 38 39 40 34 31 32 34 34 35 37 39 39 37 33 34 32 34 34 30 25 22 23 27 25 16 9 9 10 10 10 9
59 58 56 58 53 42 31 24 24 31 34 37 36 34 33 32 34 36 33 40 42 33 31 32 33 34 38 38 38 40 39 36 38 35 36 37 35 30 24 20 18 22 25 23 16 9 8 9 10
57 61 61 60 47 33 28 24 22 23 33 37 35 34 31 27 28 35 38 42 44 39 32 31 33 32 39 39 37 40 40 40 40 40 40 36 37 34 30 24 20 17 17 21 25 25 23 18 14
52 61 65 59 47 35 27 32 38 38 38 39 36 35 31 30 31 28 33 46 47 39 32 32 33 34 38 40 38 38 40 41 41 41 42 41 37 34 32 30 26 22 20 19 17 17 18 21 23
51 54 63 60 41 35 28 25 29 38 38 40 37 35 32 34 33 31 38 35 44 45 42 34 34 35 36 42 39 39 40 40 42 42 42 43 42 39 37 32 29 27 26 24 23 22 22 22 22
40 45 48 41 36 32 26 26 24 26 30 31 39 33 34 35 33 35 37 43 40 40 43 38 35 36 36 43 43 41 42 41 43 43 42 44 44 43 41 39 40 37 31 27 26 26 25 25 25
27 38 50 35 32 29 25 26 26 25 25 24 38 37 37 35 33 36 43 42 42 41 42 41 37 37 37 41 44 43 43 43 44 45 43 44 44 44 44 43 42 42 45 44 38 34 30 28 27
29 39 38 28 26 24 24 25 26 25 24 23 32 39 38 35 34 30 32 40 47 40 37 44 42 38 39 39 43 44 44 44 44 45 46 46 45 45 45 44 44 44 44 44 46 47 44 39 35
42 34 27 24 24 24 26 27 28 27 25 24 30 39 39 36 34 32 34 32 41 46 39 45 47 42 41 41 42 44 44 45 45 46 46 47 47 47 46 46 45 46 46 46 46 46 48 48 46
48 42 38 34 32 30 31 32 30 28 26 25 33 39 37 36 36 35 37 38 36 40 46 42 43 52 46 46 45 46 45 46 46 46 47 48 47 47 48 47 47 47 48 48 48 49 50 49 48
48 42 40 39 39 35 34 35 32 27 25 29 38 40 37 35 38 39 41 39 37 34 37 42 41 40 52 56 51 49 47 47 47 47 48 48 48 48 48 48 48 48 48 49 50 50 51 51 50
55 43 40 34 37 32 32 38 37 22 24 24 27 38 40 38 39 40 41 38 38 35 35 38 38 46 47 52 54 51 49 48 49 48 48 48 48 49 50 50 49 49 50 51 51 52 52 51 51
63 52 39 33 32 33 29 33 36 18 19 19 20 24 34 40 42 41 41 41 40 40 39 38 37 38 41 48 51 46 50 52 51 50 50 50 51 52 52 52 51 51 51 52 53 55 53 51 51
67 52 46 29 30 34 29 25 22 19 17 14 14 15 24 38 40 41 42 41 42 41 41 40 38 36 34 32 39 42 44 48 52 54 53 53 52 51 53 53 52 53 52 53 55 57 53 52 53
69 76 49 29 26 30 30 23 25 19 14 11 11 11 13 17 32 36 38 39 41 43 42 42 41 40 36 37 38 41 45 52 51 47 48 49 47 51 53 51 54 55 54 56 57 54 54 57 56
77 71 58 46 38 37 31 29 21 21 19 16 12 10 10 12 14 22 36 44 43 42 43 42 42 41 40 41 43 45 47 48 51 55 48 43 43 48 51 53 56 56 56 56 56 55 58 58 56
92 83 54 40 35 34 34 39 27 25 21 17 15 12 11 12 13 16 21 32 41 48 48 48 44 41 40 42 44 44 41 40 44 45 52 52 50 49 53 52 57 58 56 56 56 58 62 61 58
59 44 44 35 42 50 50 60 31 28 21 18 16 16 15 15 15 15 15 17 21 30 37 44 53 54 51 49 48 46 44 45 43 42 53 60 59 54 56 54 58 59 59 60 61 64 64 64 64
73 64 64 62 64 67 58 56 32 27 19 21 19 18 16 16 17 17 17 15 14 14 17 27 40 48 51 54 58 57 56 54 55 51 46 52 53 64 66 60 57 62 63 63 62 66 69 69 68
97 84 78 78 80 78 71 52 32 31 32 28 26 26 24 22 20 23 24 22 24 23 20 19 21 21 20 24 40 52 58 57 68 64 42 40 49 50 66 71 66 61 62 64 66 68 69 70 73
94 89 86 91 82 71 64 67 31 36 31 29 26 20 24 24 23 22 21 20 19 17 22 28 28 28 29 28 25 25 30 40 49 57 75 80 80 77 66 66 65 74 71 69 71 76 78 78 76
98 95 94 88 76 70 58 59 36 29 30 31 31 28 24 22 23 25 26 25 25 22 20 19 19 20 26 35 39 41 37 37 33 38 62 76 78 78 79 77 70 66 70 72 73 78 84 84 84
97 90 86 82 75 71 58 52 29 35 34 38 37 36 34 33 31 29 28 27 26 25 24 22 21 21 21 24 34 44 52 54 54 55 52 50 50 52 56 63 71 69 71 88 75 75 78 91 92
92 89 80 66 79 70 66 66 31 42 43 41 39 34 30 23 22 24 25 27 29 31 33 32 32 31 26 24 28 35 41 43 46 49 53 58 61 63 61 61 60 56 67 78 89 88 83 84 92
92 89 73 55 65 62 68 66 39 38 39 38 36 31 31 34 32 32 31 31 32 33 34 34 36 36 36 35 33 34 37 39 40 38 36 35 41 59 69 67 66 73 79 80 95 99 91 98 89
93 92 75 59 80 82 50 45 41 38 36 40 48 46 44 43 42 41 39 38 36 36 36 36 37 38 38 38 39 38 38 39 40 40 39 38 42 47 58 70 70 67 66 80 91 96 99 98 94
75 75 71 64 76 55 38 33 30 45 53 64 52 48 50 50 50 52 54 53 52 49 48 48 45 42 44 43 43 45 43 42 42 45 49 46 41 36 38 46 59 64 66 66 72 84 97 100 90
84 80 68 59 58 61 47 28 35 47 58 59 53 57 59 56 58 60 59 55 53 52 50 50 48 51 54 55 53 56 58 50 49 49 51 52 50 47 43 35 44 58 67 70 73 75 85 98 99
92 78 69 58 69 72 75 37 46 47 54 57 59 66 66 68 68 61 54 47 44 47 51 44 48 54 50 44 43 47 64 70 71 69 59 55 54 49 45 34 33 42 55 65 72 83 87 90 99

GFSSGP_700_rhum_060.txt.gz
RH
48 47 44 43 51 44 36 34 20 26 22 22 30 28 35 36 44 39 36 30 39 32 30 30 33 34 34 36 38 38 34 32 31 30 31 30 28 23 24 26 25 17 11 10 9 9 8 7 6
53 52 50 48 48 42 31 34 22 41 34 33 36 30 30 46 42 38 38 34 40 35 33 30 33 34 36 37 39 38 36 33 32 31 32 33 31 26 22 21 22 25 21 17 9 10 10 10 10
60 57 59 62 53 41 32 31 32 37 38 37 39 42 40 40 41 33 36 38 40 35 31 31 33 34 38 38 38 39 40 35 35 35 34 35 34 31 24 20 18 19 22 24 20 11 9 9 9
69 66 62 60 50 46 40 29 23 26 32 37 37 39 33 34 37 37 30 41 44 38 31 31 33 35 39 37 38 39 40 40 37 40 40 34 34 33 30 24 21 18 17 19 23 24 22 20 16
71 78 68 63 52 49 34 34 27 26 32 37 36 38 31 28 29 40 40 44 44 39 32 31 32 33 40 37 37 38 40 40 41 41 42 40 37 34 31 29 26 24 22 20 19 18 20 22 23
70 76 64 59 52 52 42 29 39 39 37 39 37 35 32 32 30 29 36 41 47 46 37 32 32 33 38 40 38 38 40 40 42 41 42 43 42 39 38 36 30 27 26 25 24 24 23 23 23
61 76 58 48 50 57 30 30 29 35 36 35 38 38 37 35 32 31 28 28 39 46 42 34 33 34 34 42 40 39 40 41 42 43 42 43 44 43 42 39 41 41 38 33 29 27 25 25 25
51 84 61 52 52 50 50 27 27 26 31 33 34 39 43 36 33 35 36 34 39 41 44 40 36 34 35 38 42 41 41 42 42 44 43 43 43 44 44 43 43 42 41 44 44 39 34 31 28
32 66 56 62 57 48 39 27 25 25 26 27 28 35 36 37 34 31 36 44 43 39 40 44 39 36 36 37 42 43 42 43 44 44 45 45 44 44 45 44 44 44 44 45 43 45 46 46 42
36 58 49 56 61 48 29 24 24 25 25 25 24 26 37 38 35 32 30 33 44 48 41 36 43 43 38 38 39 42 44 44 45 45 46 46 47 46 46 46 45 45 46 46 46 46 46 46 48
47 57 55 52 32 31 31 28 25 26 26 27 25 23 34 38 37 34 31 32 33 43 48 41 44 48 44 42 40 41 43 44 45 45 46 47 47 47 47 47 47 47 47 47 48 48 49 49 48
57 46 59 46 30 30 32 31 30 30 39 27 25 25 27 38 38 37 35 33 34 32 33 42 42 41 50 50 47 46 46 46 45 46 46 47 48 48 48 48 48 48 48 48 49 49 50 51 51
56 67 52 48 40 38 38 39 36 32 32 27 26 29 35 38 38 36 37 36 33 33 33 32 38 42 41 47 58 58 54 52 50 48 47 47 48 49 48 48 49 49 49 49 50 50 51 52 52
71 83 57 54 45 42 41 42 35 32 31 27 27 28 34 39 39 38 37 36 34 35 32 34 36 38 40 46 48 53 56 56 52 50 49 48 49 49 49 50 50 50 51 51 50 51 52 54 53
86 71 62 50 44 41 41 40 30 29 28 25 24 22 24 30 38 39 40 39 39 38 39 36 36 39 38 37 36 39 47 50 53 55 53 51 51 51 52 53 51 51 52 52 51 52 54 56 54
80 88 76 36 38 38 36 38 43 24 23 20 19 17 17 18 22 27 35 38 40 41 42 42 39 37 37 38 36 35 36 39 46 52 57 58 58 56 54 51 50 53 52 53 52 53 56 57 54
92 62 64 62 34 40 32 47 48 24 20 17 14 12 11 11 12 14 19 29 37 39 40 40 41 39 39 38 39 40 38 43 43 43 48 50 51 54 52 48 52 55 54 54 54 56 59 57 55
74 73 74 61 51 38 33 44 35 26 19 16 15 15 14 12 11 12 13 14 15 21 28 34 41 44 44 42 42 40 39 38 44 43 42 42 48 50 50 50 51 56 58 56 56 58 59 58 59
73 78 66 33 42 36 46 61 33 29 24 17 15 15 17 15 12 12 12 11 11 13 15 18 32 43 48 44 40 42 36 36 37 43 50 47 44 52 53 56 53 57 56 59 59 61 59 59 62
80 67 66 45 40 48 67 47 33 27 21 15 14 14 13 13 13 13 13 12 12 13 15 16 19 25 38 44 42 45 47 44 44 45 50 56 51 55 60 60 60 60 59 58 58 60 61 63 67
85 72 81 73 61 69 66 52 38 31 26 25 23 20 17 16 14 14 16 18 18 17 15 14 14 15 16 20 31 39 45 42 34 36 38 44 51 56 50 54 56 63 69 63 61 64 66 66 68
90 86 81 78 83 63 63 35 47 46 43 38 34 30 26 25 25 24 26 27 23 20 18 19 20 23 26 29 30 27 24 24 27 43 53 60 61 57 64 65 68 63 70 78 73 68 69 73 69
98 99 93 93 89 74 61 55 54 42 37 34 32 30 26 27 30 30 29 26 23 22 22 21 21 22 23 23 26 31 32 34 34 36 38 38 41 59 78 78 78 67 65 66 65 71 74 74 76
92 95 98 86 75 69 60 58 41 44 45 39 40 39 36 34 32 30 29 27 26 25 24 22 20 20 19 19 19 21 27 38 43 45 48 53 51 47 54 64 73 74 71 72 70 68 68 75 86
98 94 84 80 82 59 52 59 42 39 40 44 42 42 38 34 31 29 28 27 26 23 22 23 26 26 27 26 24 24 21 28 39 44 44 48 52 57 61 59 58 64 72 70 73 77 75 77 94
96 92 75 54 43 42 60 55 43 44 45 46 45 40 34 27 29 30 28 27 27 29 30 31 32 33 34 35 35 35 35 31 33 39 42 43 41 39 41 47 55 61 67 75 72 69 72 74 96
91 93 74 52 61 60 45 47 47 46 44 49 44 42 43 43 44 42 40 39 36 35 33 34 36 36 36 36 38 38 39 39 40 41 41 41 41 40 37 40 45 61 70 69 71 66 73 81 86
89 81 74 60 66 47 36 35 34 41 45 54 51 54 55 52 50 51 47 46 44 44 44 44 44 44 45 47 45 44 45 43 43 42 42 42 42 43 42 38 39 52 65 73 73 74 71 79 87
81 80 66 58 53 44 24 23 45 50 62 60 56 54 55 53 52 52 51 48 46 44 40 38 40 45 46 45 47 48 50 55 55 53 48 47 49 55 55 49 43 36 39 60 73 73 74 77 82
86 76 63 63 69 66 69 33 42 58 55 54 58 64 65 59 60 58 56 41 32 29 27 31 28 22 20 19 21 23 25 32 39 45 57 65 66 64 62 56 51 48 45 37 46 63 76 76 79

GFSSGP_700_rhum_063.txt.gz
RH
48 46 43 42 52 42 35 30 30 33 33 35 32 33 29 34 36 44 42 35 34 32 30 28 32 33 35 35 36 35 33 30 29 29 31 30 27 22 22 23 24 23 20 9 9 9 7 6 6
53 51 46 64 49 38 30 31 34 30 38 36 23 19 24 34 44 44 37 31 34 34 30 29 32 35 36 38 36 38 34 31 31 31 32 33 31 26 22 20 20 22 24 17 9 10 10 10 10
59 56 74 60 50 36 30 29 30 37 32 38 40 38 41 52 41 40 38 36 34 36 30 30 32 34 37 38 37 37 36 33 36 36 32 33 33 30 26 21 18 17 18 22 18 12 9 9 9
71 67 69 62 48 42 33 32 31 36 37 36 40 42 45 44 43 37 35 38 42 39 30 31 32 35 38 39 38 38 39 38 36 39 37 33 33 32 30 27 23 20 18 18 21 24 24 21 18
81 87 71 61 52 42 38 36 37 35 40 40 39 39 52 37 42 42 32 39 42 38 31 30 32 35 38 37 38 38 40 40 40 39 42 38 35 35 32 28 27 25 23 21 19 18 17 17 19
86 81 66 57 50 45 40 43 42 41 38 38 37 38 50 29 30 40 43 45 46 42 35 31 31 33 39 37 37 38 40 40 41 41 38 43 42 36 36 38 36 31 27 25 24 23 22 22 22
89 80 66 51 44 45 42 44 41 40 39 36 36 38 50 31 29 28 35 39 46 47 41 34 31 32 35 40 38 38 39 40 40 42 42 37 44 43 42 39 38 40 42 40 35 29 26 25 24
64 81 66 55 45 42 43 48 40 43 39 37 35 38 48 38 30 29 28 26 33 44 45 36 33 32 33 38 40 39 39 41 42 42 43 41 40 43 44 44 43 42 41 39 42 45 44 39 34
49 79 61 55 49 41 42 48 47 40 38 35 37 43 47 43 33 30 29 27 28 40 43 45 39 34 34 34 39 41 40 42 43 43 44 45 42 43 43 44 44 44 44 44 45 43 41 43 46
40 72 60 56 51 50 45 49 43 31 25 34 35 32 37 40 34 33 31 32 34 34 34 37 42 43 37 36 36 40 43 42 43 44 44 45 46 44 44 45 45 45 45 46 46 46 46 47 45
48 54 56 46 49 56 52 50 39 38 33 33 36 42 30 36 38 35 31 31 36 45 47 41 36 39 45 40 38 38 41 43 43 44 45 46 46 46 46 46 46 46 46 46 47 48 48 49 50
71 51 53 55 51 56 52 48 45 44 38 40 45 33 25 27 37 37 35 32 30 30 43 45 42 39 46 47 44 41 40 42 43 44 45 46 46 47 47 47 46 46 47 48 48 48 48 49 50
69 72 68 76 60 48 55 50 54 50 50 40 29 25 24 22 27 38 38 37 35 30 27 31 38 36 40 44 51 49 48 47 49 49 46 46 46 47 48 48 48 47 46 48 49 49 49 50 51
94 83 86 80 65 51 46 55 55 47 56 32 30 27 25 23 23 34 38 38 37 36 34 34 33 35 40 42 42 44 55 58 57 53 51 49 48 47 48 48 48 49 48 48 49 50 50 50 51
99 86 91 83 75 63 54 61 42 52 40 34 31 27 26 23 29 34 38 37 36 39 40 36 35 33 32 34 40 44 47 50 53 53 53 53 51 50 50 50 50 49 50 50 49 51 51 51 52
98 87 83 82 63 66 65 52 49 36 37 33 30 26 26 24 25 32 38 39 39 37 36 37 35 36 34 31 37 40 39 37 36 37 46 50 56 56 54 53 54 53 52 51 51 52 52 53 53
88 69 65 60 57 58 48 49 47 45 31 26 32 24 21 19 19 21 25 34 37 39 40 40 42 41 38 33 33 36 40 37 36 36 34 42 49 54 57 58 59 58 54 49 50 52 52 54 54
68 64 49 48 68 63 66 61 52 54 31 23 35 28 16 14 14 14 15 16 18 22 29 33 37 40 43 44 39 35 39 38 42 42 37 44 45 46 52 56 56 54 51 52 48 54 54 56 57
48 58 46 47 57 67 60 60 54 56 32 19 17 21 24 14 15 11 10 10 10 9 11 15 22 28 38 46 47 33 39 43 43 42 41 42 46 50 50 50 56 58 58 56 54 56 60 58 61
63 57 58 59 64 62 55 61 63 63 31 24 23 20 27 21 11 11 11 10 10 10 10 11 11 14 18 27 36 38 25 29 35 40 41 43 42 50 52 52 52 60 67 69 65 60 60 61 64
62 58 56 61 69 63 65 62 55 50 25 17 15 15 15 15 13 11 11 11 11 12 12 12 13 13 14 15 19 30 22 20 21 22 28 33 42 46 50 54 57 56 65 68 71 73 68 66 67
65 61 56 82 72 48 60 24 54 53 28 27 23 22 20 18 17 14 14 15 16 16 18 18 18 18 18 19 19 21 25 26 24 26 28 31 35 40 56 59 61 65 72 74 65 71 79 79 70
91 76 85 84 79 72 64 51 50 43 45 44 39 33 31 28 28 28 28 28 28 27 24 20 18 17 17 18 22 27 31 32 30 30 33 34 32 34 43 66 75 74 73 72 71 74 73 72 83
85 96 94 88 81 74 55 50 47 49 55 54 41 39 34 31 30 32 31 30 28 26 25 22 21 20 19 18 18 18 18 18 20 24 34 41 46 46 42 40 41 58 77 79 81 77 76 77 77
96 93 94 95 90 63 57 56 39 43 52 54 62 42 38 37 35 32 31 29 28 27 25 23 21 20 19 20 20 22 25 26 25 24 29 44 51 56 55 55 56 51 50 60 70 77 78 78 81
99 98 81 68 54 48 64 50 39 45 50 65 43 43 41 38 33 27 23 24 23 23 22 23 25 28 30 31 32 32 32 34 35 36 34 34 35 37 38 36 38 42 51 62 67 68 69 66 68
99 97 80 61 44 44 41 45 50 46 49 52 48 45 40 34 31 34 37 38 38 37 37 36 36 35 34 34 34 35 36 37 38 38 39 40 40 41 42 41 40 38 37 39 54 68 74 74 75
94 89 76 63 69 41 36 31 32 44 46 50 50 43 41 43 44 45 43 41 41 41 40 40 41 41 42 43 44 44 47 48 45 44 43 42 43 43 44 45 44 44 42 42 47 57 71 82 82
80 81 68 68 54 45 22 23 36 42 45 61 53 57 56 50 48 47 46 46 45 43 39 36 35 29 31 40 46 47 45 46 47 50 52 53 49 47 47 48 49 48 51 50 43 41 52 70 78
89 79 71 60 54 56 62 39 49 62 62 58 55 56 56 57 57 55 53 52 50 38 27 22 24 23 18 15 14 14 17 18 19 21 27 36 37 44 51 60 62 60 59 58 54 52 44 40 54

GFSSGP_700_rhum_066.txt.gz
RH
50 46 44 41 54 50 44 36 29 30 30 29 28 27 28 28 32 42 48 41 34 31 28 29 31 34 35 35 31 34 31 29 29 29 30 30 28 23 21 21 22 24 15 9 9 8 6 6 7
60 52 47 50 58 48 38 34 32 30 35 33 28 20 27 46 38 51 41 38 36 34 29 28 33 36 38 37 35 31 28 29 30 29 30 32 31 28 23 20 19 19 22 18 10 9 10 10 10
70 61 60 64 64 50 36 29 31 30 34 32 37 23 26 56 48 40 40 34 32 35 29 30 33 36 38 37 36 34 36 30 30 32 29 32 32 31 28 24 20 18 16 18 22 22 16 10 9
88 72 58 75 54 47 36 31 30 31 34 33 40 39 45 63 46 38 40 39 33 35 30 30 33 35 37 38 37 37 38 35 35 33 33 32 33 31 30 28 25 22 20 18 16 17 22 25 25
96 91 74 69 63 48 35 36 33 32 37 38 35 44 44 41 44 42 36 38 36 40 31 30 32 35 37 38 37 38 39 38 38 38 36 35 32 35 34 30 27 26 24 22 21 19 18 17 17
98 94 89 74 63 53 44 37 37 33 37 38 38 46 52 41 42 42 36 44 41 42 32 30 31 34 38 38 38 38 40 41 39 38 37 36 40 36 33 36 39 38 35 30 25 24 23 22 22
98 99 94 73 58 52 47 41 39 34 38 36 36 38 49 38 33 39 42 43 47 44 38 31 30 32 36 38 37 38 40 41 41 41 39 39 34 41 40 37 35 35 37 41 43 41 37 31 27
89 98 96 81 64 51 45 42 42 39 38 37 36 44 72 45 30 29 33 38 43 47 45 36 33 31 32 38 39 37 39 41 42 42 42 43 40 37 42 44 44 43 41 41 39 38 40 44 45
80 99 90 84 66 52 42 42 44 42 40 38 37 39 63 52 32 30 28 28 30 36 44 45 36 33 32 32 38 40 40 40 42 42 43 44 44 41 39 41 44 45 45 45 46 45 45 45 42
85 96 86 80 64 54 47 51 47 43 41 38 37 36 45 54 38 32 30 28 27 27 34 41 43 43 36 33 34 37 42 41 41 43 44 44 45 45 42 42 41 43 46 45 46 46 47 47 48
71 77 46 66 59 55 51 49 47 46 41 34 37 34 39 43 40 34 32 32 31 28 29 34 33 36 42 42 36 36 38 42 43 43 44 45 45 46 46 44 44 43 42 46 47 47 48 48 49
72 55 57 59 60 58 52 51 47 40 39 36 33 37 32 33 39 36 34 31 32 35 33 35 34 37 34 37 45 42 38 39 40 43 44 45 45 46 47 47 46 44 44 42 42 48 49 49 49
66 75 53 57 53 49 50 52 48 45 48 44 40 40 34 33 30 38 38 36 33 29 29 31 40 36 38 35 43 48 46 43 41 41 41 44 45 45 46 47 47 47 46 45 44 43 44 49 50
86 76 70 68 64 53 52 51 48 50 51 48 42 38 36 28 24 23 37 39 38 39 35 32 30 29 31 37 38 42 45 50 53 52 51 48 49 49 48 47 47 48 48 48 47 46 45 40 49
97 82 84 74 67 58 51 50 35 51 54 56 39 36 30 27 25 23 22 32 40 42 41 37 36 37 34 32 32 32 42 46 45 49 53 56 55 54 51 50 49 49 50 50 50 50 48 45 44
99 80 96 82 78 69 59 44 38 39 54 45 43 37 30 29 26 24 25 28 36 44 46 42 36 36 34 34 33 32 33 37 41 42 40 41 42 47 52 54 55 54 52 54 55 55 55 51 48
95 88 85 82 78 79 56 58 50 50 43 41 42 35 32 27 24 21 21 30 37 38 39 39 39 36 35 36 32 35 34 35 39 40 38 35 34 33 37 46 53 61 61 58 58 61 59 57 55
81 80 68 70 71 66 47 47 50 49 46 43 34 32 33 25 22 19 19 22 26 34 39 41 43 43 41 34 34 33 39 39 37 36 38 40 42 41 39 45 47 51 54 58 57 56 59 59 58
66 72 61 59 61 60 42 54 44 56 51 39 32 25 30 21 19 18 16 15 17 19 20 23 27 30 32 45 54 37 32 42 46 49 50 47 43 42 44 42 48 53 52 52 54 63 62 59 58
93 83 55 52 58 62 60 47 52 49 49 33 27 21 22 28 34 20 13 12 12 12 12 11 11 12 15 18 29 47 32 25 28 34 44 50 42 37 46 46 43 50 55 58 57 59 65 69 66
79 63 53 56 69 70 60 56 53 57 54 44 21 15 15 16 15 13 11 10 10 10 10 10 10 11 12 12 12 13 17 13 13 13 16 20 30 42 44 47 46 47 57 60 63 64 63 71 74
78 59 60 60 68 62 51 40 34 32 39 26 20 19 18 16 16 13 12 11 11 11 11 12 12 13 14 14 14 16 18 22 19 18 20 24 24 25 41 55 59 56 59 63 72 83 76 75 73
70 57 57 69 57 68 64 56 37 47 48 40 27 21 17 18 17 16 15 14 15 16 17 18 19 20 20 19 18 17 18 22 32 33 30 29 28 28 30 31 39 51 60 70 72 74 73 74 74
77 75 80 82 82 84 65 49 53 50 42 38 46 38 33 30 28 28 28 27 28 28 27 26 24 22 19 18 17 17 18 18 20 21 20 19 22 31 41 40 46 47 49 53 56 62 71 80 84
99 82 91 91 94 87 53 58 42 43 44 44 41 46 46 39 36 32 30 30 29 27 26 24 22 20 18 17 16 15 16 18 20 23 25 25 25 25 30 37 45 49 53 56 58 62 63 64 71
98 70 81 76 88 73 57 56 45 44 45 51 58 50 40 40 37 35 33 30 27 23 20 18 17 16 16 19 22 24 25 27 29 31 32 32 33 34 34 34 34 36 39 39 44 47 55 69 74
93 99 88 63 40 59 53 48 51 43 50 53 48 45 41 41 38 34 29 26 31 33 34 33 33 33 33 35 36 37 38 40 40 39 39 39 39 39 40 41 41 42 42 42 42 42 41 42 46
97 96 85 53 74 62 44 41 37 43 47 46 51 47 42 40 36 33 33 33 32 32 33 35 37 37 38 39 40 41 43 44 45 46 47 48 48 46 45 44 45 46 46 46 46 46 44 44 46
98 98 87 72 58 80 48 37 36 33 36 42 49 44 43 41 40 38 36 35 34 38 40 41 38 33 32 33 29 30 38 45 47 44 42 42 41 45 47 48 51 51 54 55 54 56 54 53 55
91 85 93 65 61 50 54 49 46 42 42 58 49 51 53 51 47 45 44 45 45 46 46 41 27 24 26 26 19 15 14 14 14 15 16 17 20 21 22 25 27 33 40 47 59 64 67 62 64

GFSSGP_700_rhum_069.txt.gz
RH
47 52 47 45 43 44 37 34 33 29 28 24 22 23 24 30 29 35 43 40 34 31 29 31 31 34 37 36 28 28 28 28 28 29 29 29 27 24 21 20 21 23 13 9 8 8 6 6 8
60 59 52 50 58 59 38 31 37 30 28 26 22 23 28 30 36 43 45 40 36 33 29 30 33 36 37 37 35 28 25 25 26 26 29 30 30 28 24 21 18 19 22 20 12 9 9 10 9
74 66 62 55 54 54 34 34 35 32 30 27 25 21 32 42 35 44 42 41 37 34 28 30 34 37 38 37 37 37 32 27 25 26 27 28 30 30 29 26 22 19 17 16 20 22 18 12 10
82 82 69 64 63 35 36 37 35 30 30 31 31 25 37 42 42 42 43 34 36 35 28 30 34 38 38 37 37 38 37 33 29 26 27 29 30 30 29 28 26 25 22 20 18 16 17 21 24
74 88 86 69 50 32 41 41 34 32 29 27 41 42 44 50 44 42 39 39 32 36 28 30 34 37 39 38 38 38 38 38 34 30 26 28 29 32 35 33 30 28 26 24 23 22 21 20 19
91 84 92 72 53 43 53 44 35 33 35 25 41 47 44 45 40 46 41 36 35 39 30 30 33 35 38 39 38 39 39 40 39 36 34 30 29 32 31 30 34 36 38 39 37 32 27 24 23
90 95 91 66 53 47 50 47 37 33 38 32 38 58 55 48 45 51 44 37 36 44 35 30 31 33 36 38 38 38 40 41 42 41 40 38 36 32 30 31 34 34 34 34 36 40 43 43 42
96 95 92 91 67 59 49 53 46 37 37 36 36 44 52 50 34 42 43 39 45 45 39 32 30 31 33 37 38 38 39 41 42 42 42 42 42 40 37 35 37 42 42 42 41 40 39 40 40
89 100 99 88 78 55 58 67 48 42 35 39 38 37 52 48 34 35 40 37 39 46 46 38 33 31 31 33 38 39 38 39 42 43 43 44 44 43 42 42 39 37 43 45 44 44 46 46 47
60 64 57 67 71 74 83 70 45 43 34 41 39 38 57 56 44 32 32 32 37 36 38 46 43 36 33 32 32 35 40 40 40 42 44 44 45 45 44 43 43 42 42 40 43 46 46 47 48
69 50 44 55 80 92 92 72 64 51 42 39 39 37 40 62 41 41 35 32 33 29 25 25 36 44 44 42 36 34 35 38 42 42 43 44 45 46 47 47 46 45 44 44 43 41 42 46 48
63 65 55 60 90 94 78 72 64 48 46 41 39 36 34 47 46 41 40 36 37 31 29 25 23 22 25 32 38 44 40 37 38 40 43 44 44 45 46 47 47 48 48 46 45 44 44 43 42
82 81 63 57 68 66 83 60 51 47 43 41 39 35 32 32 38 40 37 35 35 33 32 30 26 27 22 26 33 33 42 47 43 41 41 41 42 44 45 46 47 47 48 49 49 47 46 46 46
82 76 70 78 63 61 59 54 53 47 45 45 52 48 40 34 32 34 38 38 36 36 34 31 31 31 30 29 30 33 31 38 47 47 49 49 48 48 50 50 49 48 48 49 50 50 50 49 48
96 76 80 79 67 59 56 52 47 48 43 46 50 48 44 41 34 28 28 36 39 40 42 40 39 37 34 35 32 30 30 28 32 39 40 44 48 50 53 54 53 52 51 51 50 50 51 51 51
96 86 86 76 73 59 54 46 45 47 46 45 38 46 46 42 36 28 24 23 25 36 40 40 40 40 39 38 35 33 29 28 30 35 39 44 42 40 38 36 37 44 50 54 58 59 59 57 56
96 91 80 75 73 69 53 42 39 35 42 36 44 37 37 36 32 29 27 26 28 26 26 26 33 38 42 48 43 39 36 33 33 32 34 37 39 40 39 37 35 34 39 48 57 60 62 63 61
98 87 76 63 73 76 59 50 50 44 41 35 39 40 37 37 33 32 28 25 23 23 28 39 36 30 34 37 40 40 44 37 38 40 40 41 42 39 40 41 42 41 41 47 52 53 54 57 62
72 78 74 63 63 66 60 53 55 51 44 40 40 38 35 34 39 32 28 23 21 21 22 28 40 44 38 33 29 28 30 42 48 50 50 49 52 52 49 45 42 40 45 48 51 54 55 57 58
84 79 70 64 66 66 59 55 46 54 50 39 37 37 34 30 27 24 22 22 21 18 17 18 19 22 25 27 30 22 14 14 23 34 42 55 57 52 51 49 43 41 47 52 54 55 61 61 65
90 81 73 67 62 67 70 69 61 45 48 47 36 30 29 27 23 20 17 14 14 14 16 15 14 13 12 12 11 12 13 12 12 13 14 16 23 37 49 44 42 42 48 52 61 61 63 79 73
92 70 70 62 71 78 68 61 40 38 34 34 31 22 23 23 20 17 15 15 14 13 12 12 12 12 13 13 13 13 14 14 13 13 15 17 19 19 22 29 30 28 36 47 49 56 57 61 61
79 73 79 64 66 65 59 61 44 37 36 27 22 20 21 19 18 17 16 14 12 12 12 12 12 13 14 15 16 17 18 18 19 19 18 18 22 24 27 32 38 42 46 50 52 55 56 61 73
87 79 74 72 74 81 63 62 36 22 26 24 30 32 23 18 18 18 18 17 16 16 16 16 18 21 22 23 21 19 18 18 17 17 18 18 17 16 14 14 17 31 41 45 48 52 54 56 59
84 99 96 90 92 90 58 68 45 43 32 34 39 38 31 24 23 28 28 25 25 26 27 27 26 24 23 21 19 18 17 16 16 17 19 21 22 23 24 26 26 24 33 50 46 48 54 62 64
98 91 69 87 97 83 59 69 58 34 48 45 43 42 39 34 33 33 33 32 29 29 27 25 23 20 18 16 15 14 14 15 17 20 23 26 30 32 33 34 35 36 37 37 37 37 39 40 43
98 98 76 69 60 69 56 57 53 44 47 43 40 40 42 38 35 34 34 33 32 28 24 23 22 21 22 22 22 24 24 26 28 31 36 40 42 42 42 42 42 42 43 43 43 44 44 44 44
97 96 88 80 76 72 63 50 44 47 45 47 47 45 44 38 36 36 36 33 30 28 27 26 25 24 24 26 30 32 34 35 37 38 41 43 43 44 47 48 48 45 45 46 46 47 48 50 50
99 99 93 77 69 81 59 43 42 42 37 41 49 54 48 42 40 40 38 36 33 30 28 25 25 30 34 35 32 28 27 24 24 30 38 42 37 25 18 17 18 20 21 24 27 32 38 41 46
98 96 88 73 65 53 58 49 35 36 42 49 52 50 45 46 47 44 42 39 37 35 34 37 39 40 38 26 22 22 20 14 13 13 13 12 12 15 21 19 17 19 25 34 39 48 54 58 58

GFSSGP_700_rhum_072.txt.gz
RH
51 47 45 44 42 42 34 33 34 30 28 23 22 22 21 31 43 45 43 35 35 32 37 35 32 36 36 34 24 22 24 25 25 27 29 28 26 23 20 19 21 19 14 9 9 8 6 7 9
62 58 47 48 49 49 32 38 33 30 27 24 22 22 23 30 32 33 42 37 34 34 33 34 35 37 37 37 36 29 22 23 24 25 28 28 29 27 24 20 18 19 21 20 14 11 10 10 10
58 77 54 55 52 46 34 36 35 31 30 26 25 25 25 27 32 36 43 37 38 34 28 32 36 38 37 37 38 38 35 22 21 23 24 26 28 28 28 26 23 20 17 16 19 21 22 18 14
65 72 67 61 53 38 37 36 38 33 32 31 26 24 25 27 33 43 44 41 35 33 29 31 35 38 38 37 38 38 38 36 27 23 24 25 28 29 28 28 27 26 24 21 20 18 16 16 16
71 67 81 71 49 36 41 44 39 36 32 31 28 25 23 30 30 35 43 38 39 34 29 31 35 38 39 38 38 38 39 39 38 32 27 23 24 25 27 30 33 34 32 28 26 24 23 22 21
76 70 86 80 46 40 39 46 40 34 30 29 29 28 35 42 30 35 37 41 36 37 28 31 34 37 39 39 38 38 39 39 40 40 37 33 29 25 22 23 27 28 31 33 35 37 39 39 36
77 76 74 72 48 44 47 54 38 35 31 35 40 45 44 45 34 30 40 38 40 37 29 30 34 36 38 40 39 39 40 40 41 42 41 40 37 36 34 29 28 32 34 33 32 32 32 34 36
99 88 72 76 70 44 56 57 52 38 35 34 39 59 44 48 40 33 42 39 39 44 37 29 32 34 36 38 39 39 39 41 42 42 43 43 42 42 42 43 40 36 33 34 38 39 41 42 41
98 100 94 75 77 67 70 66 49 40 37 37 37 38 48 46 40 42 45 38 46 46 42 31 30 31 32 37 38 38 38 40 42 43 44 44 44 44 43 44 44 44 44 40 38 41 45 46 47
97 100 98 82 64 86 80 74 50 47 40 37 38 38 44 55 44 39 44 41 43 48 47 41 36 32 31 31 34 37 38 38 40 42 44 44 45 46 45 44 44 44 44 44 44 43 41 42 46
76 90 91 86 93 89 91 74 65 58 48 39 36 38 47 61 57 46 44 39 38 37 38 42 45 43 38 34 32 32 33 37 40 41 41 43 44 46 46 48 48 47 47 46 45 45 45 44 44
96 78 71 83 99 98 94 92 72 65 49 41 40 39 38 63 62 55 50 46 40 34 31 30 29 32 38 42 43 44 40 36 36 38 41 43 44 45 46 47 47 48 49 49 49 48 48 47 46
88 83 70 77 82 77 95 99 99 71 49 51 42 39 37 37 49 56 54 52 44 36 32 29 28 26 26 25 30 32 34 40 44 43 40 40 41 44 45 46 46 47 48 48 49 50 50 50 50
87 83 82 79 70 81 83 89 100 79 58 46 41 40 36 33 36 38 44 43 41 38 33 31 30 29 29 30 26 25 27 34 35 45 50 50 50 51 51 51 52 53 53 52 50 50 50 51 51
83 84 84 68 65 73 73 95 81 85 57 49 48 47 38 34 33 35 36 41 39 41 39 36 36 32 32 34 33 33 29 28 28 29 33 40 41 42 44 50 54 54 54 56 58 58 57 57 56
80 84 97 76 65 72 65 67 72 73 58 45 44 49 52 50 42 35 34 32 39 42 41 41 40 38 38 38 37 37 36 31 29 28 31 37 40 38 38 38 37 35 33 32 32 42 52 57 61
89 75 79 81 71 69 54 48 56 55 52 50 45 43 48 48 47 42 38 33 26 25 30 38 41 42 42 42 42 41 42 39 38 36 34 35 35 37 39 38 35 37 38 38 38 35 37 44 51
92 93 78 81 71 70 60 48 47 48 49 49 41 45 37 43 44 44 41 32 27 25 24 24 24 28 39 44 45 43 41 40 41 40 38 42 41 42 42 41 44 49 47 46 43 42 44 49 53
86 79 69 77 77 70 66 56 48 44 42 38 37 40 36 38 33 32 31 29 29 28 26 24 23 23 27 32 36 41 42 44 45 39 40 42 46 49 48 46 54 54 53 50 48 47 50 52 51
71 78 73 69 71 72 72 54 47 54 48 45 42 38 34 34 34 33 31 30 29 26 25 23 23 25 26 26 27 28 30 32 37 38 35 34 36 39 40 45 48 49 51 55 56 55 53 59 60
90 80 72 72 70 69 69 69 58 43 52 58 50 50 42 37 35 32 31 31 29 27 25 23 21 19 20 20 20 18 17 15 13 12 13 16 20 23 27 31 33 28 26 26 33 36 53 60 65
89 86 80 74 72 71 73 74 52 42 41 50 48 46 47 43 32 31 30 26 24 21 17 16 17 16 14 14 14 13 12 10 10 11 11 12 14 16 19 21 23 23 22 24 28 30 38 51 59
81 86 80 80 70 74 74 75 57 42 36 32 34 36 45 44 34 29 28 24 21 18 17 16 14 13 12 12 12 12 14 15 14 14 14 16 18 19 22 25 40 45 41 41 38 43 59 71 64
85 87 80 79 80 83 69 66 55 44 28 27 24 29 36 34 29 26 24 20 17 17 16 14 14 15 16 16 16 17 17 18 19 18 18 17 16 15 15 17 18 19 20 22 25 32 46 49 50
85 77 96 97 98 92 64 65 54 35 26 23 25 27 33 36 37 40 33 23 19 18 19 20 20 23 26 26 25 24 22 21 20 19 18 17 16 15 14 17 22 26 27 30 31 30 32 43 44
88 79 83 89 96 81 65 69 54 38 29 40 34 35 40 40 38 37 29 23 25 27 27 26 26 27 27 25 24 23 22 21 19 17 16 18 22 25 27 29 31 33 35 36 37 37 38 39 41
96 98 90 69 70 79 57 50 44 38 31 30 40 47 48 48 40 37 38 34 32 31 29 28 26 24 22 19 19 20 21 22 23 24 25 27 29 33 38 42 44 45 44 42 41 39 38 38 37
100 94 98 82 83 79 62 60 45 35 31 34 32 38 40 44 43 41 39 38 35 33 30 28 25 24 25 24 23 22 23 24 27 28 30 33 36 38 41 43 43 41 35 29 23 23 20 21 25
100 99 98 80 64 83 68 51 46 40 36 33 38 41 43 45 42 40 40 38 36 34 32 30 27 26 24 23 25 30 33 33 30 27 25 23 25 32 32 24 14 11 15 17 17 19 26 35 41
100 100 89 72 84 66 65 48 36 39 44 42 46 50 52 54 49 45 43 40 39 37 34 31 29 27 27 33 38 38 30 23 23 19 13 12 12 11 10 13 20 22 20 21 24 31 38 42 43

GFSSGP_700_rhum_075.txt.gz
RH
43 45 46 44 38 38 26 24 20 16 14 20 25 23 26 41 45 43 42 36 39 37 38 39 37 36 35 31 21 19 22 24 25 26 28 27 25 22 20 20 21 19 14 10 9 8 8 8 8
62 50 48 44 44 44 29 26 32 31 23 24 25 23 23 39 46 43 44 38 36 36 38 39 38 38 38 38 36 27 19 20 23 26 28 28 27 26 24 20 18 18 20 21 19 16 13 11 10
75 66 49 51 48 46 33 34 37 34 32 28 24 23 23 35 43 41 40 38 37 35 36 39 38 38 38 38 38 37 35 21 19 21 21 23 25 26 27 26 24 22 20 18 16 16 17 19 21
80 76 57 59 48 39 41 34 38 35 33 31 30 25 23 31 38 43 39 34 37 35 32 36 38 38 38 38 38 38 38 37 30 21 19 22 24 26 28 28 28 27 26 25 23 22 21 20 19
81 71 59 62 47 37 41 44 42 37 36 33 30 27 23 25 35 44 44 36 33 33 32 32 37 38 38 38 38 38 39 39 39 37 31 27 23 22 23 24 28 33 33 34 34 34 34 34 31
78 78 66 58 46 36 39 48 50 39 37 35 32 29 26 23 26 41 44 42 39 30 31 30 35 38 39 38 39 39 39 40 40 41 40 38 34 35 31 27 26 26 27 28 27 29 30 33 36
81 75 68 57 43 39 39 46 48 39 36 34 32 30 25 22 24 30 41 42 38 37 28 30 34 37 39 39 39 40 40 41 41 41 42 43 42 39 37 40 42 41 32 27 28 34 35 35 35
97 80 71 68 50 44 42 49 55 43 42 38 34 42 27 23 24 29 33 38 41 38 32 30 33 36 38 40 40 40 41 42 42 42 43 44 44 44 45 44 45 45 46 46 44 34 34 38 39
96 87 79 73 63 47 45 50 66 47 45 42 38 40 44 37 31 28 26 29 39 41 38 30 32 35 36 39 40 41 41 42 43 43 44 45 45 45 45 44 45 44 44 44 45 46 46 42 39
100 97 79 80 71 53 54 60 66 47 42 41 44 40 46 46 43 40 30 36 41 43 44 39 29 32 35 37 38 39 41 42 42 42 44 44 45 46 46 46 45 45 45 45 45 45 45 45 45
90 95 85 88 84 65 56 68 68 59 43 44 52 37 40 49 43 40 46 48 54 50 47 40 33 32 31 31 33 36 37 38 39 40 41 42 44 45 46 47 48 49 49 49 48 48 47 47 47
76 92 91 100 96 83 74 73 69 65 46 53 58 54 42 48 53 45 48 44 43 43 42 44 45 44 40 38 36 34 34 34 35 38 39 42 43 44 45 46 47 48 48 49 50 50 50 51 50
90 88 96 100 97 96 88 85 98 64 50 47 51 60 49 49 64 63 58 55 42 38 35 33 31 32 34 34 35 36 38 42 44 42 40 40 41 42 43 45 46 47 48 49 49 50 50 50 51
100 98 92 84 97 94 98 100 99 71 57 48 48 42 41 42 55 60 60 58 46 42 38 35 34 33 30 30 30 27 27 29 33 35 41 48 49 49 51 52 55 56 57 57 56 56 56 55 54
98 91 92 83 94 96 98 99 97 79 79 82 68 55 40 37 38 42 42 48 47 46 40 35 33 31 30 31 32 32 32 31 27 30 32 34 37 45 48 48 47 48 49 47 45 44 47 53 60
94 99 99 95 90 97 99 76 76 90 78 89 83 69 43 39 34 36 37 38 46 42 40 39 36 35 34 34 34 36 35 36 34 31 32 30 31 34 38 41 41 40 38 37 36 37 37 37 39
92 91 90 79 67 68 96 84 87 96 84 72 70 60 47 38 38 37 37 38 36 38 41 41 40 37 38 39 38 38 40 40 39 37 36 37 35 34 32 34 36 39 39 40 42 45 47 44 42
96 98 87 81 64 60 79 77 78 86 85 73 63 58 56 46 43 44 42 38 36 35 30 29 30 29 30 31 33 35 34 37 38 40 41 42 40 38 40 40 41 42 44 45 49 50 50 48 46
86 80 80 90 82 77 89 79 81 80 81 70 58 56 50 46 44 48 47 44 40 35 30 26 27 31 34 34 29 29 33 41 42 42 41 42 41 41 43 45 49 46 44 52 54 59 57 57 55
76 67 81 82 84 80 79 73 66 72 61 54 48 46 49 48 40 38 38 38 36 34 31 29 28 27 26 24 23 25 29 34 38 40 43 41 37 36 35 39 42 48 54 46 42 39 38 36 40
84 83 80 78 78 84 82 77 62 40 51 48 47 40 37 40 38 31 36 36 36 34 32 32 31 28 24 22 22 22 20 20 21 22 23 21 17 15 15 18 30 33 25 23 24 25 24 24 31
84 71 80 80 80 77 72 79 49 38 38 44 45 44 41 41 39 37 36 37 36 36 36 32 29 26 25 23 21 19 18 16 16 14 14 14 15 16 17 18 19 20 22 23 26 28 28 33 38
90 93 88 84 79 78 77 75 60 50 38 28 37 45 48 49 48 46 44 35 34 34 31 27 23 19 17 16 15 14 14 14 13 13 13 14 16 19 24 26 25 25 28 30 41 49 37 36 32
85 94 92 91 84 88 75 75 66 46 34 32 28 33 50 51 50 46 43 41 36 34 32 27 22 17 16 13 13 13 14 14 14 15 15 18 19 20 19 17 18 19 20 22 23 24 24 28 42
88 87 98 98 98 93 68 70 63 41 41 37 30 30 33 40 45 46 43 40 36 32 29 22 18 15 14 14 16 17 18 21 22 22 23 22 21 19 17 16 16 17 21 25 29 32 35 36 37
90 91 84 89 96 83 67 70 55 41 39 38 34 27 28 30 32 36 38 38 38 34 26 20 20 22 24 25 25 25 26 25 25 24 23 21 20 18 16 17 20 24 28 31 35 37 40 41 41
96 94 89 82 75 84 66 59 48 45 36 34 26 32 31 28 36 36 40 45 45 37 30 30 30 29 28 27 26 25 24 22 20 19 20 20 22 25 28 31 34 36 40 43 45 46 44 42 40
90 89 98 99 95 87 65 59 42 34 35 32 34 26 29 38 42 47 48 45 40 39 37 35 33 30 28 26 24 25 26 26 25 24 24 26 31 34 37 39 41 43 43 43 42 36 26 20 19
100 100 92 95 81 80 74 50 38 36 41 38 35 31 33 41 46 47 44 44 40 39 37 35 33 31 28 26 25 24 22 22 24 29 31 31 26 23 23 24 29 30 23 14 15 19 18 18 23
100 100 99 96 91 74 67 54 41 38 32 40 41 44 47 54 51 47 41 39 38 38 38 37 36 34 32 29 26 25 25 32 37 35 26 22 19 14 13 12 11 11 18 24 24 24 26 30 36

GFSSGP_700_rhum_078.txt.gz
RH
45 33 33 34 33 34 25 22 16 16 18 19 25 27 26 27 49 44 43 34 35 35 31 39 37 35 33 25 18 19 21 23 25 27 28 26 24 21 19 20 20 20 19 15 12 10 10 10 10
49 42 41 42 38 38 29 19 17 24 22 18 18 25 23 32 37 44 40 36 37 38 33 38 39 39 38 35 32 21 18 20 22 25 26 26 26 25 23 21 19 18 18 18 19 20 20 18 17
50 46 46 47 47 41 26 18 30 34 32 28 25 25 24 27 42 45 43 38 38 37 38 37 40 38 38 38 37 34 28 19 18 20 21 22 23 23 24 25 25 24 23 22 20 19 18 18 18
79 63 57 50 46 40 28 24 39 38 37 37 30 26 26 28 46 45 42 38 38 37 38 38 40 38 38 38 38 38 38 35 27 23 19 19 19 22 24 26 28 29 29 29 29 29 27 26 25
92 82 73 67 50 40 38 33 39 39 39 37 33 28 25 32 41 44 39 37 35 37 36 38 39 38 38 38 38 38 39 39 39 38 32 30 31 28 25 24 23 23 22 22 24 27 32 36 39
88 92 78 80 61 43 36 45 44 42 40 39 36 32 28 26 36 40 39 34 32 32 34 35 38 38 38 38 38 38 39 40 41 42 42 40 36 35 38 43 43 36 28 24 24 26 28 29 29
74 98 74 61 62 49 40 41 48 45 41 41 42 36 31 28 30 46 45 37 33 30 30 33 35 38 39 39 39 40 40 41 41 42 43 44 44 43 43 44 46 47 46 46 44 36 28 26 29
92 83 82 74 57 49 48 43 46 46 40 40 42 42 31 29 26 34 45 44 42 34 29 30 33 37 39 40 40 40 41 42 42 43 44 44 45 46 46 46 46 47 47 47 48 47 47 47 42
96 91 84 75 68 52 47 50 44 53 44 39 45 44 33 33 28 29 31 42 41 38 36 30 32 35 38 40 40 41 42 43 43 44 44 45 46 46 45 45 45 45 45 45 45 45 46 46 46
94 92 81 77 72 61 50 54 49 55 46 43 52 48 45 46 41 31 28 29 39 40 37 36 30 33 36 38 40 41 42 43 43 44 44 44 45 46 47 47 47 47 47 47 47 47 47 47 47
99 92 89 84 77 67 51 61 54 60 45 57 53 49 59 57 46 44 36 32 35 41 42 39 34 31 35 37 38 40 41 42 41 41 42 42 44 45 46 47 48 48 49 50 50 50 51 51 50
94 99 91 90 80 75 61 60 59 65 57 58 50 50 55 66 57 52 47 56 50 51 48 44 43 31 32 33 33 35 36 37 37 38 39 40 42 43 44 46 47 48 48 49 49 50 50 51 51
95 97 95 79 87 75 68 70 68 67 62 65 59 59 65 60 65 59 55 58 56 52 50 48 45 41 37 34 35 36 37 38 39 38 38 39 41 42 44 45 46 47 48 49 52 53 53 53 53
90 98 99 92 94 77 75 74 82 70 73 62 70 57 64 63 64 68 56 52 44 43 38 37 37 38 38 38 36 34 32 33 36 39 42 46 49 49 50 51 55 58 59 59 58 59 57 57 57
89 87 85 87 94 98 97 97 86 70 88 73 60 61 63 63 61 64 63 60 53 46 44 40 41 39 34 32 31 31 30 29 30 28 26 32 35 38 40 45 49 51 48 45 42 38 36 35 34
92 89 97 90 85 71 83 87 78 81 91 90 67 60 73 55 53 47 50 54 56 55 48 44 39 35 34 33 33 33 34 35 35 36 33 30 29 30 31 38 44 45 42 39 38 36 35 37 40
92 91 91 98 89 81 83 73 92 91 98 92 93 86 76 59 52 38 37 42 42 51 50 47 40 37 36 36 38 37 36 36 38 39 40 40 39 38 37 34 35 36 36 36 37 39 45 48 48
96 88 92 93 95 100 86 72 80 88 98 81 74 78 82 77 64 53 38 35 37 38 38 39 40 41 40 43 42 38 36 35 39 40 42 45 44 44 43 40 40 43 44 46 50 49 50 53 57
94 89 87 89 92 99 93 88 87 96 86 96 85 70 70 65 59 55 50 46 42 40 37 34 32 29 28 28 29 32 31 32 32 36 42 45 45 44 44 43 42 44 45 44 48 57 64 58 58
80 81 82 91 90 88 85 90 93 91 64 86 87 69 65 61 60 56 49 45 44 42 41 40 38 33 28 28 28 27 26 24 26 30 34 40 41 44 45 40 34 36 32 28 35 48 44 27 26
73 70 82 88 87 90 93 87 77 63 77 65 76 65 63 57 54 55 54 49 44 36 37 36 34 32 30 30 29 27 24 22 21 22 24 25 26 27 25 21 17 16 16 19 19 20 20 22 27
84 76 71 80 95 92 88 84 67 66 55 54 40 49 56 52 50 43 47 53 47 34 33 34 35 36 35 34 31 29 26 24 22 21 19 19 19 20 18 16 16 18 19 20 24 27 29 33 37
74 70 74 87 84 88 80 79 63 52 46 36 41 45 51 51 44 41 42 41 38 36 36 37 36 34 32 30 26 22 19 17 15 15 15 16 15 15 16 18 18 21 23 23 22 24 27 30 35
97 92 91 88 89 90 77 78 71 49 36 33 34 35 41 50 46 46 48 46 44 42 38 35 33 32 29 25 22 18 16 15 13 13 13 13 13 14 16 19 22 21 20 20 20 21 22 23 24
97 92 95 95 96 89 67 81 64 52 39 30 31 34 30 34 48 50 52 54 53 47 44 42 40 33 27 23 18 16 14 14 14 15 16 17 18 20 22 22 21 20 18 18 20 23 27 30 33
92 90 84 88 96 88 70 80 51 39 37 33 34 34 32 32 32 38 48 58 57 51 47 44 38 32 26 20 16 15 17 19 20 20 20 22 23 22 20 19 18 16 16 20 25 29 32 37 42
91 100 92 89 78 83 62 60 45 37 33 32 29 31 28 27 31 31 37 43 49 48 39 35 33 31 24 20 21 22 24 25 25 25 24 22 20 18 18 20 23 26 28 31 34 39 45 48 49
92 89 94 97 97 91 66 59 47 34 32 38 38 33 39 32 32 29 30 37 45 49 45 42 34 31 32 32 30 28 26 25 24 23 23 23 22 21 21 24 28 32 35 38 41 45 45 43 25
100 100 98 87 81 87 78 50 40 38 39 36 33 35 37 36 33 40 47 53 55 53 47 41 38 37 36 35 32 30 28 26 25 23 21 21 24 30 32 28 24 23 24 27 31 24 15 20 21
96 91 94 93 88 94 76 58 43 39 44 37 28 33 41 47 53 59 61 58 51 46 45 42 39 37 35 34 32 30 28 26 24 23 26 33 35 29 23 20 15 14 13 12 14 22 26 25 30

GFSSGP_700_rhum_081.txt.gz
RH
48 41 32 27 30 29 26 22 19 19 22 24 30 28 31 43 50 44 40 33 32 34 35 36 32 27 17 17 20 22 23 26 27 26 26 25 21 19 19 19 20 20 19 16 15 13 12 12 11
47 41 35 37 32 31 26 22 18 18 19 22 24 29 27 27 36 45 42 34 35 31 33 39 38 36 29 24 17 18 20 22 23 24 25 25 25 24 23 21 20 19 18 18 17 18 19 18 19
50 48 41 40 35 35 26 21 21 19 21 18 19 22 26 24 29 47 39 36 39 35 33 40 39 39 38 35 30 24 18 18 19 20 20 22 22 23 23 23 24 25 24 24 23 22 22 21 21
58 56 48 43 37 33 28 23 21 33 29 24 21 24 26 24 37 40 37 36 40 38 35 39 39 38 38 38 38 38 35 30 25 22 20 19 19 18 19 19 19 22 25 29 30 32 34 34 34
74 60 56 48 44 36 35 31 23 42 36 38 29 32 28 24 29 46 41 36 38 38 37 34 40 38 38 38 38 39 39 38 39 35 28 28 33 38 35 28 23 21 21 22 23 24 26 27 29
86 70 69 58 44 44 37 46 36 43 40 39 32 31 30 28 28 48 41 34 36 38 38 37 39 38 38 38 39 39 39 40 41 42 42 42 38 37 42 45 46 44 43 39 34 28 25 23 25
88 78 78 75 65 47 42 42 48 46 43 39 33 32 30 37 35 45 42 33 32 34 36 38 37 38 38 38 39 40 40 41 41 42 43 44 46 46 46 44 47 48 49 49 48 48 48 46 42
89 93 93 82 74 56 45 43 43 47 46 41 40 38 36 32 37 40 41 33 30 30 32 35 36 36 38 39 40 40 41 42 42 43 44 45 46 47 47 48 48 48 46 47 46 47 48 49 48
84 94 98 80 70 58 49 43 44 47 50 42 42 40 39 35 33 38 43 40 33 30 30 32 34 36 38 39 40 41 42 42 43 44 44 45 46 46 46 45 45 46 46 47 47 47 46 46 47
98 98 83 65 76 60 52 43 47 49 54 43 44 43 41 43 43 33 37 46 43 40 30 30 32 34 37 39 40 41 42 43 44 44 44 45 46 46 47 47 47 48 48 49 50 50 50 50 50
86 94 94 87 80 65 60 52 52 50 57 45 51 59 46 48 59 53 39 38 44 43 40 30 31 32 34 38 40 41 42 43 43 44 44 44 45 46 46 47 48 48 49 50 50 50 50 51 51
92 99 98 89 78 70 66 57 56 50 59 50 50 54 46 52 58 56 51 49 40 44 45 36 30 31 34 37 38 39 40 41 42 41 41 41 41 43 44 45 46 47 48 48 49 49 50 51 51
99 91 96 96 80 69 68 65 63 50 61 63 61 48 48 63 70 66 65 53 48 42 48 48 39 32 32 35 36 37 38 38 37 35 36 37 39 41 43 44 45 45 46 48 51 54 57 58 58
94 91 92 96 91 76 73 68 63 54 56 62 71 56 53 56 67 69 65 62 63 60 55 52 49 43 36 33 34 33 33 36 40 42 43 44 45 46 46 48 50 53 55 57 57 55 54 50 45
83 87 97 92 95 93 77 66 59 58 54 67 72 74 67 67 65 65 69 64 68 65 52 51 50 48 45 43 42 42 41 36 30 27 26 29 35 39 41 41 43 44 45 46 46 42 39 37 36
82 90 84 84 85 82 76 55 50 54 56 66 77 84 74 67 62 70 78 71 68 58 45 44 44 42 39 36 34 31 29 30 30 32 33 34 31 29 28 30 34 35 38 39 39 37 36 34 35
94 96 92 88 85 79 66 49 56 64 62 74 81 88 77 67 61 65 72 70 70 64 54 46 41 40 40 37 34 33 33 33 35 37 39 40 41 42 40 39 40 38 36 34 35 38 41 43 47
96 86 80 76 82 79 83 67 63 60 66 82 87 88 73 64 59 62 56 57 56 60 60 51 45 39 37 37 38 39 40 40 42 42 44 46 46 46 46 45 47 46 44 44 47 47 50 51 53
86 74 79 79 79 79 62 63 67 65 56 61 85 88 74 63 66 59 55 50 44 50 48 45 44 47 43 41 42 42 41 36 32 31 37 36 38 44 46 45 46 49 50 52 48 46 46 42 43
90 74 90 91 88 90 80 68 67 69 62 78 97 87 89 79 83 83 72 61 52 46 45 42 38 37 34 32 29 27 27 29 29 30 28 28 32 38 43 45 46 49 50 46 36 31 20 28 25
96 86 86 88 87 85 82 86 84 86 65 72 74 83 74 74 67 65 62 58 54 51 48 45 43 41 38 35 33 28 27 26 26 26 24 22 23 23 25 26 26 27 25 19 16 16 16 16 18
81 84 88 84 87 89 89 89 73 80 63 56 59 78 67 66 64 60 57 58 54 51 48 47 36 33 32 30 29 29 29 28 27 26 25 23 22 20 19 18 18 16 15 14 15 16 18 20 19
85 84 80 70 74 78 85 90 71 65 68 65 53 70 72 62 61 56 54 50 48 46 49 48 42 33 32 34 34 33 31 28 25 22 19 17 15 14 15 16 16 16 16 17 19 21 20 19 17
84 81 85 90 87 90 76 81 71 58 49 46 46 39 56 82 57 54 53 49 44 42 46 42 40 41 41 40 37 32 29 25 22 18 15 13 12 12 13 13 15 16 18 20 21 20 19 18 17
95 95 94 94 95 90 69 79 62 43 41 43 42 42 41 38 37 44 50 49 44 41 42 43 43 42 41 39 38 32 25 22 18 15 13 13 13 14 15 18 20 21 22 22 20 20 22 24 25
90 88 80 93 92 83 75 76 46 32 33 33 42 39 36 38 38 32 38 50 49 50 51 53 54 49 47 44 41 31 23 19 15 15 16 17 19 21 23 24 23 22 21 19 18 19 22 26 30
75 96 92 94 85 84 65 70 48 38 27 32 32 30 34 39 36 34 37 40 48 50 51 55 57 54 48 39 32 27 22 18 17 19 21 23 24 24 22 20 18 18 19 21 25 28 32 36 40
94 78 90 95 97 92 71 60 40 34 39 39 36 32 31 30 34 33 32 35 37 44 53 56 58 54 44 35 32 29 24 23 24 24 24 24 22 21 20 19 18 19 21 25 28 32 36 38 39
100 99 94 85 82 82 75 47 40 39 41 42 38 32 34 28 31 36 33 34 36 53 62 62 55 46 43 36 33 31 29 30 29 27 25 23 21 20 18 18 21 28 29 25 22 22 24 28 20
93 96 99 88 84 92 77 63 40 39 37 43 37 34 35 36 36 37 45 51 60 63 64 60 55 48 42 39 38 35 32 31 28 26 24 23 21 20 22 29 32 25 21 16 14 13 12 16 26

GFSSGP_700_rhum_084.txt.gz
RH
54 47 42 34 33 39 28 33 22 23 27 34 37 38 48 57 55 44 38 31 29 32 30 24 17 15 18 20 22 24 26 27 26 25 23 20 19 18 19 19 19 18 17 16 15 14 14 15 16
54 48 39 37 40 35 29 31 20 21 23 25 34 31 32 45 51 43 38 32 32 34 33 32 24 18 16 17 19 21 22 24 23 24 24 24 23 22 21 19 18 18 17 17 17 18 18 17 17
52 48 42 50 41 35 28 27 20 19 20 22 27 31 28 28 38 47 38 34 33 34 36 36 33 29 25 20 18 18 18 19 20 20 21 22 22 22 23 24 24 24 24 23 23 23 23 22 22
58 51 46 50 41 40 42 25 22 20 21 19 21 21 29 26 28 45 34 36 36 35 38 38 38 36 36 36 33 29 24 22 20 18 18 18 18 18 19 20 21 23 25 26 27 30 31 31 33
70 57 60 50 44 50 31 24 23 28 26 23 19 22 23 27 27 40 35 37 39 36 35 39 38 38 37 38 38 38 37 35 30 26 26 27 29 27 24 22 22 22 22 21 21 20 20 22 23
78 77 60 50 50 50 35 32 29 39 35 33 29 24 21 26 25 44 35 37 38 36 35 38 39 38 38 38 39 39 39 40 40 38 40 38 34 36 42 45 46 44 46 47 47 46 42 33 28
82 73 58 50 54 56 37 42 41 44 41 45 34 36 28 28 28 48 35 34 36 38 37 35 39 38 38 39 39 40 40 41 42 42 42 43 45 46 46 46 47 48 48 48 48 48 49 49 49
89 88 60 59 62 51 38 39 46 48 46 41 36 34 37 35 45 52 39 31 32 37 38 38 37 38 38 39 40 40 41 41 42 43 44 46 46 47 48 48 48 47 47 47 47 46 47 47 47
92 93 81 70 70 59 42 38 42 46 50 42 37 34 31 34 44 51 46 33 29 32 35 39 39 38 38 39 40 40 41 42 43 43 44 45 45 45 46 46 46 46 46 47 48 48 48 48 48
98 99 85 74 76 73 59 48 46 46 49 44 42 38 35 33 34 42 49 37 30 29 32 34 38 38 39 39 40 41 42 42 43 44 44 44 45 45 46 46 47 47 48 49 49 50 50 51 51
92 89 94 96 88 77 61 58 56 49 47 49 43 41 39 36 34 36 48 51 40 30 28 31 33 37 38 39 40 41 42 42 43 44 44 44 45 46 46 46 47 48 48 49 49 49 50 50 50
86 95 100 78 66 66 63 58 59 54 51 53 45 43 44 43 38 40 43 56 56 50 32 28 32 33 37 39 40 41 42 42 43 43 43 44 44 43 44 44 45 46 47 48 48 48 48 50 53
94 99 96 82 82 72 63 63 69 60 53 53 51 54 57 47 50 50 57 46 52 53 50 40 30 33 35 37 39 40 41 42 41 41 41 41 40 40 41 42 43 45 45 46 48 52 55 55 53
78 94 88 90 80 82 70 67 68 59 57 54 59 55 59 56 55 56 52 46 41 47 45 51 41 32 34 36 37 38 39 40 40 39 36 36 39 41 42 43 44 47 50 53 54 53 50 45 42
99 87 86 86 85 90 81 74 64 72 66 57 57 64 56 60 60 67 62 60 57 63 58 60 59 47 35 33 34 36 37 34 33 36 42 42 34 33 37 41 45 43 38 39 41 42 41 39 37
82 90 90 89 85 87 90 74 76 72 63 62 58 61 66 63 57 64 66 65 68 75 70 65 58 52 48 44 38 36 35 38 41 38 28 28 30 31 30 29 29 28 30 31 35 37 36 36 36
100 74 75 91 80 91 85 80 84 57 54 56 56 56 69 75 62 64 70 68 65 73 70 62 57 53 50 48 45 42 39 33 29 31 33 35 37 38 38 39 39 39 39 40 40 39 38 41 45
95 73 79 79 73 74 88 87 57 47 47 48 50 53 65 84 72 64 69 76 70 70 69 59 54 53 50 46 42 37 34 34 34 35 39 40 40 42 44 44 47 48 47 49 48 47 46 48 50
86 83 80 86 70 77 87 76 53 48 38 41 42 48 60 79 75 66 69 78 77 78 74 65 58 54 47 43 40 38 38 40 40 40 39 37 35 38 37 38 44 48 48 50 51 53 51 47 45
89 74 76 76 65 78 89 82 52 49 44 46 40 46 55 82 81 75 65 63 64 74 78 79 74 71 63 58 49 45 44 43 41 36 32 33 33 31 29 31 39 48 49 49 53 56 53 38 22
84 71 77 77 86 90 88 77 80 47 43 47 42 45 63 78 83 77 67 60 58 60 62 58 62 71 60 53 49 40 33 30 28 27 27 27 27 25 24 24 25 28 29 28 27 28 26 20 27
87 80 88 84 84 72 84 54 68 62 41 47 53 67 72 70 79 82 77 74 71 60 54 52 51 52 50 50 43 38 34 31 28 27 27 28 27 26 24 23 21 20 19 19 20 19 19 18 19
84 82 92 90 84 84 85 80 54 57 54 44 46 63 80 75 80 82 74 69 63 59 55 52 49 46 45 39 36 34 32 31 30 30 29 27 25 22 19 17 14 14 14 16 17 17 18 20 22
77 84 85 83 79 71 58 71 50 55 35 31 35 42 50 78 85 70 65 60 59 56 53 51 48 47 48 44 35 35 38 36 34 31 28 25 22 19 15 13 12 12 13 15 17 20 21 21 20
87 86 81 80 84 60 64 71 48 46 33 35 37 40 48 96 97 94 75 64 60 55 52 52 50 42 38 37 41 40 39 36 33 30 24 21 18 15 13 12 13 14 16 19 20 22 22 20 19
89 75 60 67 56 45 75 60 42 24 30 30 37 37 38 43 63 54 83 75 72 58 55 49 45 45 44 44 44 45 44 43 41 34 25 19 16 14 15 16 17 19 21 22 21 20 18 18 20
96 96 89 87 77 69 52 64 35 30 30 33 37 39 40 42 41 44 63 65 44 43 51 52 48 51 54 54 53 52 50 43 36 30 23 19 17 17 19 21 23 22 20 19 18 19 21 23 26
87 84 94 95 81 66 53 55 37 37 37 41 39 37 34 32 33 38 41 43 43 34 44 54 54 54 55 56 57 56 51 41 31 27 23 20 20 21 22 22 22 21 20 18 18 20 24 28 30
88 98 82 78 74 60 47 38 36 38 42 40 41 32 31 31 33 33 36 35 34 34 40 47 54 58 60 60 58 48 38 33 30 27 26 25 25 25 24 22 20 18 18 19 26 29 27 23 22
99 96 93 78 76 75 70 49 41 43 42 42 45 42 38 36 34 29 34 37 36 39 49 54 62 67 66 58 49 43 40 34 32 31 30 28 27 25 23 21 20 19 22 30 28 23 18 15 14

GFSSGP_700_rhum_087.txt.gz
RH
51 48 45 38 37 39 30 30 31 34 34 38 40 45 53 59 49 53 38 29 26 28 24 16 14 16 19 20 23 24 25 25 23 20 19 19 19 19 18 16 15 14 13 14 14 15 16 18 19
54 48 41 51 50 31 28 28 34 35 32 36 44 53 52 69 52 44 37 29 30 30 26 17 12 14 16 20 22 24 24 24 24 23 22 21 20 18 18 18 17 18 17 17 17 17 17 17 17
56 49 58 58 43 31 24 27 31 45 31 29 37 42 54 64 56 42 33 31 33 32 31 22 15 14 15 17 19 20 21 22 21 21 22 22 22 23 23 23 23 23 23 23 23 24 24 25 26
57 54 69 53 40 32 28 34 45 43 22 25 39 47 45 40 48 47 31 32 32 36 35 31 25 22 19 18 18 18 18 18 18 18 19 19 19 20 21 21 21 22 23 24 24 24 25 26 26
77 82 60 53 41 35 40 50 44 40 36 24 25 65 51 28 30 46 32 34 35 38 37 36 34 34 34 33 30 26 24 23 23 26 27 25 21 20 19 18 17 18 20 20 20 19 19 19 20
74 88 62 47 42 39 49 54 28 44 45 35 20 70 35 29 27 43 32 35 37 37 38 38 37 37 37 37 37 37 36 35 33 32 31 32 32 35 38 40 40 42 43 42 43 43 42 42 40
84 83 61 46 41 50 57 60 46 36 44 44 59 63 39 24 27 41 32 36 37 36 39 38 38 38 38 38 38 39 39 40 40 39 40 42 43 44 45 46 47 47 46 47 47 47 48 48 48
96 86 57 46 45 54 58 62 47 47 44 39 31 80 45 24 27 45 36 34 38 37 39 38 38 38 38 38 39 40 40 41 42 42 44 46 46 47 48 48 47 47 47 47 47 48 47 47 48
88 98 71 47 51 56 66 62 39 42 42 37 44 66 34 25 28 42 42 34 37 38 39 40 38 38 38 38 39 40 41 42 43 43 44 45 46 46 46 46 46 46 47 47 48 48 49 50 50
99 99 73 49 49 57 72 57 42 45 46 46 45 38 38 46 44 47 46 34 33 37 40 41 40 38 38 38 39 40 41 42 42 43 44 44 45 45 45 46 47 47 48 48 49 49 50 50 50
98 96 74 66 60 85 90 66 59 57 71 50 42 38 34 36 52 51 56 41 32 30 36 40 45 41 39 39 39 40 41 42 42 43 44 44 44 45 45 46 46 47 47 48 48 49 49 49 49
99 99 88 81 93 88 90 77 64 62 66 45 46 42 38 37 39 43 56 52 40 30 30 34 38 43 39 38 39 40 41 41 42 43 43 44 44 44 44 44 44 44 45 46 47 47 47 49 52
100 87 98 76 92 80 82 87 71 72 58 47 49 46 47 43 38 39 41 67 65 50 34 30 32 35 38 38 39 40 41 41 42 42 43 43 43 42 42 41 41 42 43 44 45 48 52 53 51
98 96 93 80 73 71 71 86 62 72 63 53 45 50 51 55 42 40 42 54 58 59 58 48 33 33 35 37 40 40 40 41 41 42 42 41 41 39 37 40 42 43 45 48 51 50 46 42 40
89 90 94 92 97 80 70 85 48 70 80 59 52 50 50 66 47 45 45 51 45 49 58 55 55 42 33 35 37 40 41 40 40 39 40 38 35 40 41 33 32 34 38 38 32 32 34 35 35
78 87 93 98 98 92 74 62 71 63 81 73 73 57 53 55 59 49 46 49 48 53 45 53 53 60 53 35 37 39 40 40 38 38 34 37 42 28 28 30 30 30 30 30 32 34 34 34 34
83 70 75 86 90 90 70 71 62 68 81 82 74 69 66 57 60 57 50 56 53 49 49 56 54 54 60 57 47 44 39 37 36 35 41 36 30 32 34 36 38 38 40 41 42 43 43 43 43
74 55 51 59 90 89 90 80 63 71 82 63 66 68 66 72 55 57 58 67 67 61 62 70 67 62 58 57 62 61 56 40 43 42 36 35 35 37 37 38 41 42 40 41 42 44 44 45 50
55 55 45 48 78 90 83 74 72 71 62 50 51 66 61 64 63 59 57 61 68 68 74 76 75 62 63 61 60 62 62 47 44 43 39 38 39 39 38 37 40 38 33 39 46 47 49 52 57
77 55 57 68 83 81 66 66 64 67 68 74 56 66 64 60 71 51 61 62 67 73 72 75 72 74 65 61 59 58 55 52 48 47 45 45 43 38 33 33 33 30 29 35 43 47 46 44 43
72 62 77 66 78 82 72 69 64 63 66 70 42 37 37 39 62 69 56 66 66 76 75 77 74 73 67 62 60 59 60 63 56 48 43 37 32 30 28 28 26 26 24 24 25 27 28 29 27
67 69 64 69 74 61 71 41 35 44 57 66 48 36 36 40 59 73 49 56 67 73 75 78 81 79 78 74 72 70 68 58 59 42 34 31 29 28 28 28 27 26 25 22 21 21 22 22 21
68 73 81 79 73 71 69 66 46 47 53 56 62 45 39 34 44 81 72 65 60 68 68 59 62 61 67 75 77 76 79 62 60 48 36 33 31 30 30 28 25 22 19 17 15 16 17 18 18
92 81 80 82 79 91 60 60 46 42 49 50 50 55 48 45 59 96 90 82 77 72 73 59 55 53 53 52 51 48 44 39 37 38 39 35 33 31 28 26 23 19 15 13 13 14 16 18 20
88 71 73 78 87 64 50 44 46 39 44 46 48 50 60 62 70 82 88 84 80 75 71 60 58 58 57 54 50 51 49 43 40 40 39 35 33 33 23 20 17 14 13 13 14 16 19 21 23
79 71 57 59 47 39 63 49 43 40 43 41 51 46 42 47 49 54 79 82 71 66 58 56 68 72 58 56 56 53 48 43 41 41 42 43 40 36 27 21 16 14 15 17 20 21 22 22 21
84 82 68 74 63 52 43 47 42 27 46 37 38 38 38 40 40 43 70 90 77 66 66 67 74 68 67 68 69 64 53 44 51 51 50 46 40 32 27 21 17 16 18 20 21 20 20 21 22
99 89 87 85 69 53 30 41 33 36 39 45 45 37 34 34 38 39 45 70 96 87 84 73 72 70 72 51 50 50 53 53 53 54 52 46 39 30 24 21 19 20 21 21 21 20 19 19 23
98 99 95 84 53 49 35 34 35 41 44 42 39 34 32 33 33 37 43 50 61 78 92 88 87 72 56 54 54 55 56 54 54 54 49 36 31 27 25 23 23 23 23 22 20 19 21 26 31
92 90 87 72 65 64 57 52 35 39 40 40 44 40 33 32 33 34 34 36 40 52 69 64 45 47 48 56 58 59 59 58 57 50 40 36 32 29 28 28 27 25 23 22 22 22 28 30 24

GFSSGP_700_rhum_090.txt.gz
RH
54 50 48 47 37 35 36 35 32 33 38 43 47 48 64 48 56 46 40 31 25 26 23 17 15 16 19 20 20 22 22 20 19 19 19 19 17 15 14 13 13 14 15 16 17 18 19 18 16
55 49 43 42 45 42 37 30 32 32 33 42 42 46 66 60 56 47 37 30 28 26 21 14 13 15 16 19 20 22 22 21 20 19 18 18 17 17 18 18 17 17 17 17 17 17 18 19 20
56 49 44 46 49 48 29 30 32 34 34 33 43 52 61 72 64 42 33 30 31 27 20 13 12 13 16 18 20 20 19 20 19 20 20 20 20 21 21 21 22 22 23 23 24 25 27 28 29
69 62 64 56 53 32 30 26 31 31 34 36 46 55 58 66 60 40 30 30 30 31 22 15 12 13 14 16 16 16 16 17 18 19 18 18 19 20 20 20 20 21 20 18 19 19 20 20 21
74 76 69 65 48 35 36 39 34 32 29 33 51 57 52 53 59 42 29 32 33 34 28 23 19 17 16 16 17 17 17 18 18 19 18 17 17 17 18 17 17 17 16 16 16 16 18 18 20
79 84 72 62 52 39 39 41 40 39 38 35 53 70 50 33 39 45 29 34 36 36 34 32 31 30 30 28 26 25 25 23 22 23 26 26 28 30 32 35 38 40 41 42 43 45 46 46 47
98 85 74 59 49 43 50 48 35 44 42 42 36 81 59 40 30 46 30 36 37 36 37 36 35 35 36 36 35 36 36 36 36 36 39 39 42 42 43 45 46 47 47 47 47 47 48 48 49
88 89 82 59 46 51 52 54 50 47 46 44 43 70 56 36 29 42 33 64 37 38 38 38 38 38 38 37 38 39 40 40 40 40 42 45 45 46 47 48 48 48 48 48 49 49 50 50 50
86 91 86 68 52 58 56 56 56 41 48 46 48 49 47 42 28 35 35 36 38 38 38 39 38 38 39 39 39 40 40 41 42 42 43 45 46 46 47 47 47 47 48 48 49 50 50 51 51
99 94 74 58 60 58 64 61 48 40 41 40 41 48 38 38 27 36 42 32 38 38 38 38 39 39 39 40 40 40 41 42 43 44 44 44 44 45 46 46 47 47 48 48 49 50 50 50 50
100 92 68 58 67 68 74 61 49 46 48 34 28 40 35 36 38 37 50 35 34 40 39 39 38 38 39 39 40 41 41 42 42 43 43 43 44 44 45 45 45 46 45 46 46 48 48 48 48
99 90 69 94 76 79 81 70 62 59 57 38 37 38 42 37 52 41 41 48 33 34 41 42 43 39 39 38 39 40 41 41 42 42 43 43 43 44 43 43 43 43 43 43 44 45 46 48 49
100 91 96 90 98 84 94 87 68 66 65 54 47 41 43 41 39 50 48 54 45 33 33 42 43 45 44 41 39 40 40 41 42 42 43 43 43 43 41 41 38 40 41 42 44 46 48 44 39
83 97 92 98 88 88 94 96 90 77 66 51 45 48 43 49 40 39 44 51 61 45 39 39 33 38 41 45 40 39 40 41 41 42 43 43 42 42 41 37 41 40 34 34 36 36 33 28 30
73 92 97 94 98 88 76 91 71 77 69 59 49 43 47 48 48 42 38 42 53 59 52 42 41 34 36 35 43 43 42 40 41 41 42 42 41 41 37 41 30 27 27 26 26 26 29 31 32
63 99 98 88 82 84 94 66 80 62 88 77 58 49 45 47 54 48 44 41 42 49 58 61 61 54 40 33 35 37 42 41 42 40 41 41 41 37 41 28 29 30 32 34 35 37 38 40 40
91 84 88 94 100 88 87 79 67 60 66 59 58 61 57 43 48 58 48 48 43 42 45 51 60 63 60 58 49 40 40 40 41 40 39 40 37 41 30 30 33 34 34 39 41 39 38 38 38
78 67 71 82 84 91 94 77 66 63 69 74 78 65 68 68 44 51 56 51 49 52 50 49 51 53 49 51 64 64 52 42 40 38 38 37 44 34 33 35 37 35 34 39 37 33 37 41 42
68 64 54 62 69 80 82 74 74 63 69 70 67 56 51 68 66 44 53 54 53 53 56 57 52 49 54 63 52 49 51 61 62 45 42 47 39 38 36 40 40 39 36 34 30 29 30 36 45
64 62 53 70 76 77 81 77 68 70 69 71 56 48 48 64 64 62 43 52 53 56 62 64 60 62 64 61 59 64 69 73 74 62 56 51 52 48 53 45 41 34 34 32 31 34 28 28 31
79 60 56 71 87 81 72 67 62 60 61 64 66 53 49 65 62 64 62 48 51 55 56 63 67 72 73 68 63 72 80 86 83 77 64 66 68 57 50 43 36 32 29 29 28 28 27 26 23
75 66 80 77 76 70 68 66 49 41 49 55 61 53 31 40 42 63 68 61 47 48 56 59 68 72 75 71 70 74 79 82 91 79 79 85 64 38 33 32 31 31 30 29 27 24 23 20 18
72 65 71 71 76 66 73 73 39 45 43 48 51 54 35 30 30 47 59 67 62 44 47 58 62 75 75 76 70 71 72 75 76 75 79 87 75 66 38 34 33 32 30 27 25 22 19 16 14
90 79 78 76 75 90 62 67 58 38 42 46 51 55 47 36 31 30 69 66 73 49 47 47 56 73 80 84 79 76 81 78 81 84 85 79 57 61 44 36 34 30 26 23 20 17 14 14 15
84 83 80 90 87 90 48 60 56 41 41 46 47 50 52 55 52 35 58 55 68 63 67 74 72 74 73 68 64 75 63 54 52 50 45 42 42 40 38 37 39 36 28 21 16 14 14 16 18
79 78 66 73 75 59 45 53 46 40 40 42 43 41 43 54 63 63 51 62 58 70 80 89 84 77 66 56 55 56 54 55 55 51 46 43 42 39 44 45 39 33 29 24 18 16 16 18 20
78 77 66 96 64 58 57 49 36 38 41 27 42 44 36 42 62 71 74 65 61 77 81 72 68 71 62 59 62 60 57 60 60 60 59 59 54 48 47 45 43 37 28 24 20 19 18 20 22
82 67 77 91 89 62 37 32 36 35 34 41 47 44 39 37 40 50 44 50 53 68 81 82 89 87 79 74 79 70 71 79 83 72 65 62 51 48 49 48 41 35 29 24 21 21 21 21 22
88 82 89 81 61 74 60 43 42 37 39 46 47 39 35 35 36 35 34 39 47 61 67 88 97 98 93 82 87 93 89 68 58 52 54 54 52 51 50 45 34 30 27 26 25 25 24 22 21
99 90 98 95 81 64 58 60 42 42 43 43 42 40 35 34 36 37 38 41 43 45 46 54 93 100 99 99 92 86 93 83 62 56 57 56 53 49 45 37 33 31 30 30 28 26 26 25 24

GFSSGP_700_rhum_093.txt.gz
RH
65 50 52 44 40 36 33 31 36 44 39 38 46 52 67 59 53 50 40 28 24 22 22 20 18 18 18 18 18 18 18 18 18 18 15 11 9 8 8 10 12 15 17 18 18 17 16 16 17
74 50 56 46 40 38 33 30 34 49 42 41 45 59 63 63 66 46 34 27 25 25 20 17 16 17 18 18 18 19 18 17 17 17 17 17 17 17 17 17 17 17 17 18 19 21 22 23 25
62 51 50 52 45 36 31 30 33 34 39 43 46 65 85 79 52 45 31 27 28 23 17 14 14 16 16 17 18 18 18 18 17 16 16 16 17 18 18 19 21 22 23 24 24 25 25 25 24
68 71 56 58 42 29 28 28 32 33 34 41 44 55 68 64 55 40 29 28 26 22 15 13 12 14 15 15 15 16 16 16 15 15 15 16 16 16 16 16 17 17 16 17 16 16 17 17 17
85 81 57 52 40 35 30 39 32 31 32 36 49 61 78 75 73 50 27 29 27 25 15 12 12 12 12 13 13 14 14 15 15 15 14 15 15 15 15 16 16 18 19 21 24 28 35 42 44
89 87 67 50 42 43 43 41 35 34 32 39 49 63 76 65 84 44 30 31 27 27 20 15 13 13 13 14 15 16 17 18 19 21 20 21 23 24 28 31 33 36 38 40 42 44 46 45 46
88 98 70 52 44 47 50 38 39 35 32 32 48 68 65 56 80 60 30 32 31 29 27 25 24 24 23 23 22 23 25 27 27 30 30 31 35 38 42 45 46 47 48 49 50 50 50 49 50
88 93 68 66 50 57 47 42 42 39 39 31 45 51 70 59 58 50 34 34 34 34 33 33 31 31 32 31 33 35 36 36 38 39 39 40 42 43 46 47 48 49 49 50 50 51 51 51 52
90 98 79 59 62 63 55 47 43 44 42 34 37 49 67 62 48 46 38 38 36 36 36 36 36 36 36 36 38 39 41 42 42 42 42 42 43 44 45 46 48 48 48 49 49 50 50 51 51
100 94 73 55 66 61 59 53 42 47 42 40 41 50 44 58 49 44 45 36 38 37 38 38 38 38 39 39 40 40 42 43 43 44 44 44 45 44 44 45 46 46 46 47 47 48 49 49 49
100 91 72 69 72 66 61 60 54 43 36 43 30 45 38 42 46 56 46 37 38 37 38 38 38 39 39 39 40 40 42 42 42 43 43 44 44 44 44 44 44 44 44 44 44 45 47 47 48
99 98 89 83 89 75 69 65 59 51 41 32 32 36 28 22 43 45 44 42 35 45 39 38 39 39 39 40 40 41 41 42 42 42 43 43 44 44 44 43 42 40 40 42 42 44 45 46 44
98 97 100 99 98 86 76 73 62 59 57 41 39 33 33 28 30 53 45 54 46 42 40 38 39 39 39 39 40 41 41 41 42 42 43 43 43 43 43 42 41 39 41 36 36 33 32 31 26
91 96 100 100 96 92 88 88 72 70 67 62 50 48 38 39 38 44 50 44 47 46 41 40 41 42 40 39 39 39 40 41 41 42 43 43 43 43 43 41 37 41 27 25 25 25 25 25 28
99 98 100 96 97 96 98 99 70 83 75 62 51 48 45 40 40 39 46 55 58 52 44 35 35 43 44 44 48 42 40 41 40 41 42 43 43 43 42 41 38 34 27 28 30 32 33 34 35
78 91 95 94 92 100 85 99 96 91 76 68 59 46 46 48 52 42 38 41 47 58 58 52 36 45 47 35 38 47 44 43 43 42 42 42 42 42 42 39 40 28 29 30 34 36 36 35 34
88 86 73 86 87 99 98 100 93 91 78 59 62 56 46 45 48 53 50 36 41 45 50 62 57 55 42 36 32 34 39 38 39 40 41 41 43 42 42 38 34 30 32 33 34 36 35 31 32
85 75 92 83 83 87 75 84 76 72 79 66 57 58 51 43 44 50 57 51 43 47 47 55 54 56 54 59 57 53 47 40 42 39 38 38 41 40 39 41 32 35 36 36 35 36 33 28 28
66 76 76 62 88 83 93 98 67 65 66 68 66 67 64 47 40 43 49 58 50 48 52 50 52 59 52 49 51 49 48 54 56 54 50 44 41 40 44 35 37 40 41 39 34 34 30 30 30
71 70 56 73 67 87 77 72 60 59 68 77 73 70 69 60 58 42 41 48 57 56 47 46 53 58 58 58 54 53 56 58 63 68 72 74 72 63 48 46 52 58 53 40 32 29 28 27 27
74 66 66 64 81 92 92 75 77 66 66 69 71 69 60 52 48 46 43 42 45 51 52 49 51 59 65 65 65 65 66 64 74 81 83 86 88 94 88 86 88 65 45 33 30 30 29 28 26
78 74 66 69 75 86 80 72 48 38 38 59 66 61 49 43 47 49 48 39 38 41 47 52 52 55 60 69 69 75 76 76 84 88 88 88 83 82 84 84 84 69 44 34 31 30 29 27 25
81 81 77 77 86 74 73 76 56 50 48 44 44 53 58 39 53 46 47 46 35 36 34 41 47 52 55 60 67 78 81 80 84 86 88 86 86 87 87 95 89 79 57 36 33 30 28 25 22
79 89 82 94 89 85 61 71 62 41 41 44 47 46 48 44 27 44 52 57 55 48 42 43 47 49 50 59 71 79 84 85 79 81 82 79 79 81 86 92 86 58 53 36 33 32 24 20 16
76 88 92 90 96 87 46 64 50 34 42 44 47 48 53 54 52 30 32 44 56 61 58 46 58 56 55 64 69 76 82 81 86 88 86 82 81 71 61 50 46 43 40 40 38 34 29 23 18
82 80 73 81 95 71 44 59 52 35 38 44 45 50 52 53 58 60 35 33 36 51 69 76 57 57 54 63 80 80 87 90 89 83 61 58 54 54 53 48 46 43 49 42 40 38 30 26 22
78 82 74 80 82 73 55 48 46 35 32 37 41 43 44 46 51 57 58 51 55 59 67 77 78 76 68 68 86 84 81 70 75 70 64 64 61 57 62 67 72 55 48 46 43 38 34 28 23
81 75 78 84 94 78 50 52 37 35 36 40 37 29 37 42 38 51 61 63 54 51 55 74 91 80 82 88 83 73 63 65 66 66 67 68 70 72 78 78 71 50 48 47 44 35 30 27 24
95 90 78 77 70 74 60 42 41 31 35 37 44 38 36 37 35 35 48 57 57 43 42 54 87 75 74 73 73 72 78 81 81 81 87 89 86 82 76 58 55 51 42 41 38 31 28 25 25
94 85 78 76 86 64 61 53 47 42 41 46 48 42 37 33 32 35 36 36 37 39 46 56 82 86 87 87 84 92 98 99 98 94 89 91 84 76 63 61 55 47 42 38 34 31 28 26 25

GFSSGP_700_rhum_096.txt.gz
RH
63 54 50 48 47 42 34 36 45 54 49 46 46 51 60 51 35 52 33 29 23 21 20 20 20 20 19 18 18 17 17 16 14 10 11 16 62 66 20 9 14 17 18 17 16 16 18 20 20
83 54 50 50 50 43 34 34 38 67 57 51 47 50 65 50 41 47 34 27 23 22 21 20 19 20 19 18 18 17 18 17 17 15 12 11 11 14 16 17 17 16 17 19 21 22 23 23 22
98 64 53 53 50 40 34 31 37 50 64 53 48 60 56 53 61 36 31 29 26 23 20 18 18 18 18 19 18 17 17 16 16 16 16 16 16 16 16 17 19 20 20 21 20 19 18 16 15
99 79 64 57 46 38 34 31 35 44 64 56 46 72 63 55 60 33 28 30 24 21 18 17 17 17 18 18 17 16 15 16 15 15 15 16 16 16 16 16 16 15 15 16 15 16 18 24 32
99 93 73 60 40 40 34 31 31 40 56 60 56 64 73 60 60 40 26 29 25 19 16 15 15 16 16 15 14 14 13 14 14 13 14 14 14 14 13 14 15 18 23 30 36 38 39 40 40
100 95 81 57 45 39 34 36 33 36 46 56 60 57 70 68 56 46 28 27 23 18 13 13 14 14 14 13 13 13 14 14 15 15 16 16 16 17 20 25 30 34 36 38 39 40 42 44 46
100 97 72 52 46 48 42 46 39 41 38 38 45 57 61 87 86 58 35 25 20 16 13 12 12 12 13 14 14 15 16 17 18 19 23 26 31 34 37 40 42 46 47 48 49 50 50 50 49
100 96 71 63 48 49 38 40 44 39 36 43 44 45 45 54 82 78 53 31 20 16 16 15 15 15 16 17 19 21 24 26 28 29 34 39 42 44 45 46 47 48 49 50 51 51 51 50 50
98 99 81 67 47 49 48 35 38 44 37 39 62 65 54 60 81 79 65 29 21 20 23 24 26 26 26 28 30 33 36 38 39 40 40 42 44 44 46 47 47 47 48 48 49 50 50 50 49
98 98 77 71 51 54 52 39 39 40 45 41 47 68 62 66 62 90 70 38 26 27 30 30 32 32 33 36 38 40 41 42 42 43 43 43 44 45 45 46 46 46 46 47 47 47 48 48 48
98 100 81 73 63 53 59 53 42 40 43 41 37 50 73 72 64 66 72 81 49 30 33 35 35 36 37 39 40 41 42 42 42 42 44 45 45 45 45 45 45 44 44 44 44 45 46 47 47
99 100 86 76 72 61 62 58 51 46 43 41 40 60 52 60 57 58 65 64 41 35 35 37 37 38 39 40 40 41 42 41 42 42 43 44 45 45 45 45 44 42 41 42 42 42 44 43 44
99 100 97 94 75 70 72 61 58 51 45 43 46 40 62 57 57 59 66 66 47 40 37 38 38 39 39 40 40 41 41 42 42 42 43 44 44 44 45 44 43 41 41 34 32 33 33 30 26
100 99 100 97 89 84 80 65 62 56 51 46 41 41 41 58 60 55 60 56 52 46 41 51 54 39 39 40 40 41 41 41 42 42 42 43 43 44 44 44 43 42 41 27 27 27 28 29 31
98 99 100 99 99 96 86 73 65 60 56 54 53 41 35 39 48 54 50 42 43 50 52 51 44 39 39 39 39 40 40 41 41 41 41 42 43 43 43 43 43 40 40 27 28 30 32 33 31
70 89 99 100 98 100 98 87 79 77 78 72 64 50 44 37 45 44 62 53 47 52 52 51 43 40 41 42 40 40 40 40 40 40 41 41 42 42 42 42 42 39 38 29 30 31 34 35 32
96 92 99 98 94 99 99 100 85 85 83 83 68 55 49 49 50 46 43 60 54 58 57 54 51 39 35 37 50 48 42 45 45 44 42 44 44 43 42 43 42 40 37 32 34 34 34 35 34
91 83 72 86 88 99 98 98 92 89 94 87 79 60 52 48 51 60 57 51 48 55 61 60 63 63 47 43 47 52 46 36 34 34 37 38 42 44 44 44 43 40 35 37 40 40 39 37 34
73 70 78 82 92 85 84 96 98 98 85 72 82 75 62 56 49 50 57 60 54 55 62 48 48 54 59 60 58 57 57 60 58 54 50 49 47 44 44 46 44 46 37 44 48 46 38 34 30
83 69 60 63 58 58 55 71 76 89 68 58 67 55 48 43 45 45 46 51 59 59 54 49 52 57 61 60 58 60 63 67 64 60 57 56 59 62 54 49 54 54 55 58 65 64 39 30 29
78 79 66 52 48 80 74 81 83 83 80 77 69 63 54 44 46 43 44 47 50 57 60 59 57 57 52 56 61 62 62 60 55 57 57 68 85 89 93 90 87 78 77 75 69 48 38 33 30
78 73 70 69 72 91 79 84 52 71 76 69 65 63 59 64 47 45 39 38 42 45 49 52 54 55 53 52 58 60 66 67 69 70 74 81 92 94 91 87 86 91 86 92 97 71 39 35 31
81 82 71 69 72 79 88 88 58 46 45 41 56 57 63 47 47 43 39 36 36 36 39 42 45 46 51 52 52 60 68 72 77 73 74 79 87 90 92 94 92 89 94 92 85 70 47 36 35
82 81 90 93 90 93 74 82 59 37 31 32 40 28 29 41 46 38 42 42 39 35 36 44 45 43 45 44 47 54 62 68 78 84 79 80 90 94 94 96 92 90 92 82 95 52 41 41 38
92 97 99 99 98 92 72 78 56 34 36 38 45 37 36 37 34 37 42 57 60 50 41 46 44 38 38 41 47 56 70 69 77 84 92 89 86 92 96 98 97 68 53 50 47 46 45 46 42
85 77 90 83 92 77 60 73 42 31 28 43 43 43 46 47 44 54 58 49 54 62 62 58 58 60 57 54 51 54 58 63 71 86 92 99 98 95 97 97 77 60 56 51 57 55 52 49 46
84 83 83 80 89 77 55 46 41 32 24 32 44 44 47 49 50 53 58 59 60 62 48 44 58 58 57 57 66 70 65 68 73 77 91 100 97 94 100 82 98 69 59 62 64 61 69 51 46
82 76 94 95 97 85 59 57 44 36 29 34 41 40 41 44 46 47 45 48 60 69 58 53 61 65 62 68 73 79 78 85 90 89 90 74 76 82 88 77 64 62 68 73 72 62 48 42 41
91 87 82 79 77 82 61 48 43 39 35 37 37 37 38 32 30 33 41 34 49 60 62 62 62 69 78 88 83 82 89 91 88 70 68 78 84 81 82 78 81 83 81 75 73 53 47 41 38
86 78 81 77 84 69 61 50 42 36 34 38 39 37 40 38 36 41 38 33 36 53 58 56 46 56 72 95 81 77 69 76 83 85 76 87 98 98 99 99 98 98 94 85 87 69 47 39 34

GFSSGP_700_rhum_099.txt.gz
RH
69 64 63 56 70 67 46 49 56 60 63 60 51 56 60 54 37 34 38 25 25 21 18 19 19 19 19 18 18 17 16 13 22 50 64 79 90 90 57 14 14 17 16 16 16 18 20 21 22
83 77 67 70 69 58 45 44 49 56 60 56 50 48 56 56 47 36 34 28 23 21 19 20 20 20 19 19 19 17 17 14 11 14 37 70 46 12 14 17 17 16 18 20 19 20 21 19 17
91 98 66 85 69 47 39 39 45 57 57 50 47 49 54 59 50 43 33 29 23 22 21 21 20 19 19 20 19 18 17 17 14 12 12 13 16 17 16 17 18 19 19 17 16 15 16 16 17
95 100 89 82 61 44 37 34 40 43 68 62 75 74 68 58 52 46 32 29 26 23 21 19 19 19 19 20 18 17 16 16 16 16 16 16 16 17 18 17 15 14 13 14 19 29 36 38 38
94 100 99 84 53 44 40 33 35 47 50 67 78 67 60 57 52 42 30 30 23 22 18 18 18 18 19 18 17 16 16 15 15 15 15 15 15 15 14 13 14 17 24 32 35 34 33 36 38
99 99 100 80 50 48 44 38 38 59 62 64 95 78 67 64 56 36 26 27 24 22 17 17 17 18 18 16 15 14 14 15 14 14 14 14 13 14 18 24 30 32 34 36 37 39 40 42 44
98 100 98 68 47 48 41 49 34 48 56 63 59 59 77 66 61 48 26 27 23 22 17 16 17 16 15 14 13 13 13 14 15 15 16 18 23 30 35 40 44 46 47 47 45 45 47 47 45
100 100 91 60 58 47 40 55 46 44 47 52 58 56 72 79 75 64 32 27 23 27 18 16 16 14 13 14 14 14 15 15 17 21 25 30 34 38 41 45 48 49 49 50 50 50 50 49 49
99 98 92 74 63 41 45 49 46 49 47 45 50 48 46 72 95 73 46 44 46 40 17 16 16 14 14 16 17 19 22 26 27 29 32 35 38 41 43 45 46 48 48 48 49 49 50 50 49
100 100 90 74 57 46 43 48 50 48 47 53 57 47 51 55 60 70 56 48 53 53 20 17 15 16 19 22 27 32 36 38 39 40 41 41 42 43 44 45 45 46 47 47 48 48 48 49 48
100 96 90 70 50 47 44 42 46 42 52 44 46 51 55 48 56 65 67 50 49 48 23 19 19 22 26 32 36 39 40 41 41 42 43 43 44 45 45 45 45 45 44 44 44 45 46 47 47
99 100 96 75 57 56 53 40 41 40 45 50 42 59 71 69 71 70 73 76 62 45 32 23 23 27 32 37 40 41 41 41 42 42 43 44 45 46 46 46 45 45 42 41 40 39 41 40 38
99 100 100 76 62 57 56 51 45 45 45 51 50 48 44 56 70 75 75 79 70 58 40 27 27 30 36 39 41 42 42 42 42 43 44 44 44 45 45 46 45 44 42 41 30 30 30 30 29
99 100 100 98 72 64 63 59 55 48 44 47 54 52 50 54 60 70 86 80 85 80 56 35 37 38 35 40 41 42 42 42 42 43 44 44 44 44 45 46 46 44 43 40 29 27 29 30 33
95 99 100 95 81 75 63 63 62 54 50 48 53 56 63 67 74 68 78 72 86 82 83 53 38 38 38 38 41 42 42 42 42 42 42 43 43 44 44 45 45 44 44 41 32 28 31 34 36
76 98 99 100 95 82 70 72 66 60 55 50 47 50 57 60 60 54 60 69 79 72 81 64 65 71 71 42 39 40 41 41 41 41 41 42 42 42 43 43 44 43 43 41 35 31 32 32 34
99 95 91 96 100 100 84 85 74 67 62 54 54 57 62 63 57 56 64 64 63 72 85 92 87 65 56 64 45 40 39 39 39 39 41 41 41 42 43 43 43 43 44 42 39 33 35 36 36
77 82 98 88 99 99 100 96 96 83 75 67 60 56 60 66 51 55 62 65 63 61 68 78 81 75 52 66 74 52 44 44 48 49 45 46 45 44 45 44 44 44 45 43 42 38 42 42 40
82 62 75 82 71 86 99 99 100 92 84 75 63 58 55 55 60 65 62 59 75 75 67 75 81 72 71 57 44 48 48 46 46 54 49 41 43 45 44 43 44 44 46 46 45 43 45 43 40
82 77 75 82 74 90 67 80 96 99 91 83 73 56 52 59 61 54 59 70 66 62 58 62 67 69 68 69 68 66 63 64 64 67 68 61 55 53 56 60 55 50 52 54 51 58 52 57 56
83 79 71 67 69 83 65 62 59 68 85 80 69 62 53 52 51 51 50 50 54 61 59 56 54 58 60 57 56 60 59 56 58 58 54 54 55 58 64 84 87 75 80 88 79 82 77 88 83
82 82 77 67 75 96 80 71 46 52 54 63 59 54 52 47 43 40 42 44 45 47 54 62 60 60 59 60 57 57 59 61 63 63 69 70 68 68 74 87 93 94 95 93 96 92 97 95 94
80 81 76 73 84 84 90 71 46 48 46 40 45 52 50 44 41 36 35 38 41 41 43 47 55 57 60 63 60 62 55 58 67 68 72 76 76 74 79 91 95 98 97 100 100 99 99 93 87
86 83 81 79 88 96 77 86 59 36 34 37 41 59 51 45 46 44 38 43 46 44 41 40 42 48 56 59 59 59 63 61 61 62 64 75 82 83 84 95 99 99 98 97 93 97 64 85 88
88 86 96 98 98 91 78 89 47 44 38 32 38 37 39 39 39 40 41 43 47 44 48 47 40 36 42 49 51 53 57 59 59 64 70 72 80 88 95 99 98 100 100 98 74 59 57 55 57
87 81 83 89 95 94 81 85 66 38 39 40 42 41 43 33 25 31 42 46 38 47 56 65 62 52 46 49 49 48 50 52 54 61 70 72 82 89 95 99 98 100 98 94 91 85 64 60 63
95 92 86 98 92 79 78 60 48 44 34 28 39 44 41 42 33 36 44 42 49 52 49 58 67 68 62 63 63 60 53 53 53 55 58 64 75 89 98 99 91 100 98 98 79 81 71 69 68
96 86 97 99 96 92 69 58 40 34 31 32 24 31 42 42 45 43 46 48 54 56 53 57 53 50 54 51 63 70 71 72 69 64 60 69 80 87 99 97 85 79 88 78 80 81 79 77 70
93 95 91 93 86 91 72 48 39 33 36 37 33 33 40 42 43 46 46 47 46 54 65 64 53 49 45 55 63 64 67 77 79 83 85 89 90 91 89 83 79 78 78 80 78 77 80 83 72
90 90 89 83 93 82 62 54 41 41 38 37 40 41 41 42 38 32 30 34 36 39 51 66 58 54 54 50 57 58 80 78 78 78 81 87 84 85 83 79 75 76 82 85 85 88 88 88 88

GFSSGP_700_rhum_102.txt.gz
RH
86 76 81 78 79 90 69 70 61 66 73 72 67 60 63 63 57 44 38 27 19 20 18 18 17 18 18 18 17 17 14 21 38 53 63 82 91 94 80 12 15 16 16 16 18 19 20 20 20
83 85 96 90 94 100 65 60 62 54 67 73 66 54 62 66 56 42 37 23 22 21 18 17 17 18 18 18 17 17 13 36 61 66 83 93 75 22 13 17 16 16 18 18 18 17 16 16 16
97 97 99 100 100 95 60 47 47 48 63 72 67 56 54 62 56 40 37 25 25 20 19 19 18 18 18 18 18 17 14 13 40 59 83 37 13 16 17 17 19 18 16 14 14 15 19 26 31
99 100 99 100 98 65 53 42 44 58 71 84 78 56 50 62 58 52 38 29 24 21 20 19 18 18 18 18 18 18 15 12 11 12 14 16 17 17 18 19 15 14 14 18 28 34 36 35 37
100 98 98 100 91 52 51 42 41 58 65 90 78 72 62 64 61 50 35 29 24 23 21 18 19 19 19 18 18 17 17 17 16 16 16 17 18 17 14 13 14 20 29 33 33 34 32 36 39
100 98 95 100 80 53 52 40 38 45 54 62 79 74 83 69 60 50 35 26 25 22 20 17 18 20 20 18 17 16 15 15 15 15 14 14 14 13 15 20 26 30 32 33 37 39 36 36 37
100 97 99 100 70 75 57 42 35 41 49 66 75 94 85 71 57 50 34 26 23 22 20 17 17 20 19 18 16 14 14 14 14 14 13 13 15 21 27 33 39 43 44 45 45 43 43 41 39
100 98 99 99 88 72 57 44 39 40 62 55 64 99 88 75 63 44 35 28 25 23 22 18 18 19 18 16 15 14 14 14 14 14 16 21 26 30 35 39 43 47 49 49 50 50 48 46 47
99 95 100 92 96 60 50 46 45 41 57 65 71 83 91 90 79 61 36 32 29 24 22 19 19 18 17 15 14 15 15 15 17 21 24 27 31 34 37 40 42 45 46 46 47 49 50 48 47
99 98 94 96 86 62 54 43 42 47 50 64 71 76 80 99 96 91 49 31 30 39 22 20 18 17 15 15 16 16 19 22 26 30 34 37 39 40 41 42 42 43 44 44 44 45 45 46 46
87 99 99 96 89 84 48 56 47 51 55 53 70 78 93 87 86 89 79 47 51 65 54 23 19 17 17 18 20 27 32 36 38 40 41 43 44 45 45 45 45 44 43 41 38 37 37 37 36
82 89 98 98 95 71 62 54 51 49 53 52 62 74 70 61 68 65 79 68 66 67 59 26 20 18 20 23 30 36 39 41 42 42 43 44 45 46 46 46 46 45 43 42 35 29 29 27 26
81 98 100 100 96 62 60 50 51 47 47 58 58 68 74 87 77 74 78 69 58 55 64 31 21 21 24 30 36 40 42 43 43 44 44 45 46 46 46 46 46 45 44 41 39 26 26 27 28
94 96 100 100 100 64 59 46 53 48 45 61 64 59 59 80 91 86 81 86 67 43 44 44 27 23 27 33 39 42 44 44 44 45 45 46 46 45 46 46 46 46 45 43 40 32 26 28 31
96 99 98 100 96 78 62 53 52 51 54 61 68 62 68 66 89 74 78 82 70 71 42 69 49 30 29 34 38 42 45 45 45 46 45 45 45 45 44 45 45 45 45 44 41 39 29 28 31
89 94 93 100 100 95 76 69 62 57 54 60 65 66 70 69 73 83 84 80 67 82 78 70 64 52 37 34 37 40 43 44 45 45 45 45 44 43 44 44 44 44 45 44 43 41 35 30 31
87 88 89 96 99 92 79 76 70 68 69 64 62 69 75 74 75 86 77 80 85 85 82 80 76 78 63 43 39 38 40 42 43 43 44 43 42 42 42 42 43 44 44 45 45 44 40 34 34
91 75 79 69 96 96 96 82 79 70 72 70 62 60 62 75 74 91 73 73 74 87 75 79 78 81 92 64 66 58 43 39 40 44 41 40 40 41 42 42 43 45 46 46 48 48 44 38 39
86 85 85 58 73 86 97 94 88 76 69 72 72 63 63 60 72 79 77 84 77 86 86 88 86 87 90 87 87 85 71 50 43 40 41 45 54 52 47 47 45 46 44 48 53 52 51 47 50
96 93 98 99 96 85 95 94 98 88 78 76 72 67 61 63 64 70 76 86 91 78 80 90 96 90 96 85 85 90 94 84 66 67 73 71 69 64 62 53 47 49 58 57 54 60 79 71 57
87 92 89 77 98 94 80 66 70 81 90 78 75 70 61 58 60 63 69 70 70 69 85 94 94 94 92 99 99 90 97 92 83 74 68 64 65 60 56 56 59 63 90 67 59 80 83 91 85
85 80 80 78 76 84 80 72 66 49 60 76 78 71 67 57 54 53 54 55 64 68 76 75 75 65 61 87 81 86 83 76 75 64 65 70 69 66 71 77 72 81 97 95 91 96 96 95 93
82 80 77 77 86 88 97 86 61 50 42 48 82 60 64 66 60 55 52 50 50 49 49 52 63 67 65 64 74 74 81 69 60 66 66 64 64 67 72 79 84 88 98 99 98 99 98 98 98
85 80 80 79 95 95 74 84 62 50 34 41 42 41 54 54 57 52 47 43 42 43 44 48 51 58 65 71 68 65 70 59 65 65 66 67 67 67 73 78 85 94 98 99 100 92 92 94 84
88 84 96 97 99 92 80 87 60 48 45 38 36 36 37 48 48 53 51 50 49 46 44 45 44 46 52 57 58 60 64 65 65 64 66 65 65 67 73 78 86 92 98 98 94 91 90 83 67
91 80 76 88 97 94 79 94 67 36 45 40 34 25 33 56 57 53 50 50 57 55 53 49 45 45 46 54 54 56 59 61 62 59 58 58 63 67 73 83 82 89 99 99 98 93 97 78 91
98 95 80 80 87 84 80 68 53 45 36 39 33 27 30 35 40 37 29 39 49 53 56 56 45 44 54 64 62 59 61 62 58 56 54 58 59 63 70 79 86 92 100 100 97 98 95 92 93
100 93 97 96 97 95 74 65 41 36 35 34 31 28 36 39 38 40 31 28 33 40 47 58 57 51 57 62 60 62 62 60 65 67 62 57 55 58 65 72 84 100 99 98 83 78 79 77 81
96 99 98 92 86 92 77 51 40 36 33 33 37 34 30 43 43 44 43 45 49 49 51 50 51 58 53 49 49 51 54 56 57 61 56 49 51 63 78 93 90 93 84 83 73 71 73 75 78
96 98 99 90 97 88 68 58 46 40 38 35 41 39 36 38 42 44 47 49 48 48 52 59 64 64 61 54 50 52 54 59 60 61 67 76 80 82 88 92 90 93 90 91 78 78 80 84 85

GFSSGP_700_rhum_105.txt.gz
RH
20 49 86 85 92 95 96 88 74 73 74 78 74 69 65 66 58 54 46 45 36 23 18 19 17 16 16 16 15 14 13 12 17 37 47 56 69 92 75 11 16 16 16 17 18 18 17 16 16
25 80 97 99 98 100 99 64 67 69 58 71 74 69 67 68 62 56 43 41 25 20 19 18 17 16 16 16 15 14 20 33 51 59 74 86 91 68 12 17 16 16 18 17 16 14 14 15 17
33 98 99 98 100 98 89 61 53 64 62 68 80 68 62 65 65 57 42 37 20 20 20 19 17 17 17 16 16 14 39 62 73 83 90 83 26 14 17 16 17 17 15 14 14 16 22 30 34
60 99 100 100 97 97 68 54 48 64 64 72 82 77 62 61 63 55 41 34 21 21 20 19 18 17 17 16 16 14 39 65 78 92 64 13 16 16 16 17 15 13 12 16 28 34 32 33 34
73 97 98 96 98 98 59 53 52 52 55 68 67 93 77 60 60 56 42 28 25 21 21 20 18 17 17 17 17 15 13 42 68 37 15 16 16 16 14 13 12 15 23 30 30 30 32 34 35
98 96 96 99 70 76 72 58 48 48 46 51 56 94 76 65 67 60 52 28 26 21 22 20 18 18 18 17 17 16 14 13 16 16 17 16 15 13 12 13 20 25 27 29 32 33 33 35 35
80 85 99 81 99 93 64 58 43 59 61 58 56 71 84 79 74 63 49 30 23 23 23 20 18 18 18 17 16 16 16 16 16 17 16 14 13 14 19 24 26 30 34 37 40 42 41 39 38
79 99 89 94 100 93 70 63 44 46 70 66 63 56 83 75 76 60 39 31 24 24 22 20 19 19 18 17 16 15 15 16 16 14 13 15 19 24 30 35 39 41 43 44 45 45 44 42 38
83 98 99 99 97 82 87 65 45 42 42 58 66 48 68 99 86 66 44 30 26 25 22 21 19 20 18 18 16 16 15 15 14 15 18 24 28 30 33 37 39 39 39 36 39 41 43 42 37
92 89 99 98 89 99 83 71 50 48 44 51 59 51 60 92 76 77 52 28 27 24 20 20 20 19 19 17 15 15 15 15 17 24 26 28 31 33 36 37 38 39 39 35 32 32 29 32 34
80 96 94 99 93 93 85 70 57 46 52 58 58 56 59 88 99 82 78 32 28 25 21 21 21 19 18 15 15 15 16 21 24 30 34 38 41 43 44 44 44 43 41 35 27 26 26 24 23
58 84 92 99 99 95 87 75 69 52 45 52 60 57 66 94 100 99 95 78 62 49 24 25 23 20 18 16 17 18 23 28 34 39 42 44 45 46 46 46 45 44 43 42 35 23 23 24 23
68 74 97 89 99 98 79 76 82 57 52 48 58 66 61 52 82 100 93 99 64 74 48 27 23 20 18 18 20 26 32 37 41 43 45 46 47 48 47 47 47 46 45 44 41 34 25 25 26
66 77 95 74 99 98 86 67 82 69 56 52 71 67 70 71 82 92 84 86 77 70 70 29 24 21 20 21 26 32 38 42 44 46 47 48 48 48 47 47 46 46 47 46 44 41 33 27 27
48 66 82 97 98 100 93 89 85 72 68 62 75 66 68 77 84 100 90 84 80 68 62 45 27 24 23 24 30 36 41 44 46 47 48 48 48 48 47 46 46 46 46 47 46 44 42 33 29
49 79 98 94 97 100 100 90 79 65 61 67 78 83 79 71 84 93 92 89 76 67 66 52 30 29 29 28 32 38 43 46 47 48 48 48 48 47 46 45 45 45 46 46 46 46 45 42 34
70 64 84 79 88 99 100 83 69 68 67 69 82 89 85 87 86 89 91 87 77 73 66 46 34 39 32 33 34 37 42 45 47 48 48 47 47 46 45 44 44 44 45 46 46 47 47 46 42
53 53 59 51 81 99 100 80 70 68 69 68 71 77 85 93 92 88 91 93 94 80 76 76 50 44 42 43 43 41 39 42 44 45 45 45 45 44 43 43 42 43 44 46 50 53 52 52 51
43 33 81 83 66 98 98 100 93 80 76 73 65 66 73 81 80 93 94 100 98 96 91 81 76 65 65 66 83 65 49 41 40 41 42 44 48 43 42 44 49 49 50 52 56 58 60 58 59
86 77 92 88 94 93 82 97 98 92 75 72 68 65 66 73 74 74 89 95 96 97 98 90 83 93 82 78 89 99 75 71 62 52 44 57 64 48 60 68 65 59 59 60 70 66 61 65 74
91 84 93 93 97 95 60 83 90 95 91 76 68 62 65 75 80 80 73 82 90 88 96 94 88 88 96 95 96 93 83 78 67 69 76 74 74 81 74 65 55 52 58 66 91 77 70 89 95
82 84 86 85 95 97 88 78 72 77 88 84 75 67 61 62 68 74 68 72 78 85 89 90 97 97 96 90 71 85 93 91 81 79 94 99 100 96 80 62 60 69 70 78 88 95 96 95 97
70 79 77 84 85 81 96 89 48 49 58 56 74 70 65 58 62 70 76 76 72 77 85 86 90 99 94 81 84 96 97 100 100 87 90 98 88 71 69 70 70 75 86 97 93 98 100 99 76
82 81 84 87 97 96 76 89 48 46 37 47 42 45 71 61 59 61 61 61 64 67 65 68 69 76 81 85 88 90 97 83 82 88 89 96 85 70 69 70 74 81 86 95 99 96 97 99 97
93 87 96 97 96 90 82 99 44 46 38 36 40 54 79 71 66 64 58 54 53 52 52 53 54 61 70 79 77 79 77 83 84 86 84 76 75 72 70 68 69 75 78 82 95 99 99 99 98
96 82 73 91 94 88 87 97 47 45 38 52 48 53 61 76 60 69 65 58 52 46 45 46 49 52 55 62 63 66 69 72 71 72 72 74 69 68 64 61 61 68 74 80 96 100 100 98 96
97 94 81 80 83 82 75 72 50 46 45 39 43 41 38 45 51 47 64 60 55 50 48 50 47 45 45 50 52 57 60 62 64 64 63 63 61 59 55 53 57 68 72 79 99 100 100 98 88
94 93 99 97 96 94 74 68 45 39 46 43 38 36 36 41 48 47 45 43 50 54 51 54 52 48 44 43 50 56 56 55 56 56 63 62 58 56 57 56 54 56 67 86 97 90 94 84 70
97 96 91 93 92 83 72 50 42 36 34 36 38 36 35 44 46 43 46 40 30 39 52 53 57 60 51 43 48 54 61 60 60 59 56 56 59 58 53 49 51 63 81 90 93 90 88 86 78
78 97 98 96 98 78 64 51 45 44 38 37 37 35 37 39 45 45 48 50 51 47 47 51 52 52 52 41 46 48 50 53 55 57 57 50 56 57 51 62 74 90 99 94 88 75 77 86 84

GFSSGP_700_rhum_108.txt.gz
RH
16 22 66 99 100 97 76 69 63 65 78 84 80 78 72 73 67 63 53 50 46 36 24 18 18 16 15 14 13 12 11 11 8 46 56 58 70 87 53 11 16 15 16 16 16 17 16 14 14
19 25 93 98 100 97 72 62 65 68 76 88 82 77 73 73 60 59 46 46 46 35 22 19 16 16 15 15 14 12 11 10 14 45 54 62 75 87 15 16 15 15 16 15 15 14 14 15 17
50 42 100 100 96 86 66 58 63 70 72 87 80 84 81 84 64 62 51 41 46 31 22 20 17 16 16 16 15 13 13 19 40 52 69 87 94 34 16 15 15 17 14 12 12 14 19 28 31
64 61 98 98 95 94 62 56 68 69 78 84 79 81 75 66 66 63 56 42 38 25 22 21 17 16 16 16 15 20 42 49 62 77 92 99 32 15 16 15 15 13 11 12 19 27 29 30 31
68 81 92 100 75 97 76 63 73 68 73 75 82 77 72 66 65 64 57 42 35 22 22 20 18 17 16 17 14 37 64 71 78 90 80 18 16 16 16 14 12 11 16 24 25 26 29 32 32
70 77 91 97 99 84 94 80 64 60 64 85 73 69 70 66 62 63 57 42 32 24 22 19 19 18 17 17 15 29 64 76 90 52 15 16 17 18 15 12 13 22 25 25 28 29 32 33 30
70 92 91 76 98 99 98 90 64 58 62 73 81 61 66 72 62 61 59 45 27 25 23 20 18 18 17 17 16 15 47 73 62 15 16 17 18 13 13 19 24 24 26 28 33 32 30 30 28
65 80 97 97 98 94 99 96 87 69 63 76 67 61 57 64 67 65 65 56 27 26 24 21 18 17 18 17 16 15 15 23 16 17 17 15 14 17 24 25 27 31 35 37 39 38 33 30 26
66 76 87 98 95 97 98 98 96 76 93 91 70 86 50 51 68 82 70 52 34 29 25 22 18 18 18 17 17 17 17 17 17 17 14 14 22 28 35 36 36 40 42 42 42 42 39 35 29
77 85 91 89 88 94 100 97 84 82 89 98 83 69 56 53 68 92 84 74 57 51 27 23 19 18 17 16 16 17 17 19 18 14 15 23 31 35 36 37 37 36 37 36 36 36 34 34 31
72 89 92 97 98 99 94 99 99 97 81 85 69 58 57 57 74 99 96 80 45 65 38 24 21 19 18 16 15 16 17 16 14 18 26 31 32 34 38 40 40 39 36 32 30 29 28 26 25
76 77 95 92 98 100 99 97 97 79 81 81 53 50 49 54 55 97 99 97 89 69 40 27 24 20 18 17 16 15 15 15 19 27 31 35 39 43 45 46 46 46 44 42 34 28 26 25 24
67 68 78 92 83 99 98 88 98 100 97 72 59 64 65 63 66 82 100 100 99 95 68 35 26 22 20 19 17 15 15 20 26 31 38 44 46 47 47 48 47 46 46 44 42 38 28 26 25
55 68 87 75 84 95 100 99 100 92 77 70 67 71 67 64 67 70 98 98 98 98 81 48 27 24 21 19 18 17 21 27 34 40 45 47 48 48 48 48 47 47 47 46 46 43 41 33 28
53 58 81 70 91 97 99 90 86 84 83 72 76 72 68 72 69 76 89 73 91 90 86 45 29 25 22 20 20 21 28 34 40 45 47 48 49 48 48 47 47 47 47 47 47 47 45 43 37
59 52 80 81 85 95 98 98 99 76 76 69 68 78 78 70 74 89 84 87 80 99 95 70 37 27 24 22 22 26 34 40 45 46 48 49 49 49 49 48 47 47 46 47 48 48 48 48 46
61 77 40 66 73 86 99 99 98 78 74 76 66 74 90 84 84 81 90 91 92 92 93 92 63 33 27 24 25 28 36 42 46 48 49 49 49 49 48 48 47 46 46 46 48 49 50 51 50
80 50 30 48 56 58 84 98 100 87 74 76 74 74 83 84 92 88 96 100 94 97 91 82 77 45 33 29 29 30 35 41 46 48 49 49 49 48 48 47 45 44 44 45 48 50 52 54 55
96 81 49 79 58 49 80 99 99 96 82 69 69 73 88 87 96 93 91 93 99 93 97 74 91 70 41 35 32 33 36 39 43 46 48 48 48 47 46 45 44 43 44 50 52 57 58 61 61
98 86 90 57 43 67 78 96 100 97 88 73 67 73 73 86 93 97 96 100 98 98 97 90 86 90 75 39 36 39 41 45 44 44 44 45 44 44 56 61 48 54 68 61 60 68 70 70 72
91 86 88 91 76 90 72 61 93 98 81 74 68 70 73 73 67 72 80 78 98 99 99 91 82 85 80 63 40 56 58 52 64 59 49 46 52 60 80 75 76 86 78 69 65 71 79 82 84
77 80 82 78 95 95 82 53 93 99 84 76 74 62 63 66 68 70 67 78 64 72 93 94 92 73 61 72 54 58 73 66 68 84 94 74 70 76 89 90 99 92 80 78 84 85 100 89 97
81 78 78 85 95 87 92 78 64 83 86 84 80 73 64 60 58 61 58 75 73 90 80 86 96 99 95 80 79 96 84 99 93 75 78 90 80 86 90 92 88 87 83 84 89 93 92 99 97
80 81 81 93 98 75 62 79 38 70 71 80 79 79 75 69 64 60 61 62 66 75 89 93 91 88 94 98 94 93 89 98 100 98 87 90 89 88 96 93 94 98 92 82 84 77 86 91 100
86 86 79 80 89 61 79 91 49 51 54 67 66 78 76 68 68 64 59 57 62 68 75 77 87 89 91 100 98 99 95 93 92 85 89 74 90 87 91 86 91 85 78 72 74 77 85 96 86
90 94 64 61 59 55 81 73 48 47 40 56 56 61 62 49 68 74 76 68 69 70 73 74 74 73 69 77 84 90 89 94 99 98 92 89 88 89 89 89 82 73 65 65 72 80 82 90 93
94 93 85 81 74 68 62 66 49 44 53 53 48 50 50 61 68 71 71 71 66 66 62 62 62 60 64 63 64 70 78 83 85 84 84 83 82 81 79 74 67 62 57 56 64 72 76 86 95
90 95 98 92 88 62 51 57 45 47 51 53 53 44 43 66 75 66 75 75 74 67 64 59 63 63 60 56 54 57 60 65 69 71 69 69 70 70 68 63 58 53 53 56 59 65 81 82 88
92 98 98 97 94 58 45 41 47 48 44 46 48 40 42 44 49 54 55 54 62 82 77 59 54 55 58 54 51 49 52 56 55 54 56 57 60 61 63 62 59 57 56 54 60 77 100 100 94
80 92 94 98 90 92 71 46 52 52 44 41 41 41 41 47 47 46 47 48 45 44 58 62 61 58 61 58 52 52 47 54 63 64 64 64 63 60 58 60 64 62 62 68 89 97 99 86 72

GFSSGP_700_rhum_111.txt.gz
RH
15 13 28 55 99 99 79 55 48 47 45 59 59 59 60 55 50 67 65 60 56 46 39 26 21 16 13 13 12 11 12 12 8 21 59 78 79 82 55 11 14 13 14 14 14 15 13 12 12
17 20 43 99 100 99 78 46 54 47 46 50 63 67 66 61 63 68 60 53 52 47 37 27 20 16 14 14 12 11 11 11 7 41 56 72 71 85 22 14 14 13 14 14 14 12 12 13 14
12 29 98 97 98 97 74 51 54 51 48 49 62 76 74 69 72 71 60 46 49 47 39 25 20 15 14 14 13 12 11 9 19 57 56 68 78 62 14 16 14 15 13 11 11 11 13 20 25
16 32 76 100 90 84 89 59 51 51 49 55 70 81 83 81 96 68 60 50 44 47 39 22 21 16 14 14 13 11 10 10 35 58 62 68 94 23 17 15 15 14 11 10 12 18 24 26 28
26 48 87 86 98 93 92 79 56 51 51 56 77 79 85 93 82 67 59 55 42 44 37 20 21 16 15 14 13 12 12 21 63 60 71 93 73 16 16 16 15 12 12 19 24 26 27 28 30
74 59 84 77 70 97 78 88 72 67 57 56 74 80 88 94 76 65 58 58 46 40 30 21 21 17 16 14 13 28 33 60 66 79 96 82 17 16 17 16 13 16 25 26 25 27 29 29 28
64 93 77 73 62 57 94 90 100 98 78 65 67 79 92 78 73 64 64 59 49 42 29 27 21 18 18 16 16 59 60 75 85 96 60 16 16 17 16 14 22 27 25 25 25 25 25 24 22
76 99 81 68 69 58 73 87 87 99 84 72 81 62 84 77 74 65 66 63 52 45 34 34 21 18 18 17 16 70 76 86 96 39 16 17 17 15 13 25 28 29 30 30 29 30 28 26 24
90 100 94 70 72 76 82 94 86 97 100 90 58 92 72 72 70 67 68 70 74 73 42 40 22 20 18 17 18 58 75 95 52 16 18 18 15 14 24 26 30 38 41 41 40 38 35 30 27
84 100 86 75 82 95 75 90 88 100 97 84 74 83 74 82 68 66 68 88 89 76 72 43 26 21 20 18 21 40 69 90 20 18 20 16 16 24 28 37 42 45 45 44 41 40 35 30 26
99 87 84 87 98 97 82 86 96 99 96 88 79 84 71 74 57 71 67 92 93 92 64 38 27 22 20 18 18 38 45 28 18 20 16 17 25 31 38 42 42 40 39 37 35 33 30 27 26
85 96 90 89 80 87 96 97 100 97 86 99 74 70 78 54 50 52 57 97 99 99 79 43 29 22 20 19 18 30 19 18 21 18 16 24 32 37 37 39 40 42 41 39 34 32 30 28 26
82 92 73 81 80 79 90 97 97 100 83 100 92 100 68 67 59 59 64 80 98 99 97 76 34 23 21 19 19 19 18 19 19 16 22 30 33 37 43 46 47 46 46 44 43 36 30 29 28
98 89 63 62 62 88 85 82 99 83 80 99 99 86 55 74 66 66 72 83 96 100 99 99 45 41 49 19 18 18 19 21 15 20 29 32 40 46 48 48 48 47 47 47 47 45 42 38 32
99 86 64 68 68 62 65 67 77 74 100 100 94 95 71 76 79 71 70 77 88 98 99 100 60 29 50 20 20 20 21 17 21 30 36 42 46 48 48 48 48 47 47 48 48 48 47 46 44
100 96 99 85 65 39 47 74 100 88 98 93 94 84 85 74 71 74 79 74 81 96 99 95 73 30 24 36 22 21 17 18 29 36 42 46 48 49 49 48 48 47 47 47 48 48 49 49 49
89 71 74 78 61 72 70 53 76 100 100 80 90 88 96 84 80 76 89 70 77 88 95 100 78 38 27 25 26 24 20 27 34 41 46 48 49 49 49 49 48 48 47 47 47 47 48 48 50
78 72 66 67 55 61 60 46 99 94 93 83 70 89 92 91 82 78 88 71 78 73 79 100 84 49 31 28 28 26 23 33 41 46 48 49 50 50 50 49 49 48 48 46 46 47 48 49 50
87 69 57 52 68 70 80 70 96 93 94 77 68 66 79 74 88 86 92 83 77 80 100 83 68 64 41 32 30 28 26 34 42 46 48 49 49 49 49 48 48 48 47 47 49 51 53 56 63
84 65 59 77 61 51 81 96 99 88 91 95 75 62 72 83 87 93 95 89 86 93 95 93 87 85 56 42 34 33 29 33 40 45 48 48 49 49 48 48 48 47 51 48 52 68 66 66 72
75 71 67 73 92 76 81 83 100 78 87 83 75 73 82 77 80 99 98 100 98 98 97 98 99 91 83 71 57 41 38 36 38 43 45 47 49 49 50 48 47 60 71 70 80 86 76 74 82
71 80 83 82 81 59 80 77 96 80 94 78 71 74 74 83 83 84 98 89 90 100 100 98 94 89 88 98 88 59 47 43 42 52 54 60 60 53 58 57 55 73 75 76 99 98 90 87 97
83 74 82 76 72 66 60 62 75 91 90 90 84 71 71 76 76 75 78 71 77 80 84 82 98 98 97 88 83 95 97 75 51 51 66 75 80 74 80 78 65 73 82 83 95 93 94 100 84
78 81 78 76 79 68 52 57 59 74 85 83 83 86 67 66 69 78 81 75 78 87 89 79 98 98 98 100 95 82 80 79 84 80 67 80 93 98 95 99 89 90 95 95 87 97 92 96 95
80 85 77 76 80 56 69 61 48 54 69 90 88 89 90 64 67 63 64 70 71 79 81 90 93 90 86 81 67 74 77 78 78 67 70 80 91 94 99 88 84 98 93 96 96 94 93 84 84
95 86 77 81 60 41 68 54 64 61 54 69 81 90 90 88 74 67 67 66 68 79 73 64 69 84 87 98 99 78 78 68 68 87 80 89 85 93 92 98 96 92 89 89 82 87 79 73 72
92 96 87 84 58 48 44 53 49 54 60 58 64 76 84 83 78 69 65 77 70 72 80 76 81 87 95 95 93 97 97 95 94 99 98 88 92 88 94 98 91 94 91 84 80 74 72 65 62
82 82 89 79 78 54 39 42 49 60 60 58 63 57 56 57 65 65 70 87 86 79 76 80 83 88 84 77 71 76 78 87 85 88 86 89 94 88 88 84 81 80 74 72 64 62 60 61 66
84 96 92 92 95 90 58 55 67 59 49 51 54 49 43 44 52 76 76 85 83 78 74 72 75 76 74 70 66 60 58 60 65 68 72 75 76 73 72 71 71 71 71 67 63 62 60 62 80
98 94 77 87 97 87 84 81 75 64 45 42 42 42 44 50 50 60 78 80 80 74 90 76 74 70 66 67 70 66 59 54 55 53 56 59 65 68 70 69 71 70 69 66 65 67 66 71 99

GFSSGP_700_rhum_114.txt.gz
RH
8 14 14 30 86 83 46 29 51 43 37 49 43 56 54 52 53 50 45 54 61 50 46 43 25 21 16 14 12 11 11 12 14 46 62 64 83 75 47 12 14 11 11 12 12 13 12 11 12
8 19 37 79 90 93 29 26 37 45 49 39 49 49 53 54 56 56 50 50 56 52 48 40 31 20 17 14 12 11 11 11 9 34 57 72 79 78 22 14 14 11 12 11 12 11 11 12 14
8 19 55 97 97 79 30 41 39 55 50 48 42 48 53 60 63 61 60 60 56 41 48 42 34 20 18 14 13 11 10 11 7 47 65 80 72 76 20 16 14 14 12 11 10 12 13 15 21
11 23 62 79 86 58 63 64 60 59 55 48 46 46 52 65 67 59 56 65 52 41 50 47 32 21 18 14 13 12 10 10 9 62 67 77 68 71 18 15 15 15 12 11 12 16 21 23 24
16 71 74 71 49 52 61 70 63 54 66 53 48 47 58 66 75 64 68 64 52 44 49 46 31 23 18 14 14 13 11 9 27 69 68 75 80 46 16 14 15 15 12 13 21 24 24 25 27
86 70 91 88 46 26 38 68 76 65 73 60 54 52 65 74 68 67 77 63 58 44 48 45 29 24 17 15 14 12 11 10 50 77 70 73 82 20 16 14 13 13 18 25 24 25 26 26 25
89 99 80 78 75 62 48 66 75 65 74 69 72 86 73 90 64 71 79 71 60 53 44 42 27 22 18 15 14 13 12 30 67 70 74 94 39 17 16 13 12 22 27 26 26 26 26 26 24
97 98 97 92 75 70 63 59 60 70 76 66 82 94 95 74 70 57 79 74 62 58 45 40 27 23 18 16 15 18 37 72 76 78 97 79 17 17 16 12 16 26 25 26 24 25 25 24 23
99 98 90 75 85 70 59 66 80 76 83 82 79 96 99 99 89 66 72 73 68 61 52 40 30 25 18 16 15 50 53 81 83 96 94 18 17 17 13 15 23 22 24 27 29 29 26 24 22
95 95 78 72 80 78 72 83 89 99 81 85 94 96 100 90 93 81 79 69 70 63 55 41 34 26 19 17 19 78 71 84 96 98 23 17 19 15 14 24 24 26 30 35 38 36 32 26 23
82 72 67 77 96 91 83 80 94 92 79 82 96 90 87 97 97 99 73 67 72 64 62 44 39 27 20 17 16 60 81 91 98 26 17 18 17 15 22 25 29 36 38 38 36 34 32 29 26
97 87 82 76 98 93 82 94 99 92 57 77 98 99 87 98 94 97 85 72 85 73 96 70 77 30 21 18 17 42 77 99 70 18 18 18 14 19 26 33 36 38 37 36 35 34 33 30 26
98 72 89 85 82 88 77 74 69 74 72 65 85 96 97 100 98 95 87 70 79 74 96 93 86 41 24 21 25 40 95 99 59 19 20 15 16 23 36 37 38 38 37 37 36 34 33 32 30
94 92 92 88 71 62 55 54 60 54 71 77 71 98 99 96 83 97 78 73 82 80 89 99 97 57 27 24 23 47 73 82 36 21 19 12 21 31 37 38 42 44 46 46 46 44 40 36 33
92 95 83 73 51 45 49 54 54 53 69 71 74 97 82 80 98 86 75 75 78 73 84 100 100 91 32 26 21 23 51 52 19 20 15 15 29 30 38 45 47 48 48 48 48 48 48 47 46
87 92 98 98 81 84 58 40 51 65 78 100 89 85 71 77 62 99 80 81 77 77 70 96 99 98 38 23 20 20 27 19 19 18 15 28 34 40 46 49 49 49 48 48 49 50 50 50 50
89 86 93 77 85 83 72 54 64 62 89 85 84 83 62 84 98 92 81 76 72 71 64 98 96 95 58 37 20 21 24 19 21 18 23 35 40 47 49 50 49 49 48 48 48 48 49 50 50
99 99 92 76 78 74 70 67 66 62 86 92 90 93 97 93 97 83 77 74 67 62 71 63 99 99 75 75 23 22 21 21 22 19 34 40 46 50 50 50 49 49 49 49 48 47 48 48 50
94 84 75 60 62 66 56 58 83 82 97 74 74 87 93 95 96 86 76 79 67 68 85 82 92 100 62 72 54 29 22 24 20 26 40 44 49 50 50 50 50 49 49 50 48 47 47 51 57
97 94 82 70 72 73 56 52 84 85 95 96 83 78 92 90 95 91 80 86 80 86 71 66 94 99 77 59 82 44 41 26 24 34 44 48 49 50 50 50 50 49 49 49 47 49 51 65 74
87 96 83 85 81 76 89 68 76 88 93 99 83 69 82 92 88 91 97 93 86 86 78 75 94 99 83 45 43 46 39 31 29 37 44 48 49 50 49 49 49 50 50 57 57 65 68 77 78
83 87 86 71 78 90 73 74 80 94 92 99 82 71 63 76 84 94 92 86 95 88 98 100 82 99 99 73 40 38 36 31 29 36 42 46 51 52 51 51 52 61 61 79 74 78 90 93 83
83 85 72 78 69 78 63 64 94 84 83 93 74 68 76 76 80 76 89 77 99 100 100 99 100 97 100 98 70 56 50 44 36 35 39 43 46 47 50 52 63 74 93 91 95 88 88 91 90
66 54 75 75 75 76 57 57 96 94 94 96 92 63 67 72 81 87 86 78 81 89 90 91 99 100 99 98 100 93 81 74 71 62 46 44 49 54 54 61 66 76 82 85 91 95 98 95 95
93 87 85 88 89 85 53 56 65 59 78 98 99 88 72 72 79 87 76 76 73 81 89 98 89 96 99 99 98 99 92 88 87 95 95 90 83 73 58 62 67 69 89 98 92 94 87 97 89
84 88 96 95 94 90 61 77 55 58 69 72 100 100 99 80 80 79 85 91 85 83 95 99 86 82 92 97 99 97 88 96 96 79 63 72 82 72 73 78 79 68 96 93 89 87 93 97 88
71 86 87 94 63 62 50 54 52 60 59 65 82 98 99 99 81 77 78 81 86 90 79 80 71 80 87 98 98 98 96 90 72 80 83 83 70 65 69 88 75 88 82 87 97 98 95 86 74
89 80 86 82 94 69 58 64 76 59 58 66 63 68 66 97 83 78 76 71 73 80 81 84 88 91 88 96 99 92 91 94 88 92 88 77 73 76 83 82 84 88 89 96 100 97 92 74 62
78 80 94 87 92 97 96 98 80 78 64 72 61 57 52 58 76 81 76 75 65 84 88 87 91 91 90 93 100 92 92 84 88 96 85 93 96 92 95 87 92 93 95 99 93 85 77 64 63
78 91 86 93 88 93 97 97 83 87 77 62 66 55 60 60 58 61 74 76 88 89 82 83 84 86 82 86 80 71 68 62 58 63 67 68 76 74 75 74 80 82 79 75 72 72 70 72 73

GFSSGP_700_rhum_117.txt.gz
RH
6 10 11 16 32 36 10 35 30 33 36 23 22 44 53 42 56 57 49 48 49 54 52 45 46 33 19 16 14 11 10 11 29 54 61 66 70 73 63 13 14 11 11 12 12 12 11 12 11
8 8 16 22 39 71 23 10 37 33 48 40 43 47 40 41 56 59 56 53 50 57 56 49 42 37 20 18 14 12 10 11 16 45 58 73 78 70 45 14 15 12 13 13 12 11 11 12 13
11 9 25 32 63 52 48 34 31 32 38 46 55 50 50 44 51 57 57 60 56 56 58 50 42 39 24 18 14 12 11 11 12 33 56 64 78 75 34 16 20 13 14 12 11 12 13 14 19
18 22 56 54 21 5 32 43 43 54 44 44 53 50 50 51 47 54 57 60 60 61 52 47 48 41 28 19 14 12 11 10 11 25 54 68 75 75 26 16 12 12 13 12 12 14 19 22 22
28 17 54 44 10 7 11 17 26 51 56 49 51 55 53 58 52 50 58 62 61 56 53 45 49 46 30 20 15 13 11 10 10 34 69 72 74 65 22 16 11 10 11 14 17 21 22 24 24
59 38 67 58 17 15 14 17 32 18 46 58 59 62 52 60 71 57 56 64 68 61 56 49 48 45 29 20 15 13 12 10 9 57 72 74 75 52 20 15 11 9 10 19 25 23 24 25 22
92 70 46 36 31 27 22 20 28 22 24 30 54 60 55 76 98 77 64 59 67 62 49 54 52 44 28 20 15 13 12 10 20 72 80 74 77 40 17 14 11 10 14 24 25 25 24 24 21
100 98 94 76 63 54 37 34 46 52 30 27 37 56 58 83 99 92 88 73 67 64 57 49 51 43 28 20 16 14 12 10 35 80 81 74 79 24 16 14 10 13 21 21 24 25 23 21 20
99 100 100 77 75 49 51 58 56 62 70 37 55 54 59 79 100 99 91 95 80 69 60 56 47 41 28 20 16 14 12 10 38 85 74 78 68 19 16 13 12 22 22 22 22 23 22 22 21
94 99 90 64 66 64 66 84 72 65 68 55 66 54 61 73 99 98 99 92 81 72 65 60 48 41 32 20 16 14 12 13 48 80 76 87 40 17 14 12 17 22 23 25 26 26 26 24 20
80 62 62 73 66 87 78 76 77 74 63 45 51 46 53 72 91 98 86 90 82 67 74 66 57 44 39 21 17 14 13 21 74 78 80 94 21 17 14 12 20 21 25 29 33 33 30 27 23
100 81 67 68 81 79 76 81 79 82 58 60 74 62 60 68 91 98 99 99 87 78 74 72 62 52 44 23 18 15 23 45 78 84 97 72 17 16 12 18 21 24 30 34 33 31 28 28 25
92 85 84 70 86 80 88 73 66 66 56 89 71 81 88 82 86 98 95 98 99 87 72 68 71 80 49 26 20 22 49 64 82 98 94 28 16 14 13 21 27 33 30 31 32 32 30 29 30
84 81 81 84 70 94 90 70 85 48 53 83 71 76 82 82 100 99 97 99 100 94 76 73 76 81 73 39 29 41 73 77 94 96 51 17 17 13 18 26 35 29 32 35 36 35 33 33 32
79 76 78 84 86 91 96 76 63 56 55 56 60 74 70 80 96 93 78 90 99 99 85 93 86 70 77 60 36 69 93 92 99 86 26 19 16 15 24 34 31 33 41 45 46 45 44 44 44
84 80 57 56 77 93 96 47 54 68 76 70 79 93 81 77 98 95 82 94 100 100 98 96 93 87 77 82 72 72 72 71 98 81 29 19 14 21 31 35 40 47 48 48 49 50 50 50 50
92 91 86 86 74 84 94 55 42 65 61 63 92 99 79 73 72 73 84 89 96 99 100 93 84 80 82 96 84 84 78 100 99 80 36 19 14 28 33 41 48 50 49 48 49 50 50 50 49
97 100 100 100 91 87 81 60 54 52 63 78 81 92 92 59 59 63 75 90 100 99 100 89 95 84 84 76 72 75 81 93 94 74 22 18 19 34 41 49 50 50 49 48 48 49 48 48 47
91 90 93 85 85 82 72 74 59 60 80 91 79 88 100 87 76 63 89 91 100 93 86 98 89 96 100 82 71 61 98 68 77 37 22 18 29 40 47 50 50 50 49 49 50 49 48 47 46
86 97 92 99 97 94 77 66 72 66 80 95 93 89 81 87 68 91 97 98 96 82 85 96 93 94 99 97 83 33 28 36 43 23 26 23 38 46 49 51 50 50 50 50 50 49 47 49 52
82 88 97 91 79 76 78 65 88 90 77 94 92 92 74 89 70 92 100 97 98 94 80 96 96 94 79 100 96 80 32 36 51 28 28 26 42 49 50 51 50 51 51 50 50 54 55 67 74
80 87 86 72 76 76 68 82 90 93 93 96 93 96 88 88 87 88 77 95 99 99 96 92 94 100 99 95 100 97 65 59 34 27 28 32 44 49 50 50 50 50 51 52 53 62 76 88 88
88 68 62 63 79 77 62 89 96 100 100 100 94 94 80 82 91 92 100 100 99 96 98 91 91 89 98 90 97 100 96 66 55 37 30 35 44 48 48 50 49 49 50 56 58 71 89 96 99
76 79 55 51 75 80 65 75 74 85 96 98 94 100 94 89 84 93 99 95 93 92 99 100 100 97 90 80 92 98 98 98 79 46 41 42 46 50 51 53 53 51 52 53 54 67 81 88 97
79 78 87 87 90 89 65 71 86 73 89 95 100 92 100 100 100 99 98 78 87 97 99 100 99 99 100 89 96 96 74 80 73 58 45 43 45 46 47 50 50 52 60 62 63 65 67 80 97
74 92 97 96 91 93 68 66 89 68 72 73 99 100 100 100 100 98 100 98 99 95 97 100 100 99 97 100 98 99 95 84 74 81 72 76 70 82 88 97 92 92 89 86 81 79 74 78 88
79 77 84 96 94 91 77 74 59 64 68 82 72 99 92 94 100 100 100 100 99 99 98 99 99 98 95 99 100 100 100 96 97 85 92 98 97 95 90 91 88 84 78 87 92 86 84 84 97
78 78 77 82 94 95 91 100 99 92 85 70 77 85 84 96 85 82 93 100 98 100 90 95 98 98 98 100 100 98 99 97 99 99 93 89 86 84 91 81 77 69 77 99 92 84 92 89 100
73 80 87 92 93 97 96 98 96 98 97 88 76 75 70 60 84 90 87 97 98 94 97 95 98 98 94 99 99 100 97 94 98 99 98 100 97 93 83 81 79 71 98 100 97 88 100 98 97
77 76 83 89 82 96 95 98 96 94 98 95 84 74 71 67 66 77 73 74 86 88 93 83 90 97 97 96 98 100 100 100 99 99 100 99 100 99 100 92 87 97 99 100 100 100 98 98 98